Wetterdaten: Mittwoch, 27.12.2023
Datum Zeit Temp. I. Temp. A. Feuchte I. Feuchte A. Luftdruck Regen Wind Richtung Richtung Sonnenschein Solar Taupunkt Windchill Windböen
27.12.2023 00:00 21,7 °C 6,2 °C 56 % 82 % 1020,6 hPa 0,0 l/m² 6,7 km/h (2 Bft) W-SW 254 ° 0 min 0 W/m² 3,4 °C 6,0 °C 9,7 km/h (2 Bft)
27.12.2023 00:03 21,7 °C 6,1 °C 56 % 82 % 1020,7 hPa 0,0 l/m² 6,4 km/h (2 Bft) W-SW 250 ° 0 min 0 W/m² 3,3 °C 6,1 °C 12,9 km/h (3 Bft)
27.12.2023 00:05 21,7 °C 6,1 °C 56 % 82 % 1020,7 hPa 0,0 l/m² 6,9 km/h (2 Bft) W 276 ° 0 min 0 W/m² 3,3 °C 5,7 °C 11,3 km/h (2 Bft)
27.12.2023 00:07 21,7 °C 6,0 °C 56 % 82 % 1020,7 hPa 0,0 l/m² 7,9 km/h (2 Bft) W 271 ° 0 min 0 W/m² 3,2 °C 4,7 °C 11,3 km/h (2 Bft)
27.12.2023 00:09 21,7 °C 5,9 °C 56 % 82 % 1020,6 hPa 0,0 l/m² 7,0 km/h (2 Bft) W 263 ° 0 min 0 W/m² 3,1 °C 5,4 °C 11,3 km/h (2 Bft)
27.12.2023 00:11 21,7 °C 5,9 °C 56 % 82 % 1020,7 hPa 0,0 l/m² 6,1 km/h (2 Bft) W 279 ° 0 min 0 W/m² 3,1 °C 5,9 °C 9,7 km/h (2 Bft)
27.12.2023 00:12 21,7 °C 5,8 °C 56 % 82 % 1020,7 hPa 0,0 l/m² 6,3 km/h (2 Bft) W 272 ° 0 min 0 W/m² 3,0 °C 5,8 °C 9,7 km/h (2 Bft)
27.12.2023 00:13 21,7 °C 5,8 °C 56 % 83 % 1020,7 hPa 0,0 l/m² 4,7 km/h (1 Bft) W 276 ° 0 min 0 W/m² 3,1 °C 5,8 °C 6,4 km/h (2 Bft)
27.12.2023 00:14 21,7 °C 5,8 °C 56 % 83 % 1020,7 hPa 0,0 l/m² 5,7 km/h (2 Bft) W-NW 287 ° 0 min 0 W/m² 3,1 °C 5,8 °C 9,7 km/h (2 Bft)
27.12.2023 00:16 21,7 °C 5,8 °C 56 % 83 % 1020,8 hPa 0,0 l/m² 4,3 km/h (1 Bft) W 267 ° 0 min 0 W/m² 3,1 °C 5,8 °C 11,3 km/h (2 Bft)
27.12.2023 00:18 21,7 °C 5,7 °C 56 % 83 % 1020,7 hPa 0,0 l/m² 7,1 km/h (2 Bft) W 261 ° 0 min 0 W/m² 3,0 °C 5,1 °C 11,3 km/h (2 Bft)
27.12.2023 00:20 21,7 °C 5,7 °C 56 % 83 % 1020,7 hPa 0,0 l/m² 7,0 km/h (2 Bft) W 279 ° 0 min 0 W/m² 3,0 °C 5,2 °C 11,3 km/h (2 Bft)
27.12.2023 00:23 21,7 °C 5,6 °C 56 % 82 % 1020,8 hPa 0,0 l/m² 6,1 km/h (2 Bft) W 269 ° 0 min 0 W/m² 2,8 °C 5,6 °C 12,9 km/h (3 Bft)
27.12.2023 00:25 21,7 °C 5,6 °C 56 % 82 % 1020,7 hPa 0,0 l/m² 8,0 km/h (2 Bft) W-NW 300 ° 0 min 0 W/m² 2,8 °C 4,2 °C 16,1 km/h (3 Bft)
27.12.2023 00:27 21,7 °C 5,6 °C 56 % 82 % 1020,8 hPa 0,0 l/m² 7,3 km/h (2 Bft) W-NW 302 ° 0 min 0 W/m² 2,8 °C 4,8 °C 12,9 km/h (3 Bft)
27.12.2023 00:29 21,7 °C 5,6 °C 56 % 82 % 1020,8 hPa 0,0 l/m² 8,4 km/h (2 Bft) W-NW 288 ° 0 min 0 W/m² 2,8 °C 3,9 °C 14,5 km/h (3 Bft)
27.12.2023 00:31 21,7 °C 5,6 °C 56 % 82 % 1020,7 hPa 0,0 l/m² 7,3 km/h (2 Bft) W-NW 282 ° 0 min 0 W/m² 2,8 °C 4,8 °C 12,9 km/h (3 Bft)
27.12.2023 00:32 21,7 °C 5,6 °C 56 % 82 % 1020,8 hPa 0,0 l/m² 9,3 km/h (2 Bft) W 279 ° 0 min 0 W/m² 2,8 °C 3,2 °C 14,5 km/h (3 Bft)
27.12.2023 00:33 21,7 °C 5,6 °C 56 % 82 % 1020,8 hPa 0,0 l/m² 9,5 km/h (2 Bft) W-NW 298 ° 0 min 0 W/m² 2,8 °C 3,1 °C 16,1 km/h (3 Bft)
27.12.2023 00:34 21,7 °C 5,6 °C 56 % 81 % 1020,8 hPa 0,0 l/m² 8,9 km/h (2 Bft) W-NW 293 ° 0 min 0 W/m² 2,6 °C 3,5 °C 12,9 km/h (3 Bft)
27.12.2023 00:36 21,7 °C 5,7 °C 56 % 81 % 1020,7 hPa 0,0 l/m² 12,8 km/h (3 Bft) NW 314 ° 0 min 0 W/m² 2,7 °C 1,1 °C 24,1 km/h (4 Bft)
27.12.2023 00:38 21,7 °C 5,7 °C 56 % 81 % 1020,8 hPa 0,0 l/m² 8,1 km/h (2 Bft) W-NW 303 ° 0 min 0 W/m² 2,7 °C 4,3 °C 12,9 km/h (3 Bft)
27.12.2023 00:40 21,7 °C 5,7 °C 56 % 80 % 1020,9 hPa 0,0 l/m² 6,9 km/h (2 Bft) W-NW 284 ° 0 min 0 W/m² 2,5 °C 5,3 °C 14,5 km/h (3 Bft)
27.12.2023 00:42 21,7 °C 5,7 °C 56 % 80 % 1020,9 hPa 0,0 l/m² 7,3 km/h (2 Bft) W-NW 296 ° 0 min 0 W/m² 2,5 °C 4,9 °C 17,7 km/h (3 Bft)
27.12.2023 00:43 21,7 °C 5,7 °C 56 % 80 % 1020,9 hPa 0,0 l/m² 10,0 km/h (2 Bft) NW 305 ° 0 min 0 W/m² 2,5 °C 2,8 °C 17,7 km/h (3 Bft)
27.12.2023 00:44 21,7 °C 5,7 °C 56 % 80 % 1021,0 hPa 0,0 l/m² 16,1 km/h (3 Bft) W-SW 250 ° 0 min 0 W/m² 2,5 °C -0,6 °C 16,1 km/h (3 Bft)
27.12.2023 00:45 21,7 °C 5,7 °C 56 % 80 % 1021,0 hPa 0,0 l/m² 11,3 km/h (2 Bft) W-NW 293 ° 0 min 0 W/m² 2,5 °C 2,0 °C 19,3 km/h (3 Bft)
27.12.2023 00:46 21,7 °C 5,7 °C 56 % 80 % 1021,0 hPa 0,0 l/m² 10,7 km/h (2 Bft) W 281 ° 0 min 0 W/m² 2,5 °C 2,4 °C 19,3 km/h (3 Bft)
27.12.2023 00:47 21,7 °C 5,7 °C 56 % 80 % 1021,0 hPa 0,0 l/m² 13,5 km/h (3 Bft) W 274 ° 0 min 0 W/m² 2,5 °C 0,7 °C 16,1 km/h (3 Bft)
27.12.2023 00:48 21,7 °C 5,7 °C 56 % 80 % 1021,0 hPa 0,0 l/m² 6,5 km/h (2 Bft) W-NW 298 ° 0 min 0 W/m² 2,5 °C 5,6 °C 14,5 km/h (3 Bft)
27.12.2023 00:50 21,7 °C 5,7 °C 56 % 80 % 1020,9 hPa 0,0 l/m² 11,2 km/h (2 Bft) W 275 ° 0 min 0 W/m² 2,5 °C 2,1 °C 19,3 km/h (3 Bft)
27.12.2023 00:52 21,7 °C 5,7 °C 56 % 79 % 1021,0 hPa 0,0 l/m² 13,6 km/h (3 Bft) W 272 ° 0 min 0 W/m² 2,3 °C 0,7 °C 17,7 km/h (3 Bft)
27.12.2023 00:53 21,7 °C 5,7 °C 56 % 79 % 1020,9 hPa 0,0 l/m² 12,9 km/h (3 Bft) W-NW 285 ° 0 min 0 W/m² 2,3 °C 1,0 °C 22,5 km/h (4 Bft)
27.12.2023 00:54 21,7 °C 5,7 °C 56 % 79 % 1021,0 hPa 0,0 l/m² 12,0 km/h (2 Bft) W-NW 284 ° 0 min 0 W/m² 2,3 °C 1,6 °C 16,1 km/h (3 Bft)
27.12.2023 00:56 21,7 °C 5,7 °C 56 % 79 % 1021,0 hPa 0,0 l/m² 10,6 km/h (2 Bft) NW 308 ° 0 min 0 W/m² 2,3 °C 2,4 °C 16,1 km/h (3 Bft)
27.12.2023 00:58 21,7 °C 5,6 °C 56 % 79 % 1021,0 hPa 0,0 l/m² 12,9 km/h (3 Bft) W 280 ° 0 min 0 W/m² 2,3 °C 0,9 °C 20,9 km/h (4 Bft)
27.12.2023 01:00 21,7 °C 5,6 °C 56 % 79 % 1021,1 hPa 0,0 l/m² 7,0 km/h (2 Bft) NW 304 ° 0 min 0 W/m² 2,3 °C 5,1 °C 19,3 km/h (3 Bft)
27.12.2023 01:02 21,7 °C 5,6 °C 56 % 79 % 1021,1 hPa 0,0 l/m² 8,1 km/h (2 Bft) NW 311 ° 0 min 0 W/m² 2,3 °C 4,2 °C 14,5 km/h (3 Bft)
27.12.2023 01:03 21,7 °C 5,6 °C 56 % 79 % 1021,0 hPa 0,0 l/m² 7,3 km/h (2 Bft) W-NW 288 ° 0 min 0 W/m² 2,3 °C 4,8 °C 12,9 km/h (3 Bft)
27.12.2023 01:04 21,7 °C 5,6 °C 56 % 79 % 1021,1 hPa 0,0 l/m² 9,3 km/h (2 Bft) NW 306 ° 0 min 0 W/m² 2,3 °C 3,2 °C 16,1 km/h (3 Bft)
27.12.2023 01:06 21,7 °C 5,6 °C 56 % 79 % 1021,1 hPa 0,0 l/m² 8,0 km/h (2 Bft) W-NW 299 ° 0 min 0 W/m² 2,3 °C 4,2 °C 14,5 km/h (3 Bft)
27.12.2023 01:07 21,7 °C 5,6 °C 56 % 79 % 1021,0 hPa 0,0 l/m² 9,0 km/h (2 Bft) W-NW 291 ° 0 min 0 W/m² 2,3 °C 3,5 °C 14,5 km/h (3 Bft)
27.12.2023 01:08 21,7 °C 5,5 °C 56 % 79 % 1021,1 hPa 0,0 l/m² 6,5 km/h (2 Bft) W-NW 283 ° 0 min 0 W/m² 2,2 °C 5,4 °C 12,9 km/h (3 Bft)
27.12.2023 01:09 21,7 °C 5,6 °C 56 % 79 % 1021,1 hPa 0,0 l/m² 7,5 km/h (2 Bft) W 276 ° 0 min 0 W/m² 2,3 °C 4,6 °C 12,9 km/h (3 Bft)
27.12.2023 01:11 21,7 °C 5,5 °C 56 % 79 % 1021,0 hPa 0,0 l/m² 3,3 km/h (1 Bft) W-NW 299 ° 0 min 0 W/m² 2,2 °C 5,5 °C 6,4 km/h (2 Bft)
27.12.2023 01:14 21,7 °C 5,4 °C 56 % 78 % 1021,2 hPa 0,0 l/m² 5,1 km/h (1 Bft) W-NW 287 ° 0 min 0 W/m² 1,9 °C 5,4 °C 11,3 km/h (2 Bft)
27.12.2023 01:16 21,7 °C 5,4 °C 56 % 79 % 1021,1 hPa 0,0 l/m² 4,8 km/h (1 Bft) W-NW 293 ° 0 min 0 W/m² 2,1 °C 5,4 °C 9,7 km/h (2 Bft)
27.12.2023 01:18 21,7 °C 5,3 °C 56 % 78 % 1021,2 hPa 0,0 l/m² 8,5 km/h (2 Bft) W 281 ° 0 min 0 W/m² 1,8 °C 3,5 °C 17,7 km/h (3 Bft)
27.12.2023 01:20 21,7 °C 5,3 °C 56 % 78 % 1021,2 hPa 0,0 l/m² 7,8 km/h (2 Bft) W 273 ° 0 min 0 W/m² 1,8 °C 4,1 °C 12,9 km/h (3 Bft)
27.12.2023 01:22 21,7 °C 5,2 °C 56 % 79 % 1021,3 hPa 0,0 l/m² 4,5 km/h (1 Bft) W-NW 288 ° 0 min 0 W/m² 1,9 °C 5,2 °C 11,3 km/h (2 Bft)
27.12.2023 01:23 21,7 °C 5,2 °C 56 % 79 % 1021,2 hPa 0,0 l/m² 3,8 km/h (1 Bft) W 279 ° 0 min 0 W/m² 1,9 °C 5,2 °C 6,4 km/h (2 Bft)
27.12.2023 01:24 21,7 °C 5,2 °C 56 % 79 % 1021,2 hPa 0,0 l/m² 5,7 km/h (2 Bft) W 279 ° 0 min 0 W/m² 1,9 °C 5,2 °C 11,3 km/h (2 Bft)
27.12.2023 01:26 21,7 °C 5,1 °C 56 % 79 % 1021,2 hPa 0,0 l/m² 4,4 km/h (1 Bft) W-NW 285 ° 0 min 0 W/m² 1,8 °C 5,1 °C 9,7 km/h (2 Bft)
27.12.2023 01:28 21,7 °C 5,1 °C 56 % 78 % 1021,3 hPa 0,0 l/m² 2,0 km/h (1 Bft) W-NW 285 ° 0 min 0 W/m² 1,6 °C 5,1 °C 6,4 km/h (2 Bft)
27.12.2023 01:30 21,7 °C 5,1 °C 56 % 78 % 1021,3 hPa 0,0 l/m² 3,6 km/h (1 Bft) W-NW 287 ° 0 min 0 W/m² 1,6 °C 5,1 °C 11,3 km/h (2 Bft)
27.12.2023 01:32 21,7 °C 4,9 °C 56 % 78 % 1021,3 hPa 0,0 l/m² 3,6 km/h (1 Bft) W-NW 288 ° 0 min 0 W/m² 1,4 °C 4,9 °C 8,0 km/h (2 Bft)
27.12.2023 01:33 21,7 °C 4,9 °C 56 % 78 % 1021,3 hPa 0,0 l/m² 1,0 km/h (0 Bft) W-NW 288 ° 0 min 0 W/m² 1,4 °C 4,9 °C 1,6 km/h (1 Bft)
27.12.2023 01:35 21,7 °C 4,9 °C 56 % 78 % 1021,5 hPa 0,0 l/m² 1,7 km/h (1 Bft) W-NW 288 ° 0 min 0 W/m² 1,4 °C 4,9 °C 4,8 km/h (1 Bft)
27.12.2023 01:37 21,7 °C 4,9 °C 56 % 78 % 1021,5 hPa 0,0 l/m² 2,6 km/h (1 Bft) W-NW 291 ° 0 min 0 W/m² 1,4 °C 4,9 °C 8,0 km/h (2 Bft)
27.12.2023 01:39 21,7 °C 4,8 °C 56 % 78 % 1021,5 hPa 0,0 l/m² 3,3 km/h (1 Bft) W-NW 302 ° 0 min 0 W/m² 1,3 °C 4,8 °C 8,0 km/h (2 Bft)
27.12.2023 01:41 21,7 °C 4,8 °C 56 % 78 % 1021,5 hPa 0,0 l/m² 6,4 km/h (2 Bft) W-NW 300 ° 0 min 0 W/m² 1,3 °C 4,8 °C 11,3 km/h (2 Bft)
27.12.2023 01:42 21,7 °C 4,8 °C 56 % 78 % 1021,5 hPa 0,0 l/m² 2,4 km/h (1 Bft) W-NW 302 ° 0 min 0 W/m² 1,3 °C 4,8 °C 4,8 km/h (1 Bft)
27.12.2023 01:43 21,7 °C 4,8 °C 56 % 78 % 1021,5 hPa 0,0 l/m² 0,6 km/h (0 Bft) W-NW 302 ° 0 min 0 W/m² 1,3 °C 4,8 °C 1,6 km/h (1 Bft)
27.12.2023 01:44 21,7 °C 4,7 °C 56 % 79 % 1021,5 hPa 0,0 l/m² 2,9 km/h (1 Bft) W-NW 301 ° 0 min 0 W/m² 1,4 °C 4,7 °C 6,4 km/h (2 Bft)
27.12.2023 01:45 21,7 °C 4,7 °C 56 % 79 % 1021,5 hPa 0,0 l/m² 1,9 km/h (1 Bft) W-NW 302 ° 0 min 0 W/m² 1,4 °C 4,7 °C 3,2 km/h (1 Bft)
27.12.2023 01:46 21,7 °C 4,7 °C 56 % 79 % 1021,6 hPa 0,0 l/m² 5,4 km/h (2 Bft) NW 306 ° 0 min 0 W/m² 1,4 °C 4,7 °C 8,0 km/h (2 Bft)
27.12.2023 01:47 21,7 °C 4,7 °C 56 % 79 % 1021,6 hPa 0,0 l/m² 3,6 km/h (1 Bft) W-NW 302 ° 0 min 0 W/m² 1,4 °C 4,7 °C 6,4 km/h (2 Bft)
27.12.2023 01:48 21,7 °C 4,7 °C 56 % 79 % 1021,5 hPa 0,0 l/m² 1,7 km/h (1 Bft) W-NW 302 ° 0 min 0 W/m² 1,4 °C 4,7 °C 4,8 km/h (1 Bft)
27.12.2023 01:49 21,7 °C 4,6 °C 56 % 79 % 1021,7 hPa 0,0 l/m² 2,7 km/h (1 Bft) W-NW 300 ° 0 min 0 W/m² 1,3 °C 4,6 °C 3,2 km/h (1 Bft)
27.12.2023 01:50 21,7 °C 4,6 °C 56 % 79 % 1021,6 hPa 0,0 l/m² 1,6 km/h (1 Bft) W-NW 300 ° 0 min 0 W/m² 1,3 °C 4,6 °C 3,2 km/h (1 Bft)
27.12.2023 01:52 21,7 °C 4,6 °C 56 % 79 % 1021,7 hPa 0,0 l/m² 1,0 km/h (0 Bft) W-NW 296 ° 0 min 0 W/m² 1,3 °C 4,6 °C 3,2 km/h (1 Bft)
27.12.2023 01:53 21,7 °C 4,6 °C 56 % 79 % 1021,7 hPa 0,0 l/m² 2,7 km/h (1 Bft) W-NW 287 ° 0 min 0 W/m² 1,3 °C 4,6 °C 4,8 km/h (1 Bft)
27.12.2023 01:54 21,7 °C 4,5 °C 56 % 79 % 1021,7 hPa 0,0 l/m² 1,1 km/h (1 Bft) W-NW 287 ° 0 min 0 W/m² 1,2 °C 4,5 °C 3,2 km/h (1 Bft)
27.12.2023 01:55 21,7 °C 4,4 °C 56 % 79 % 1021,7 hPa 0,0 l/m² 1,4 km/h (1 Bft) W-NW 287 ° 0 min 0 W/m² 1,1 °C 4,4 °C 1,6 km/h (1 Bft)
27.12.2023 01:57 21,7 °C 4,3 °C 56 % 79 % 1021,8 hPa 0,0 l/m² 1,0 km/h (0 Bft) W-NW 287 ° 0 min 0 W/m² 1,0 °C 4,3 °C 1,6 km/h (1 Bft)
27.12.2023 01:58 21,7 °C 4,3 °C 56 % 79 % 1021,8 hPa 0,0 l/m² 1,2 km/h (1 Bft) W-NW 287 ° 0 min 0 W/m² 1,0 °C 4,3 °C 1,6 km/h (1 Bft)
27.12.2023 01:59 21,7 °C 4,3 °C 56 % 79 % 1021,8 hPa 0,0 l/m² 1,4 km/h (1 Bft) W-NW 287 ° 0 min 0 W/m² 1,0 °C 4,3 °C 3,2 km/h (1 Bft)
27.12.2023 02:01 21,7 °C 4,2 °C 56 % 79 % 1021,8 hPa 0,0 l/m² 0,6 km/h (0 Bft) W-NW 287 ° 0 min 0 W/m² 0,9 °C 4,2 °C 1,6 km/h (1 Bft)
27.12.2023 02:03 21,7 °C 4,2 °C 56 % 79 % 1021,8 hPa 0,0 l/m² 0,0 km/h (0 Bft) W-NW 287 ° 0 min 0 W/m² 0,9 °C 4,2 °C 0,0 km/h (0 Bft)
27.12.2023 02:04 21,7 °C 4,2 °C 56 % 80 % 1021,8 hPa 0,0 l/m² 0,0 km/h (0 Bft) W-NW 287 ° 0 min 0 W/m² 1,1 °C 4,2 °C 0,0 km/h (0 Bft)
27.12.2023 02:05 21,7 °C 4,1 °C 56 % 80 % 1021,9 hPa 0,0 l/m² 0,0 km/h (0 Bft) W-NW 287 ° 0 min 0 W/m² 1,0 °C 4,1 °C 0,0 km/h (0 Bft)
27.12.2023 02:06 21,7 °C 4,2 °C 56 % 80 % 1021,9 hPa 0,0 l/m² 0,0 km/h (0 Bft) W-NW 287 ° 0 min 0 W/m² 1,1 °C 4,2 °C 0,0 km/h (0 Bft)
27.12.2023 02:07 21,7 °C 4,1 °C 56 % 80 % 1021,8 hPa 0,0 l/m² 0,0 km/h (0 Bft) W-NW 287 ° 0 min 0 W/m² 1,0 °C 4,1 °C 0,0 km/h (0 Bft)
27.12.2023 02:08 21,7 °C 4,1 °C 56 % 80 % 1021,8 hPa 0,0 l/m² 0,1 km/h (0 Bft) W-NW 287 ° 0 min 0 W/m² 1,0 °C 4,1 °C 1,6 km/h (1 Bft)
27.12.2023 02:09 21,7 °C 4,1 °C 56 % 80 % 1021,9 hPa 0,0 l/m² 0,0 km/h (0 Bft) W-NW 287 ° 0 min 0 W/m² 1,0 °C 4,1 °C 0,0 km/h (0 Bft)
27.12.2023 02:10 21,7 °C 4,0 °C 56 % 80 % 1021,8 hPa 0,0 l/m² 0,0 km/h (0 Bft) W-NW 287 ° 0 min 0 W/m² 0,9 °C 4,0 °C 0,0 km/h (0 Bft)
27.12.2023 02:11 21,7 °C 3,9 °C 56 % 80 % 1021,8 hPa 0,0 l/m² 0,0 km/h (0 Bft) W-NW 287 ° 0 min 0 W/m² 0,8 °C 3,9 °C 0,0 km/h (0 Bft)
27.12.2023 02:12 21,7 °C 3,9 °C 56 % 80 % 1021,8 hPa 0,0 l/m² 0,0 km/h (0 Bft) W-NW 287 ° 0 min 0 W/m² 0,8 °C 3,9 °C 0,0 km/h (0 Bft)
27.12.2023 02:13 21,7 °C 3,8 °C 56 % 80 % 1021,8 hPa 0,0 l/m² 0,0 km/h (0 Bft) W-NW 287 ° 0 min 0 W/m² 0,7 °C 3,8 °C 0,0 km/h (0 Bft)
27.12.2023 02:14 21,7 °C 3,8 °C 56 % 80 % 1021,8 hPa 0,0 l/m² 1,6 km/h (1 Bft) W-NW 287 ° 0 min 0 W/m² 0,7 °C 3,8 °C 3,2 km/h (1 Bft)
27.12.2023 02:15 21,7 °C 3,8 °C 56 % 80 % 1021,8 hPa 0,0 l/m² 1,9 km/h (1 Bft) W-NW 287 ° 0 min 0 W/m² 0,7 °C 3,8 °C 3,2 km/h (1 Bft)
27.12.2023 02:16 21,7 °C 3,8 °C 56 % 80 % 1021,8 hPa 0,0 l/m² 2,2 km/h (1 Bft) W-NW 287 ° 0 min 0 W/m² 0,7 °C 3,8 °C 3,2 km/h (1 Bft)
27.12.2023 02:17 21,7 °C 3,7 °C 56 % 80 % 1021,8 hPa 0,0 l/m² 2,4 km/h (1 Bft) W-NW 287 ° 0 min 0 W/m² 0,6 °C 3,7 °C 3,2 km/h (1 Bft)
27.12.2023 02:18 21,7 °C 3,7 °C 56 % 80 % 1021,9 hPa 0,0 l/m² 2,5 km/h (1 Bft) W-NW 287 ° 0 min 0 W/m² 0,6 °C 3,7 °C 3,2 km/h (1 Bft)
27.12.2023 02:19 21,7 °C 3,6 °C 56 % 80 % 1021,9 hPa 0,0 l/m² 2,5 km/h (1 Bft) W-NW 287 ° 0 min 0 W/m² 0,5 °C 3,6 °C 3,2 km/h (1 Bft)
27.12.2023 02:20 21,7 °C 3,6 °C 56 % 80 % 1021,9 hPa 0,0 l/m² 2,4 km/h (1 Bft) W-NW 287 ° 0 min 0 W/m² 0,5 °C 3,6 °C 3,2 km/h (1 Bft)
27.12.2023 02:21 21,7 °C 3,6 °C 56 % 80 % 1021,9 hPa 0,0 l/m² 1,9 km/h (1 Bft) W-NW 287 ° 0 min 0 W/m² 0,5 °C 3,6 °C 3,2 km/h (1 Bft)
27.12.2023 02:22 21,7 °C 3,5 °C 56 % 81 % 1021,9 hPa 0,0 l/m² 1,8 km/h (1 Bft) W-NW 287 ° 0 min 0 W/m² 0,6 °C 3,5 °C 3,2 km/h (1 Bft)
27.12.2023 02:23 21,7 °C 3,5 °C 56 % 81 % 1022,0 hPa 0,0 l/m² 2,6 km/h (1 Bft) W-NW 287 ° 0 min 0 W/m² 0,6 °C 3,5 °C 3,2 km/h (1 Bft)
27.12.2023 02:24 21,7 °C 3,4 °C 56 % 81 % 1022,0 hPa 0,0 l/m² 2,4 km/h (1 Bft) W-NW 287 ° 0 min 0 W/m² 0,5 °C 3,4 °C 3,2 km/h (1 Bft)
27.12.2023 02:25 21,7 °C 3,4 °C 56 % 80 % 1022,0 hPa 0,0 l/m² 2,8 km/h (1 Bft) W-NW 287 ° 0 min 0 W/m² 0,3 °C 3,4 °C 3,2 km/h (1 Bft)
27.12.2023 02:26 21,7 °C 3,4 °C 56 % 81 % 1021,9 hPa 0,0 l/m² 1,1 km/h (1 Bft) W-NW 287 ° 0 min 0 W/m² 0,5 °C 3,4 °C 3,2 km/h (1 Bft)
27.12.2023 02:27 21,7 °C 3,3 °C 56 % 81 % 1021,9 hPa 0,0 l/m² 1,3 km/h (1 Bft) W-NW 287 ° 0 min 0 W/m² 0,4 °C 3,3 °C 3,2 km/h (1 Bft)
27.12.2023 02:28 21,7 °C 3,3 °C 56 % 81 % 1021,9 hPa 0,0 l/m² 1,0 km/h (0 Bft) W-NW 287 ° 0 min 0 W/m² 0,4 °C 3,3 °C 3,2 km/h (1 Bft)
27.12.2023 02:29 21,7 °C 3,3 °C 56 % 81 % 1022,0 hPa 0,0 l/m² 1,5 km/h (1 Bft) W-NW 287 ° 0 min 0 W/m² 0,4 °C 3,3 °C 3,2 km/h (1 Bft)
27.12.2023 02:30 21,7 °C 3,2 °C 56 % 81 % 1022,0 hPa 0,0 l/m² 1,9 km/h (1 Bft) W-NW 287 ° 0 min 0 W/m² 0,3 °C 3,2 °C 3,2 km/h (1 Bft)
27.12.2023 02:31 21,6 °C 3,2 °C 56 % 81 % 1021,9 hPa 0,0 l/m² 1,7 km/h (1 Bft) W-NW 287 ° 0 min 0 W/m² 0,3 °C 3,2 °C 3,2 km/h (1 Bft)
27.12.2023 02:32 21,6 °C 3,2 °C 56 % 81 % 1021,9 hPa 0,0 l/m² 0,2 km/h (0 Bft) W-NW 287 ° 0 min 0 W/m² 0,3 °C 3,2 °C 1,6 km/h (1 Bft)
27.12.2023 02:33 21,7 °C 3,2 °C 56 % 81 % 1022,0 hPa 0,0 l/m² 0,0 km/h (0 Bft) W-NW 287 ° 0 min 0 W/m² 0,3 °C 3,2 °C 0,0 km/h (0 Bft)
27.12.2023 02:34 21,7 °C 3,1 °C 56 % 81 % 1022,1 hPa 0,0 l/m² 0,0 km/h (0 Bft) W-NW 287 ° 0 min 0 W/m² 0,2 °C 3,1 °C 0,0 km/h (0 Bft)
27.12.2023 02:35 21,7 °C 3,1 °C 56 % 81 % 1021,9 hPa 0,0 l/m² 0,0 km/h (0 Bft) W-NW 287 ° 0 min 0 W/m² 0,2 °C 3,1 °C 0,0 km/h (0 Bft)
27.12.2023 02:36 21,7 °C 3,1 °C 56 % 81 % 1022,0 hPa 0,0 l/m² 0,0 km/h (0 Bft) W-NW 287 ° 0 min 0 W/m² 0,2 °C 3,1 °C 0,0 km/h (0 Bft)
27.12.2023 02:37 21,7 °C 3,1 °C 56 % 81 % 1022,1 hPa 0,0 l/m² 0,0 km/h (0 Bft) W-NW 287 ° 0 min 0 W/m² 0,2 °C 3,1 °C 0,0 km/h (0 Bft)
27.12.2023 02:38 21,7 °C 2,9 °C 56 % 81 % 1022,1 hPa 0,0 l/m² 0,0 km/h (0 Bft) W-NW 287 ° 0 min 0 W/m² -0,0 °C 2,9 °C 0,0 km/h (0 Bft)
27.12.2023 02:39 21,7 °C 2,9 °C 56 % 81 % 1022,0 hPa 0,0 l/m² 1,8 km/h (1 Bft) W-NW 287 ° 0 min 0 W/m² -0,0 °C 2,9 °C 3,2 km/h (1 Bft)
27.12.2023 02:40 21,7 °C 2,9 °C 56 % 81 % 1022,0 hPa 0,0 l/m² 2,5 km/h (1 Bft) W-NW 286 ° 0 min 0 W/m² -0,0 °C 2,9 °C 4,8 km/h (1 Bft)
27.12.2023 02:42 21,7 °C 2,8 °C 56 % 81 % 1022,0 hPa 0,0 l/m² 4,1 km/h (1 Bft) W 277 ° 0 min 0 W/m² -0,1 °C 2,8 °C 6,4 km/h (2 Bft)
27.12.2023 02:43 21,6 °C 2,8 °C 56 % 82 % 1022,0 hPa 0,0 l/m² 3,1 km/h (1 Bft) W 277 ° 0 min 0 W/m² 0,0 °C 2,8 °C 4,8 km/h (1 Bft)
27.12.2023 02:44 21,7 °C 2,8 °C 56 % 82 % 1022,0 hPa 0,0 l/m² 3,9 km/h (1 Bft) W 277 ° 0 min 0 W/m² 0,0 °C 2,8 °C 4,8 km/h (1 Bft)
27.12.2023 02:45 21,7 °C 2,7 °C 56 % 82 % 1022,0 hPa 0,0 l/m² 4,5 km/h (1 Bft) W 277 ° 0 min 0 W/m² -0,1 °C 2,7 °C 6,4 km/h (2 Bft)
27.12.2023 02:46 21,6 °C 2,7 °C 56 % 82 % 1022,1 hPa 0,0 l/m² 3,1 km/h (1 Bft) W 277 ° 0 min 0 W/m² -0,1 °C 2,7 °C 4,8 km/h (1 Bft)
27.12.2023 02:47 21,7 °C 2,7 °C 56 % 82 % 1022,0 hPa 0,0 l/m² 3,6 km/h (1 Bft) W 277 ° 0 min 0 W/m² -0,1 °C 2,7 °C 4,8 km/h (1 Bft)
27.12.2023 02:48 21,7 °C 2,6 °C 56 % 82 % 1022,0 hPa 0,0 l/m² 3,6 km/h (1 Bft) W 276 ° 0 min 0 W/m² -0,2 °C 2,6 °C 4,8 km/h (1 Bft)
27.12.2023 02:49 21,7 °C 2,6 °C 56 % 82 % 1022,1 hPa 0,0 l/m² 4,6 km/h (1 Bft) W 277 ° 0 min 0 W/m² -0,2 °C 2,6 °C 6,4 km/h (2 Bft)
27.12.2023 02:50 21,7 °C 2,6 °C 56 % 82 % 1022,1 hPa 0,0 l/m² 5,1 km/h (1 Bft) W 276 ° 0 min 0 W/m² -0,2 °C 2,6 °C 6,4 km/h (2 Bft)
27.12.2023 02:51 21,7 °C 2,5 °C 56 % 82 % 1022,1 hPa 0,0 l/m² 5,6 km/h (2 Bft) W 275 ° 0 min 0 W/m² -0,3 °C 2,5 °C 6,4 km/h (2 Bft)
27.12.2023 02:52 21,6 °C 2,5 °C 56 % 82 % 1022,2 hPa 0,0 l/m² 4,9 km/h (1 Bft) W 277 ° 0 min 0 W/m² -0,3 °C 2,5 °C 6,4 km/h (2 Bft)
27.12.2023 02:53 21,6 °C 2,4 °C 56 % 83 % 1022,1 hPa 0,0 l/m² 4,2 km/h (1 Bft) W 277 ° 0 min 0 W/m² -0,2 °C 2,4 °C 4,8 km/h (1 Bft)
27.12.2023 02:54 21,7 °C 2,4 °C 56 % 83 % 1022,1 hPa 0,0 l/m² 3,5 km/h (1 Bft) W 277 ° 0 min 0 W/m² -0,2 °C 2,4 °C 4,8 km/h (1 Bft)
27.12.2023 02:55 21,6 °C 2,4 °C 56 % 83 % 1022,2 hPa 0,0 l/m² 3,7 km/h (1 Bft) W 277 ° 0 min 0 W/m² -0,2 °C 2,4 °C 4,8 km/h (1 Bft)
27.12.2023 02:56 21,6 °C 2,4 °C 56 % 83 % 1022,2 hPa 0,0 l/m² 4,1 km/h (1 Bft) W 272 ° 0 min 0 W/m² -0,2 °C 2,4 °C 4,8 km/h (1 Bft)
27.12.2023 02:57 21,6 °C 2,3 °C 56 % 83 % 1022,2 hPa 0,0 l/m² 4,0 km/h (1 Bft) W 271 ° 0 min 0 W/m² -0,3 °C 2,3 °C 4,8 km/h (1 Bft)
27.12.2023 02:58 21,6 °C 2,3 °C 56 % 83 % 1022,2 hPa 0,0 l/m² 4,4 km/h (1 Bft) W 273 ° 0 min 0 W/m² -0,3 °C 2,3 °C 6,4 km/h (2 Bft)
27.12.2023 02:59 21,6 °C 2,3 °C 56 % 83 % 1022,2 hPa 0,0 l/m² 4,5 km/h (1 Bft) W 274 ° 0 min 0 W/m² -0,3 °C 2,3 °C 6,4 km/h (2 Bft)
27.12.2023 03:00 21,6 °C 2,3 °C 56 % 83 % 1022,3 hPa 0,0 l/m² 5,0 km/h (1 Bft) W 273 ° 0 min 0 W/m² -0,3 °C 2,3 °C 6,4 km/h (2 Bft)
27.12.2023 03:02 21,6 °C 2,2 °C 56 % 83 % 1022,3 hPa 0,0 l/m² 4,9 km/h (1 Bft) W 261 ° 0 min 0 W/m² -0,4 °C 2,2 °C 6,4 km/h (2 Bft)
27.12.2023 03:04 21,6 °C 2,2 °C 56 % 83 % 1022,4 hPa 0,0 l/m² 4,8 km/h (1 Bft) W-SW 254 ° 0 min 0 W/m² -0,4 °C 2,2 °C 6,4 km/h (2 Bft)
27.12.2023 03:05 21,7 °C 2,2 °C 56 % 83 % 1022,3 hPa 0,0 l/m² 4,8 km/h (1 Bft) W-SW 252 ° 0 min 0 W/m² -0,4 °C 2,2 °C 6,4 km/h (2 Bft)
27.12.2023 03:06 21,6 °C 2,2 °C 56 % 84 % 1022,4 hPa 0,0 l/m² 4,2 km/h (1 Bft) W-SW 251 ° 0 min 0 W/m² -0,2 °C 2,2 °C 4,8 km/h (1 Bft)
27.12.2023 03:07 21,6 °C 2,1 °C 56 % 84 % 1022,4 hPa 0,0 l/m² 2,9 km/h (1 Bft) W-SW 251 ° 0 min 0 W/m² -0,3 °C 2,1 °C 4,8 km/h (1 Bft)
27.12.2023 03:08 21,6 °C 2,1 °C 56 % 84 % 1022,3 hPa 0,0 l/m² 2,8 km/h (1 Bft) W-SW 251 ° 0 min 0 W/m² -0,3 °C 2,1 °C 3,2 km/h (1 Bft)
27.12.2023 03:10 21,6 °C 2,1 °C 56 % 84 % 1022,2 hPa 0,0 l/m² 3,2 km/h (1 Bft) W-SW 251 ° 0 min 0 W/m² -0,3 °C 2,1 °C 4,8 km/h (1 Bft)
27.12.2023 03:11 21,6 °C 2,1 °C 56 % 84 % 1022,2 hPa 0,0 l/m² 0,9 km/h (0 Bft) W-SW 251 ° 0 min 0 W/m² -0,3 °C 2,1 °C 4,8 km/h (1 Bft)
27.12.2023 03:12 21,6 °C 2,1 °C 56 % 84 % 1022,3 hPa 0,0 l/m² 3,0 km/h (1 Bft) W-SW 251 ° 0 min 0 W/m² -0,3 °C 2,1 °C 4,8 km/h (1 Bft)
27.12.2023 03:14 21,7 °C 1,9 °C 56 % 84 % 1022,2 hPa 0,0 l/m² 4,5 km/h (1 Bft) W-SW 250 ° 0 min 0 W/m² -0,5 °C 1,9 °C 6,4 km/h (2 Bft)
27.12.2023 03:16 21,6 °C 1,9 °C 56 % 84 % 1022,3 hPa 0,0 l/m² 4,6 km/h (1 Bft) W 259 ° 0 min 0 W/m² -0,5 °C 1,9 °C 6,4 km/h (2 Bft)
27.12.2023 03:18 21,7 °C 1,9 °C 56 % 84 % 1022,2 hPa 0,0 l/m² 4,0 km/h (1 Bft) W 260 ° 0 min 0 W/m² -0,5 °C 1,9 °C 6,4 km/h (2 Bft)
27.12.2023 03:20 21,6 °C 1,9 °C 56 % 85 % 1022,2 hPa 0,0 l/m² 4,9 km/h (1 Bft) W-NW 282 ° 0 min 0 W/m² -0,3 °C 1,9 °C 6,4 km/h (2 Bft)
27.12.2023 03:21 21,6 °C 1,9 °C 56 % 85 % 1022,2 hPa 0,0 l/m² 4,3 km/h (1 Bft) W 278 ° 0 min 0 W/m² -0,3 °C 1,9 °C 4,8 km/h (1 Bft)
27.12.2023 03:22 21,6 °C 1,9 °C 56 % 85 % 1022,1 hPa 0,0 l/m² 3,3 km/h (1 Bft) W 278 ° 0 min 0 W/m² -0,3 °C 1,9 °C 4,8 km/h (1 Bft)
27.12.2023 03:24 21,6 °C 1,8 °C 56 % 85 % 1022,2 hPa 0,0 l/m² 2,9 km/h (1 Bft) W 278 ° 0 min 0 W/m² -0,4 °C 1,8 °C 4,8 km/h (1 Bft)
27.12.2023 03:26 21,6 °C 1,8 °C 56 % 85 % 1022,1 hPa 0,0 l/m² 4,0 km/h (1 Bft) W 278 ° 0 min 0 W/m² -0,4 °C 1,8 °C 6,4 km/h (2 Bft)
27.12.2023 03:28 21,6 °C 1,8 °C 56 % 85 % 1022,2 hPa 0,0 l/m² 3,5 km/h (1 Bft) W 278 ° 0 min 0 W/m² -0,4 °C 1,8 °C 4,8 km/h (1 Bft)
27.12.2023 03:30 21,6 °C 1,8 °C 56 % 85 % 1022,2 hPa 0,0 l/m² 3,1 km/h (1 Bft) W 278 ° 0 min 0 W/m² -0,4 °C 1,8 °C 4,8 km/h (1 Bft)
27.12.2023 03:31 21,6 °C 1,7 °C 56 % 85 % 1022,3 hPa 0,0 l/m² 1,9 km/h (1 Bft) W 278 ° 0 min 0 W/m² -0,5 °C 1,7 °C 3,2 km/h (1 Bft)
27.12.2023 03:32 21,6 °C 1,7 °C 56 % 85 % 1022,2 hPa 0,0 l/m² 1,4 km/h (1 Bft) W 278 ° 0 min 0 W/m² -0,5 °C 1,7 °C 3,2 km/h (1 Bft)
27.12.2023 03:33 21,6 °C 1,7 °C 56 % 85 % 1022,2 hPa 0,0 l/m² 0,8 km/h (0 Bft) W 278 ° 0 min 0 W/m² -0,5 °C 1,7 °C 3,2 km/h (1 Bft)
27.12.2023 03:34 21,6 °C 1,7 °C 56 % 85 % 1022,2 hPa 0,0 l/m² 0,0 km/h (0 Bft) W 278 ° 0 min 0 W/m² -0,5 °C 1,7 °C 0,0 km/h (0 Bft)
27.12.2023 03:36 21,6 °C 1,7 °C 56 % 85 % 1022,2 hPa 0,0 l/m² 0,0 km/h (0 Bft) W 278 ° 0 min 0 W/m² -0,5 °C 1,7 °C 0,0 km/h (0 Bft)
27.12.2023 03:38 21,6 °C 1,7 °C 56 % 85 % 1022,3 hPa 0,0 l/m² 0,1 km/h (0 Bft) W 278 ° 0 min 0 W/m² -0,5 °C 1,7 °C 1,6 km/h (1 Bft)
27.12.2023 03:40 21,6 °C 1,6 °C 56 % 86 % 1022,3 hPa 0,0 l/m² 0,0 km/h (0 Bft) W 278 ° 0 min 0 W/m² -0,5 °C 1,6 °C 0,0 km/h (0 Bft)
27.12.2023 03:41 21,6 °C 1,6 °C 56 % 86 % 1022,2 hPa 0,0 l/m² 0,0 km/h (0 Bft) W 278 ° 0 min 0 W/m² -0,5 °C 1,6 °C 0,0 km/h (0 Bft)
27.12.2023 03:42 21,7 °C 1,6 °C 56 % 86 % 1022,3 hPa 0,0 l/m² 0,0 km/h (0 Bft) W 278 ° 0 min 0 W/m² -0,5 °C 1,6 °C 0,0 km/h (0 Bft)
27.12.2023 03:44 21,7 °C 1,6 °C 56 % 86 % 1022,3 hPa 0,0 l/m² 0,0 km/h (0 Bft) W 278 ° 0 min 0 W/m² -0,5 °C 1,6 °C 1,6 km/h (1 Bft)
27.12.2023 03:46 21,6 °C 1,6 °C 56 % 86 % 1022,3 hPa 0,0 l/m² 1,9 km/h (1 Bft) W 278 ° 0 min 0 W/m² -0,5 °C 1,6 °C 3,2 km/h (1 Bft)
27.12.2023 03:47 21,6 °C 1,6 °C 56 % 86 % 1022,2 hPa 0,0 l/m² 3,8 km/h (1 Bft) W-NW 285 ° 0 min 0 W/m² -0,5 °C 1,6 °C 4,8 km/h (1 Bft)
27.12.2023 03:49 21,7 °C 1,5 °C 56 % 86 % 1022,2 hPa 0,0 l/m² 3,4 km/h (1 Bft) W-NW 288 ° 0 min 0 W/m² -0,6 °C 1,5 °C 4,8 km/h (1 Bft)
27.12.2023 03:50 21,7 °C 1,4 °C 55 % 86 % 1022,2 hPa 0,0 l/m² 4,1 km/h (1 Bft) W-NW 290 ° 0 min 0 W/m² -0,7 °C 1,4 °C 4,8 km/h (1 Bft)
27.12.2023 03:52 21,6 °C 1,4 °C 55 % 86 % 1022,2 hPa 0,0 l/m² 2,6 km/h (1 Bft) W-NW 290 ° 0 min 0 W/m² -0,7 °C 1,4 °C 4,8 km/h (1 Bft)
27.12.2023 03:54 21,7 °C 1,4 °C 55 % 86 % 1022,4 hPa 0,0 l/m² 2,7 km/h (1 Bft) W-NW 290 ° 0 min 0 W/m² -0,7 °C 1,4 °C 4,8 km/h (1 Bft)
27.12.2023 03:56 21,7 °C 1,4 °C 55 % 86 % 1022,4 hPa 0,0 l/m² 2,1 km/h (1 Bft) W-NW 290 ° 0 min 0 W/m² -0,7 °C 1,4 °C 3,2 km/h (1 Bft)
27.12.2023 03:58 21,7 °C 1,4 °C 55 % 86 % 1022,4 hPa 0,0 l/m² 0,1 km/h (0 Bft) W-NW 290 ° 0 min 0 W/m² -0,7 °C 1,4 °C 1,6 km/h (1 Bft)
27.12.2023 04:00 21,7 °C 1,4 °C 55 % 86 % 1022,4 hPa 0,0 l/m² 0,0 km/h (0 Bft) W-NW 290 ° 0 min 0 W/m² -0,7 °C 1,4 °C 0,0 km/h (0 Bft)
27.12.2023 04:01 21,7 °C 1,4 °C 55 % 86 % 1022,4 hPa 0,0 l/m² 1,1 km/h (1 Bft) W-NW 290 ° 0 min 0 W/m² -0,7 °C 1,4 °C 1,6 km/h (1 Bft)
27.12.2023 04:03 21,7 °C 1,3 °C 56 % 86 % 1022,4 hPa 0,0 l/m² 2,2 km/h (1 Bft) W-NW 290 ° 0 min 0 W/m² -0,8 °C 1,3 °C 3,2 km/h (1 Bft)
27.12.2023 04:05 21,7 °C 1,3 °C 55 % 86 % 1022,4 hPa 0,0 l/m² 1,8 km/h (1 Bft) W-NW 290 ° 0 min 0 W/m² -0,8 °C 1,3 °C 3,2 km/h (1 Bft)
27.12.2023 04:07 21,7 °C 1,3 °C 55 % 86 % 1022,4 hPa 0,0 l/m² 0,0 km/h (0 Bft) W-NW 290 ° 0 min 0 W/m² -0,8 °C 1,3 °C 1,6 km/h (1 Bft)
27.12.2023 04:09 21,7 °C 1,3 °C 55 % 87 % 1022,4 hPa 0,0 l/m² 0,0 km/h (0 Bft) W-NW 290 ° 0 min 0 W/m² -0,6 °C 1,3 °C 0,0 km/h (0 Bft)
27.12.2023 04:10 21,7 °C 1,3 °C 55 % 87 % 1022,4 hPa 0,0 l/m² 0,0 km/h (0 Bft) W-NW 290 ° 0 min 0 W/m² -0,6 °C 1,3 °C 0,0 km/h (0 Bft)
27.12.2023 04:12 21,7 °C 1,3 °C 55 % 87 % 1022,3 hPa 0,0 l/m² 0,0 km/h (0 Bft) W-NW 290 ° 0 min 0 W/m² -0,6 °C 1,3 °C 0,0 km/h (0 Bft)
27.12.2023 04:14 21,7 °C 1,3 °C 55 % 87 % 1022,3 hPa 0,0 l/m² 0,0 km/h (0 Bft) W-NW 290 ° 0 min 0 W/m² -0,6 °C 1,3 °C 0,0 km/h (0 Bft)
27.12.2023 04:16 21,7 °C 1,2 °C 55 % 87 % 1022,3 hPa 0,0 l/m² 0,0 km/h (0 Bft) W-NW 290 ° 0 min 0 W/m² -0,7 °C 1,2 °C 0,0 km/h (0 Bft)
27.12.2023 04:18 21,7 °C 1,2 °C 55 % 87 % 1022,4 hPa 0,0 l/m² 0,0 km/h (0 Bft) W-NW 290 ° 0 min 0 W/m² -0,7 °C 1,2 °C 0,0 km/h (0 Bft)
27.12.2023 04:20 21,7 °C 1,2 °C 55 % 87 % 1022,2 hPa 0,0 l/m² 0,0 km/h (0 Bft) W-NW 290 ° 0 min 0 W/m² -0,7 °C 1,2 °C 0,0 km/h (0 Bft)
27.12.2023 04:21 21,7 °C 1,2 °C 55 % 87 % 1022,3 hPa 0,0 l/m² 0,0 km/h (0 Bft) W-NW 290 ° 0 min 0 W/m² -0,7 °C 1,2 °C 0,0 km/h (0 Bft)
27.12.2023 04:23 21,7 °C 1,1 °C 55 % 87 % 1022,3 hPa 0,0 l/m² 0,0 km/h (0 Bft) W-NW 290 ° 0 min 0 W/m² -0,8 °C 1,1 °C 0,0 km/h (0 Bft)
27.12.2023 04:25 21,7 °C 1,1 °C 55 % 87 % 1022,4 hPa 0,0 l/m² 0,0 km/h (0 Bft) W-NW 290 ° 0 min 0 W/m² -0,8 °C 1,1 °C 0,0 km/h (0 Bft)
27.12.2023 04:27 21,7 °C 1,1 °C 55 % 87 % 1022,4 hPa 0,0 l/m² 0,0 km/h (0 Bft) W-NW 290 ° 0 min 0 W/m² -0,8 °C 1,1 °C 0,0 km/h (0 Bft)
27.12.2023 04:29 21,6 °C 1,0 °C 55 % 87 % 1022,4 hPa 0,0 l/m² 0,0 km/h (0 Bft) W-NW 290 ° 0 min 0 W/m² -0,9 °C 1,0 °C 0,0 km/h (0 Bft)
27.12.2023 04:30 21,7 °C 1,0 °C 55 % 87 % 1022,4 hPa 0,0 l/m² 0,0 km/h (0 Bft) W-NW 290 ° 0 min 0 W/m² -0,9 °C 1,0 °C 0,0 km/h (0 Bft)
27.12.2023 04:32 21,7 °C 0,9 °C 55 % 87 % 1022,5 hPa 0,0 l/m² 0,1 km/h (0 Bft) W-NW 290 ° 0 min 0 W/m² -1,0 °C 0,9 °C 1,6 km/h (1 Bft)
27.12.2023 04:34 21,6 °C 0,9 °C 55 % 87 % 1022,4 hPa 0,0 l/m² 3,5 km/h (1 Bft) W-NW 290 ° 0 min 0 W/m² -1,0 °C 0,9 °C 4,8 km/h (1 Bft)
27.12.2023 04:36 21,6 °C 0,8 °C 55 % 87 % 1022,3 hPa 0,0 l/m² 3,4 km/h (1 Bft) W-NW 290 ° 0 min 0 W/m² -1,1 °C 0,8 °C 4,8 km/h (1 Bft)
27.12.2023 04:38 21,7 °C 0,8 °C 55 % 87 % 1022,3 hPa 0,0 l/m² 2,9 km/h (1 Bft) W-NW 290 ° 0 min 0 W/m² -1,1 °C 0,8 °C 4,8 km/h (1 Bft)
27.12.2023 04:40 21,7 °C 0,8 °C 55 % 88 % 1022,2 hPa 0,0 l/m² 4,1 km/h (1 Bft) W-NW 290 ° 0 min 0 W/m² -1,0 °C 0,8 °C 4,8 km/h (1 Bft)
27.12.2023 04:41 21,7 °C 0,8 °C 55 % 88 % 1022,3 hPa 0,0 l/m² 2,7 km/h (1 Bft) W-NW 290 ° 0 min 0 W/m² -1,0 °C 0,8 °C 4,8 km/h (1 Bft)
27.12.2023 04:42 21,7 °C 0,8 °C 55 % 88 % 1022,3 hPa 0,0 l/m² 2,5 km/h (1 Bft) W-NW 290 ° 0 min 0 W/m² -1,0 °C 0,8 °C 3,2 km/h (1 Bft)
27.12.2023 04:43 21,6 °C 0,8 °C 55 % 88 % 1022,5 hPa 0,0 l/m² 0,5 km/h (0 Bft) W-NW 290 ° 0 min 0 W/m² -1,0 °C 0,8 °C 1,6 km/h (1 Bft)
27.12.2023 04:45 21,6 °C 0,8 °C 55 % 88 % 1022,4 hPa 0,0 l/m² 0,0 km/h (0 Bft) W-NW 290 ° 0 min 0 W/m² -1,0 °C 0,8 °C 0,0 km/h (0 Bft)
27.12.2023 04:47 21,7 °C 0,8 °C 55 % 88 % 1022,5 hPa 0,0 l/m² 0,0 km/h (0 Bft) W-NW 290 ° 0 min 0 W/m² -1,0 °C 0,8 °C 0,0 km/h (0 Bft)
27.12.2023 04:49 21,7 °C 0,8 °C 55 % 88 % 1022,4 hPa 0,0 l/m² 0,0 km/h (0 Bft) W-NW 290 ° 0 min 0 W/m² -1,0 °C 0,8 °C 0,0 km/h (0 Bft)
27.12.2023 04:51 21,6 °C 0,7 °C 55 % 88 % 1022,4 hPa 0,0 l/m² 0,0 km/h (0 Bft) W-NW 290 ° 0 min 0 W/m² -1,1 °C 0,7 °C 0,0 km/h (0 Bft)
27.12.2023 04:52 21,7 °C 0,7 °C 55 % 88 % 1022,4 hPa 0,0 l/m² 0,0 km/h (0 Bft) W-NW 290 ° 0 min 0 W/m² -1,1 °C 0,7 °C 0,0 km/h (0 Bft)
27.12.2023 04:53 21,6 °C 0,7 °C 55 % 88 % 1022,5 hPa 0,0 l/m² 0,0 km/h (0 Bft) W-NW 290 ° 0 min 0 W/m² -1,1 °C 0,7 °C 0,0 km/h (0 Bft)
27.12.2023 04:54 21,6 °C 0,7 °C 55 % 88 % 1022,5 hPa 0,0 l/m² 0,0 km/h (0 Bft) W-NW 290 ° 0 min 0 W/m² -1,1 °C 0,7 °C 0,0 km/h (0 Bft)
27.12.2023 04:56 21,7 °C 0,7 °C 55 % 88 % 1022,4 hPa 0,0 l/m² 0,0 km/h (0 Bft) W-NW 290 ° 0 min 0 W/m² -1,1 °C 0,7 °C 0,0 km/h (0 Bft)
27.12.2023 04:58 21,6 °C 0,6 °C 55 % 88 % 1022,4 hPa 0,0 l/m² 2,6 km/h (1 Bft) W-NW 290 ° 0 min 0 W/m² -1,2 °C 0,6 °C 4,8 km/h (1 Bft)
27.12.2023 05:00 21,6 °C 0,5 °C 55 % 88 % 1022,4 hPa 0,0 l/m² 2,6 km/h (1 Bft) W-NW 290 ° 0 min 0 W/m² -1,3 °C 0,5 °C 3,2 km/h (1 Bft)
27.12.2023 05:01 21,6 °C 0,4 °C 55 % 88 % 1022,5 hPa 0,0 l/m² 2,0 km/h (1 Bft) W-NW 290 ° 0 min 0 W/m² -1,3 °C 0,4 °C 3,2 km/h (1 Bft)
27.12.2023 05:02 21,7 °C 0,4 °C 55 % 88 % 1022,5 hPa 0,0 l/m² 2,1 km/h (1 Bft) W-NW 290 ° 0 min 0 W/m² -1,3 °C 0,4 °C 3,2 km/h (1 Bft)
27.12.2023 05:03 21,6 °C 0,4 °C 55 % 88 % 1022,5 hPa 0,0 l/m² 1,9 km/h (1 Bft) W-NW 290 ° 0 min 0 W/m² -1,3 °C 0,4 °C 3,2 km/h (1 Bft)
27.12.2023 05:05 21,6 °C 0,4 °C 55 % 88 % 1022,5 hPa 0,0 l/m² 0,1 km/h (0 Bft) W-NW 290 ° 0 min 0 W/m² -1,3 °C 0,4 °C 1,6 km/h (1 Bft)
27.12.2023 05:07 21,6 °C 0,4 °C 55 % 88 % 1022,5 hPa 0,0 l/m² 0,0 km/h (0 Bft) W-NW 290 ° 0 min 0 W/m² -1,3 °C 0,4 °C 0,0 km/h (0 Bft)
27.12.2023 05:09 21,6 °C 0,3 °C 55 % 88 % 1022,4 hPa 0,0 l/m² 0,0 km/h (0 Bft) W-NW 290 ° 0 min 0 W/m² -1,4 °C 0,3 °C 0,0 km/h (0 Bft)
27.12.2023 05:11 21,6 °C 0,3 °C 55 % 88 % 1022,5 hPa 0,0 l/m² 0,2 km/h (0 Bft) W-NW 290 ° 0 min 0 W/m² -1,4 °C 0,3 °C 1,6 km/h (1 Bft)
27.12.2023 05:12 21,6 °C 0,3 °C 55 % 88 % 1022,5 hPa 0,0 l/m² 0,0 km/h (0 Bft) W-NW 290 ° 0 min 0 W/m² -1,4 °C 0,3 °C 0,0 km/h (0 Bft)
27.12.2023 05:13 21,6 °C 0,3 °C 55 % 88 % 1022,5 hPa 0,0 l/m² 0,0 km/h (0 Bft) W-NW 290 ° 0 min 0 W/m² -1,4 °C 0,3 °C 0,0 km/h (0 Bft)
27.12.2023 05:14 21,6 °C 0,3 °C 55 % 88 % 1022,5 hPa 0,0 l/m² 0,0 km/h (0 Bft) W-NW 290 ° 0 min 0 W/m² -1,4 °C 0,3 °C 0,0 km/h (0 Bft)
27.12.2023 05:16 21,7 °C 0,2 °C 55 % 88 % 1022,5 hPa 0,0 l/m² 0,0 km/h (0 Bft) W-NW 290 ° 0 min 0 W/m² -1,5 °C 0,2 °C 0,0 km/h (0 Bft)
27.12.2023 05:18 21,6 °C 0,2 °C 55 % 88 % 1022,6 hPa 0,0 l/m² 0,0 km/h (0 Bft) W-NW 290 ° 0 min 0 W/m² -1,5 °C 0,2 °C 0,0 km/h (0 Bft)
27.12.2023 05:20 21,6 °C 0,2 °C 55 % 88 % 1022,7 hPa 0,0 l/m² 0,0 km/h (0 Bft) W-NW 290 ° 0 min 0 W/m² -1,5 °C 0,2 °C 0,0 km/h (0 Bft)
27.12.2023 05:21 21,6 °C 0,2 °C 55 % 88 % 1022,6 hPa 0,0 l/m² 0,0 km/h (0 Bft) W-NW 290 ° 0 min 0 W/m² -1,5 °C 0,2 °C 0,0 km/h (0 Bft)
27.12.2023 05:23 21,6 °C 0,2 °C 55 % 88 % 1022,6 hPa 0,0 l/m² 1,4 km/h (1 Bft) W-NW 290 ° 0 min 0 W/m² -1,5 °C 0,2 °C 3,2 km/h (1 Bft)
27.12.2023 05:25 21,6 °C 0,1 °C 55 % 88 % 1022,6 hPa 0,0 l/m² 0,3 km/h (0 Bft) W-NW 290 ° 0 min 0 W/m² -1,6 °C 0,1 °C 3,2 km/h (1 Bft)
27.12.2023 05:27 21,6 °C 0,1 °C 55 % 88 % 1022,6 hPa 0,0 l/m² 0,0 km/h (0 Bft) W-NW 290 ° 0 min 0 W/m² -1,6 °C 0,1 °C 0,0 km/h (0 Bft)
27.12.2023 05:29 21,6 °C 0,1 °C 55 % 88 % 1022,5 hPa 0,0 l/m² 0,0 km/h (0 Bft) W-NW 290 ° 0 min 0 W/m² -1,6 °C 0,1 °C 0,0 km/h (0 Bft)
27.12.2023 05:31 21,6 °C 0,1 °C 55 % 88 % 1022,5 hPa 0,0 l/m² 0,0 km/h (0 Bft) W-NW 290 ° 0 min 0 W/m² -1,6 °C 0,1 °C 0,0 km/h (0 Bft)
27.12.2023 05:32 21,6 °C 0,0 °C 55 % 89 % 1022,5 hPa 0,0 l/m² 0,2 km/h (0 Bft) W-NW 290 ° 0 min 0 W/m² -1,6 °C 0,0 °C 1,6 km/h (1 Bft)
27.12.2023 05:33 21,6 °C 0,1 °C 55 % 89 % 1022,5 hPa 0,0 l/m² 0,0 km/h (0 Bft) W-NW 290 ° 0 min 0 W/m² -1,5 °C 0,1 °C 0,0 km/h (0 Bft)
27.12.2023 05:34 21,6 °C 0,1 °C 55 % 89 % 1022,5 hPa 0,0 l/m² 0,0 km/h (0 Bft) W-NW 290 ° 0 min 0 W/m² -1,5 °C 0,1 °C 0,0 km/h (0 Bft)
27.12.2023 05:36 21,6 °C 0,0 °C 55 % 89 % 1022,5 hPa 0,0 l/m² 0,0 km/h (0 Bft) W-NW 290 ° 0 min 0 W/m² -1,6 °C 0,0 °C 0,0 km/h (0 Bft)
27.12.2023 05:38 21,6 °C 0,0 °C 55 % 89 % 1022,5 hPa 0,0 l/m² 1,4 km/h (1 Bft) W-NW 290 ° 0 min 0 W/m² -1,6 °C 0,0 °C 3,2 km/h (1 Bft)
27.12.2023 05:40 21,6 °C 0,0 °C 55 % 89 % 1022,5 hPa 0,0 l/m² 1,4 km/h (1 Bft) W-NW 290 ° 0 min 0 W/m² -1,6 °C 0,0 °C 3,2 km/h (1 Bft)
27.12.2023 05:41 21,6 °C -0,1 °C 55 % 89 % 1022,6 hPa 0,0 l/m² 0,0 km/h (0 Bft) W-NW 290 ° 0 min 0 W/m² -1,7 °C -0,1 °C 0,0 km/h (0 Bft)
27.12.2023 05:42 21,6 °C -0,1 °C 55 % 89 % 1022,6 hPa 0,0 l/m² 0,0 km/h (0 Bft) W-NW 290 ° 0 min 0 W/m² -1,7 °C -0,1 °C 0,0 km/h (0 Bft)
27.12.2023 05:43 21,6 °C -0,1 °C 55 % 89 % 1022,6 hPa 0,0 l/m² 0,0 km/h (0 Bft) W-NW 290 ° 0 min 0 W/m² -1,7 °C -0,1 °C 0,0 km/h (0 Bft)
27.12.2023 05:45 21,6 °C -0,1 °C 55 % 89 % 1022,6 hPa 0,0 l/m² 0,0 km/h (0 Bft) W-NW 290 ° 0 min 0 W/m² -1,7 °C -0,1 °C 0,0 km/h (0 Bft)
27.12.2023 05:47 21,6 °C -0,1 °C 55 % 89 % 1022,7 hPa 0,0 l/m² 0,0 km/h (0 Bft) W-NW 290 ° 0 min 0 W/m² -1,7 °C -0,1 °C 0,0 km/h (0 Bft)
27.12.2023 05:49 21,6 °C -0,2 °C 55 % 89 % 1022,8 hPa 0,0 l/m² 0,5 km/h (0 Bft) W-NW 290 ° 0 min 0 W/m² -1,8 °C -0,2 °C 3,2 km/h (1 Bft)
27.12.2023 05:51 21,6 °C -0,2 °C 55 % 89 % 1022,7 hPa 0,0 l/m² 2,2 km/h (1 Bft) W-NW 290 ° 0 min 0 W/m² -1,8 °C -0,2 °C 3,2 km/h (1 Bft)
27.12.2023 05:52 21,6 °C -0,2 °C 55 % 89 % 1022,7 hPa 0,0 l/m² 2,4 km/h (1 Bft) W-NW 290 ° 0 min 0 W/m² -1,8 °C -0,2 °C 3,2 km/h (1 Bft)
27.12.2023 05:53 21,6 °C -0,2 °C 55 % 89 % 1022,7 hPa 0,0 l/m² 2,0 km/h (1 Bft) W-NW 290 ° 0 min 0 W/m² -1,8 °C -0,2 °C 3,2 km/h (1 Bft)
27.12.2023 05:54 21,6 °C -0,2 °C 55 % 89 % 1022,7 hPa 0,0 l/m² 1,7 km/h (1 Bft) W-NW 290 ° 0 min 0 W/m² -1,8 °C -0,2 °C 3,2 km/h (1 Bft)
27.12.2023 05:56 21,6 °C -0,2 °C 55 % 89 % 1022,7 hPa 0,0 l/m² 1,3 km/h (1 Bft) W-NW 290 ° 0 min 0 W/m² -1,8 °C -0,2 °C 3,2 km/h (1 Bft)
27.12.2023 05:58 21,6 °C -0,2 °C 55 % 89 % 1022,7 hPa 0,0 l/m² 0,2 km/h (0 Bft) W-NW 290 ° 0 min 0 W/m² -1,8 °C -0,2 °C 1,6 km/h (1 Bft)
27.12.2023 06:00 21,6 °C -0,2 °C 55 % 89 % 1022,7 hPa 0,0 l/m² 0,0 km/h (0 Bft) W-NW 290 ° 0 min 0 W/m² -1,8 °C -0,2 °C 0,0 km/h (0 Bft)
27.12.2023 06:01 21,6 °C -0,2 °C 55 % 89 % 1022,6 hPa 0,0 l/m² 0,7 km/h (0 Bft) W-NW 290 ° 0 min 0 W/m² -1,8 °C -0,2 °C 3,2 km/h (1 Bft)
27.12.2023 06:02 21,6 °C -0,2 °C 55 % 90 % 1022,6 hPa 0,0 l/m² 1,5 km/h (1 Bft) W-NW 290 ° 0 min 0 W/m² -1,6 °C -0,2 °C 1,6 km/h (1 Bft)
27.12.2023 06:03 21,6 °C -0,2 °C 55 % 90 % 1022,6 hPa 0,0 l/m² 1,5 km/h (1 Bft) W-NW 290 ° 0 min 0 W/m² -1,6 °C -0,2 °C 3,2 km/h (1 Bft)
27.12.2023 06:05 21,6 °C -0,2 °C 55 % 90 % 1022,6 hPa 0,0 l/m² 1,3 km/h (1 Bft) W-NW 290 ° 0 min 0 W/m² -1,6 °C -0,2 °C 3,2 km/h (1 Bft)
27.12.2023 06:07 21,6 °C -0,2 °C 55 % 90 % 1022,7 hPa 0,0 l/m² 1,8 km/h (1 Bft) W-NW 290 ° 0 min 0 W/m² -1,6 °C -0,2 °C 3,2 km/h (1 Bft)
27.12.2023 06:09 21,6 °C -0,2 °C 55 % 90 % 1022,7 hPa 0,0 l/m² 1,7 km/h (1 Bft) W-NW 290 ° 0 min 0 W/m² -1,6 °C -0,2 °C 3,2 km/h (1 Bft)
27.12.2023 06:11 21,7 °C -0,2 °C 55 % 90 % 1022,6 hPa 0,0 l/m² 2,7 km/h (1 Bft) W-NW 290 ° 0 min 0 W/m² -1,6 °C -0,2 °C 4,8 km/h (1 Bft)
27.12.2023 06:12 21,7 °C -0,2 °C 55 % 90 % 1022,7 hPa 0,0 l/m² 3,0 km/h (1 Bft) W-NW 290 ° 0 min 0 W/m² -1,6 °C -0,2 °C 4,8 km/h (1 Bft)
27.12.2023 06:13 21,7 °C -0,2 °C 55 % 90 % 1022,7 hPa 0,0 l/m² 3,6 km/h (1 Bft) W-NW 290 ° 0 min 0 W/m² -1,6 °C -0,2 °C 4,8 km/h (1 Bft)
27.12.2023 06:14 21,6 °C -0,2 °C 55 % 90 % 1022,8 hPa 0,0 l/m² 3,2 km/h (1 Bft) W-NW 290 ° 0 min 0 W/m² -1,6 °C -0,2 °C 4,8 km/h (1 Bft)
27.12.2023 06:16 21,7 °C -0,2 °C 55 % 90 % 1022,6 hPa 0,0 l/m² 2,2 km/h (1 Bft) W-NW 290 ° 0 min 0 W/m² -1,6 °C -0,2 °C 4,8 km/h (1 Bft)
27.12.2023 06:18 21,7 °C -0,2 °C 55 % 90 % 1022,8 hPa 0,0 l/m² 0,4 km/h (0 Bft) W-NW 290 ° 0 min 0 W/m² -1,6 °C -0,2 °C 3,2 km/h (1 Bft)
27.12.2023 06:20 21,6 °C -0,2 °C 55 % 90 % 1022,8 hPa 0,0 l/m² 2,4 km/h (1 Bft) W-NW 290 ° 0 min 0 W/m² -1,6 °C -0,2 °C 3,2 km/h (1 Bft)
27.12.2023 06:21 21,7 °C -0,3 °C 55 % 90 % 1022,7 hPa 0,0 l/m² 2,4 km/h (1 Bft) W-NW 290 ° 0 min 0 W/m² -1,7 °C -0,3 °C 3,2 km/h (1 Bft)
27.12.2023 06:22 21,7 °C -0,3 °C 55 % 90 % 1022,8 hPa 0,0 l/m² 2,3 km/h (1 Bft) W-NW 290 ° 0 min 0 W/m² -1,7 °C -0,3 °C 3,2 km/h (1 Bft)
27.12.2023 06:23 21,7 °C -0,3 °C 55 % 90 % 1022,8 hPa 0,0 l/m² 2,3 km/h (1 Bft) W-NW 290 ° 0 min 0 W/m² -1,7 °C -0,3 °C 3,2 km/h (1 Bft)
27.12.2023 06:25 21,7 °C -0,3 °C 55 % 90 % 1022,8 hPa 0,0 l/m² 1,4 km/h (1 Bft) W-NW 290 ° 0 min 0 W/m² -1,7 °C -0,3 °C 3,2 km/h (1 Bft)
27.12.2023 06:27 21,7 °C -0,3 °C 55 % 90 % 1022,9 hPa 0,0 l/m² 0,0 km/h (0 Bft) W-NW 290 ° 0 min 0 W/m² -1,7 °C -0,3 °C 0,0 km/h (0 Bft)
27.12.2023 06:29 21,7 °C -0,3 °C 55 % 90 % 1022,9 hPa 0,0 l/m² 0,0 km/h (0 Bft) W-NW 290 ° 0 min 0 W/m² -1,7 °C -0,3 °C 0,0 km/h (0 Bft)
27.12.2023 06:31 21,7 °C -0,3 °C 55 % 90 % 1022,9 hPa 0,0 l/m² 0,0 km/h (0 Bft) W-NW 290 ° 0 min 0 W/m² -1,7 °C -0,3 °C 0,0 km/h (0 Bft)
27.12.2023 06:32 21,7 °C -0,3 °C 55 % 90 % 1023,0 hPa 0,0 l/m² 0,1 km/h (0 Bft) W-NW 290 ° 0 min 0 W/m² -1,7 °C -0,3 °C 1,6 km/h (1 Bft)
27.12.2023 06:33 21,7 °C -0,3 °C 55 % 90 % 1023,0 hPa 0,0 l/m² 0,2 km/h (0 Bft) W-NW 290 ° 0 min 0 W/m² -1,7 °C -0,3 °C 1,6 km/h (1 Bft)
27.12.2023 06:34 21,7 °C -0,3 °C 55 % 90 % 1023,0 hPa 0,0 l/m² 0,0 km/h (0 Bft) W-NW 290 ° 0 min 0 W/m² -1,7 °C -0,3 °C 0,0 km/h (0 Bft)
27.12.2023 06:36 21,7 °C -0,3 °C 55 % 90 % 1022,9 hPa 0,0 l/m² 1,0 km/h (0 Bft) W-NW 290 ° 0 min 0 W/m² -1,7 °C -0,3 °C 3,2 km/h (1 Bft)
27.12.2023 06:38 21,7 °C -0,4 °C 55 % 90 % 1022,9 hPa 0,0 l/m² 1,2 km/h (1 Bft) W-NW 290 ° 0 min 0 W/m² -1,8 °C -0,4 °C 3,2 km/h (1 Bft)
27.12.2023 06:40 21,7 °C -0,4 °C 55 % 90 % 1023,0 hPa 0,0 l/m² 0,0 km/h (0 Bft) W-NW 290 ° 0 min 0 W/m² -1,8 °C -0,4 °C 0,0 km/h (0 Bft)
27.12.2023 06:41 21,7 °C -0,4 °C 55 % 90 % 1022,9 hPa 0,0 l/m² 0,0 km/h (0 Bft) W-NW 290 ° 0 min 0 W/m² -1,8 °C -0,4 °C 0,0 km/h (0 Bft)
27.12.2023 06:42 21,7 °C -0,4 °C 55 % 90 % 1023,0 hPa 0,0 l/m² 0,0 km/h (0 Bft) W-NW 290 ° 0 min 0 W/m² -1,8 °C -0,4 °C 0,0 km/h (0 Bft)
27.12.2023 06:43 21,7 °C -0,4 °C 55 % 90 % 1023,0 hPa 0,0 l/m² 0,0 km/h (0 Bft) W-NW 290 ° 0 min 0 W/m² -1,8 °C -0,4 °C 0,0 km/h (0 Bft)
27.12.2023 06:45 21,7 °C -0,4 °C 55 % 90 % 1023,1 hPa 0,0 l/m² 0,0 km/h (0 Bft) W-NW 290 ° 0 min 0 W/m² -1,8 °C -0,4 °C 0,0 km/h (0 Bft)
27.12.2023 06:47 21,7 °C -0,4 °C 55 % 90 % 1023,0 hPa 0,0 l/m² 0,0 km/h (0 Bft) W-NW 290 ° 0 min 0 W/m² -1,8 °C -0,4 °C 0,0 km/h (0 Bft)
27.12.2023 06:48 21,7 °C -0,4 °C 55 % 90 % 1023,0 hPa 0,0 l/m² 0,0 km/h (0 Bft) W-NW 290 ° 0 min 0 W/m² -1,8 °C -0,4 °C 0,0 km/h (0 Bft)
27.12.2023 06:50 21,7 °C -0,5 °C 55 % 90 % 1023,0 hPa 0,0 l/m² 0,0 km/h (0 Bft) W-NW 290 ° 0 min 0 W/m² -1,9 °C -0,5 °C 0,0 km/h (0 Bft)
27.12.2023 06:51 21,7 °C -0,5 °C 55 % 90 % 1023,0 hPa 0,0 l/m² 0,0 km/h (0 Bft) W-NW 290 ° 0 min 0 W/m² -1,9 °C -0,5 °C 0,0 km/h (0 Bft)
27.12.2023 06:52 21,7 °C -0,6 °C 55 % 90 % 1023,1 hPa 0,0 l/m² 0,0 km/h (0 Bft) W-NW 290 ° 0 min 0 W/m² -2,0 °C -0,6 °C 0,0 km/h (0 Bft)
27.12.2023 06:53 21,7 °C -0,6 °C 55 % 90 % 1023,1 hPa 0,0 l/m² 0,0 km/h (0 Bft) W-NW 290 ° 0 min 0 W/m² -2,0 °C -0,6 °C 0,0 km/h (0 Bft)
27.12.2023 06:55 21,7 °C -0,6 °C 55 % 90 % 1023,0 hPa 0,0 l/m² 0,0 km/h (0 Bft) W-NW 290 ° 0 min 0 W/m² -2,0 °C -0,6 °C 0,0 km/h (0 Bft)
27.12.2023 06:57 21,7 °C -0,6 °C 56 % 90 % 1023,0 hPa 0,0 l/m² 0,0 km/h (0 Bft) W-NW 290 ° 0 min 0 W/m² -2,0 °C -0,6 °C 0,0 km/h (0 Bft)
27.12.2023 06:59 21,7 °C -0,7 °C 56 % 91 % 1023,1 hPa 0,0 l/m² 0,0 km/h (0 Bft) W-NW 290 ° 0 min 0 W/m² -2,0 °C -0,7 °C 0,0 km/h (0 Bft)
27.12.2023 07:01 21,7 °C -0,7 °C 56 % 91 % 1023,2 hPa 0,0 l/m² 0,0 km/h (0 Bft) W-NW 290 ° 0 min 0 W/m² -2,0 °C -0,7 °C 0,0 km/h (0 Bft)
27.12.2023 07:02 21,7 °C -0,7 °C 56 % 91 % 1023,1 hPa 0,0 l/m² 0,0 km/h (0 Bft) W-NW 290 ° 0 min 0 W/m² -2,0 °C -0,7 °C 0,0 km/h (0 Bft)
27.12.2023 07:03 21,7 °C -0,7 °C 56 % 91 % 1023,1 hPa 0,0 l/m² 0,0 km/h (0 Bft) W-NW 290 ° 0 min 0 W/m² -2,0 °C -0,7 °C 0,0 km/h (0 Bft)
27.12.2023 07:04 21,7 °C -0,7 °C 56 % 91 % 1023,1 hPa 0,0 l/m² 0,0 km/h (0 Bft) W-NW 290 ° 0 min 0 W/m² -2,0 °C -0,7 °C 0,0 km/h (0 Bft)
27.12.2023 07:06 21,7 °C -0,7 °C 56 % 91 % 1023,1 hPa 0,0 l/m² 0,0 km/h (0 Bft) W-NW 290 ° 0 min 0 W/m² -2,0 °C -0,7 °C 0,0 km/h (0 Bft)
27.12.2023 07:08 21,7 °C -0,7 °C 55 % 91 % 1022,9 hPa 0,0 l/m² 0,0 km/h (0 Bft) W-NW 290 ° 0 min 0 W/m² -2,0 °C -0,7 °C 1,6 km/h (1 Bft)
27.12.2023 07:10 21,7 °C -0,7 °C 55 % 91 % 1023,0 hPa 0,0 l/m² 0,0 km/h (0 Bft) W-NW 290 ° 0 min 0 W/m² -2,0 °C -0,7 °C 0,0 km/h (0 Bft)
27.12.2023 07:11 21,7 °C -0,7 °C 55 % 91 % 1023,1 hPa 0,0 l/m² 0,0 km/h (0 Bft) W-NW 290 ° 0 min 0 W/m² -2,0 °C -0,7 °C 0,0 km/h (0 Bft)
27.12.2023 07:12 21,7 °C -0,7 °C 55 % 91 % 1023,1 hPa 0,0 l/m² 0,0 km/h (0 Bft) W-NW 290 ° 0 min 0 W/m² -2,0 °C -0,7 °C 0,0 km/h (0 Bft)
27.12.2023 07:13 21,7 °C -0,8 °C 55 % 91 % 1023,0 hPa 0,0 l/m² 0,0 km/h (0 Bft) W-NW 290 ° 0 min 0 W/m² -2,1 °C -0,8 °C 0,0 km/h (0 Bft)
27.12.2023 07:15 21,7 °C -0,8 °C 55 % 91 % 1023,0 hPa 0,0 l/m² 0,0 km/h (0 Bft) W-NW 290 ° 0 min 0 W/m² -2,1 °C -0,8 °C 0,0 km/h (0 Bft)
27.12.2023 07:17 21,7 °C -0,8 °C 55 % 91 % 1023,0 hPa 0,0 l/m² 0,0 km/h (0 Bft) W-NW 290 ° 0 min 0 W/m² -2,1 °C -0,8 °C 0,0 km/h (0 Bft)
27.12.2023 07:19 21,7 °C -0,8 °C 55 % 91 % 1023,0 hPa 0,0 l/m² 0,0 km/h (0 Bft) W-NW 290 ° 0 min 0 W/m² -2,1 °C -0,8 °C 0,0 km/h (0 Bft)
27.12.2023 07:21 21,7 °C -0,8 °C 55 % 91 % 1023,0 hPa 0,0 l/m² 0,0 km/h (0 Bft) W-NW 290 ° 0 min 0 W/m² -2,1 °C -0,8 °C 0,0 km/h (0 Bft)
27.12.2023 07:22 21,7 °C -0,8 °C 55 % 91 % 1023,0 hPa 0,0 l/m² 0,0 km/h (0 Bft) W-NW 290 ° 0 min 0 W/m² -2,1 °C -0,8 °C 0,0 km/h (0 Bft)
27.12.2023 07:23 21,7 °C -0,8 °C 55 % 91 % 1023,0 hPa 0,0 l/m² 0,0 km/h (0 Bft) W-NW 290 ° 0 min 0 W/m² -2,1 °C -0,8 °C 0,0 km/h (0 Bft)
27.12.2023 07:24 21,7 °C -0,8 °C 55 % 91 % 1023,1 hPa 0,0 l/m² 0,0 km/h (0 Bft) W-NW 290 ° 0 min 0 W/m² -2,1 °C -0,8 °C 0,0 km/h (0 Bft)
27.12.2023 07:26 21,7 °C -0,8 °C 55 % 91 % 1023,0 hPa 0,0 l/m² 0,0 km/h (0 Bft) W-NW 290 ° 0 min 0 W/m² -2,1 °C -0,8 °C 0,0 km/h (0 Bft)
27.12.2023 07:28 21,7 °C -0,8 °C 55 % 91 % 1023,0 hPa 0,0 l/m² 2,2 km/h (1 Bft) W-NW 290 ° 0 min 0 W/m² -2,1 °C -0,8 °C 3,2 km/h (1 Bft)
27.12.2023 07:30 21,7 °C -0,8 °C 55 % 91 % 1023,0 hPa 0,0 l/m² 0,0 km/h (0 Bft) W-NW 290 ° 0 min 0 W/m² -2,1 °C -0,8 °C 0,0 km/h (0 Bft)
27.12.2023 07:31 21,7 °C -0,8 °C 55 % 91 % 1022,9 hPa 0,0 l/m² 0,0 km/h (0 Bft) W-NW 290 ° 0 min 0 W/m² -2,1 °C -0,8 °C 0,0 km/h (0 Bft)
27.12.2023 07:33 21,7 °C -0,8 °C 55 % 91 % 1022,9 hPa 0,0 l/m² 0,0 km/h (0 Bft) W-NW 290 ° 0 min 0 W/m² -2,1 °C -0,8 °C 0,0 km/h (0 Bft)
27.12.2023 07:35 21,7 °C -0,8 °C 55 % 91 % 1023,0 hPa 0,0 l/m² 0,0 km/h (0 Bft) W-NW 290 ° 0 min 0 W/m² -2,1 °C -0,8 °C 0,0 km/h (0 Bft)
27.12.2023 07:37 21,7 °C -0,8 °C 55 % 91 % 1023,0 hPa 0,0 l/m² 0,0 km/h (0 Bft) W-NW 290 ° 0 min 0 W/m² -2,1 °C -0,8 °C 0,0 km/h (0 Bft)
27.12.2023 07:39 21,7 °C -0,8 °C 55 % 91 % 1023,1 hPa 0,0 l/m² 0,0 km/h (0 Bft) W-NW 290 ° 0 min 0 W/m² -2,1 °C -0,8 °C 0,0 km/h (0 Bft)
27.12.2023 07:41 21,7 °C -0,7 °C 55 % 91 % 1023,1 hPa 0,0 l/m² 0,0 km/h (0 Bft) W-NW 290 ° 0 min 0 W/m² -2,0 °C -0,7 °C 0,0 km/h (0 Bft)
27.12.2023 07:42 21,7 °C -0,7 °C 55 % 91 % 1023,1 hPa 0,0 l/m² 0,0 km/h (0 Bft) W-NW 290 ° 0 min 0 W/m² -2,0 °C -0,7 °C 0,0 km/h (0 Bft)
27.12.2023 07:43 21,7 °C -0,7 °C 55 % 91 % 1023,1 hPa 0,0 l/m² 0,0 km/h (0 Bft) W-NW 290 ° 0 min 0 W/m² -2,0 °C -0,7 °C 0,0 km/h (0 Bft)
27.12.2023 07:44 21,7 °C -0,8 °C 55 % 91 % 1023,1 hPa 0,0 l/m² 0,0 km/h (0 Bft) W-NW 290 ° 0 min 0 W/m² -2,1 °C -0,8 °C 0,0 km/h (0 Bft)
27.12.2023 07:46 21,7 °C -0,7 °C 55 % 91 % 1023,1 hPa 0,0 l/m² 0,0 km/h (0 Bft) W-NW 290 ° 0 min 0 W/m² -2,0 °C -0,7 °C 0,0 km/h (0 Bft)
27.12.2023 07:48 21,7 °C -0,7 °C 55 % 91 % 1023,1 hPa 0,0 l/m² 0,0 km/h (0 Bft) W-NW 290 ° 0 min 0 W/m² -2,0 °C -0,7 °C 0,0 km/h (0 Bft)
27.12.2023 07:50 21,8 °C -0,7 °C 55 % 91 % 1023,1 hPa 0,0 l/m² 0,0 km/h (0 Bft) W-NW 290 ° 0 min 0 W/m² -2,0 °C -0,7 °C 0,0 km/h (0 Bft)
27.12.2023 07:51 21,8 °C -0,7 °C 55 % 91 % 1023,0 hPa 0,0 l/m² 0,0 km/h (0 Bft) W-NW 290 ° 0 min 0 W/m² -2,0 °C -0,7 °C 0,0 km/h (0 Bft)
27.12.2023 07:52 21,8 °C -0,7 °C 55 % 91 % 1023,0 hPa 0,0 l/m² 0,0 km/h (0 Bft) W-NW 290 ° 0 min 0 W/m² -2,0 °C -0,7 °C 0,0 km/h (0 Bft)
27.12.2023 07:53 21,8 °C -0,7 °C 55 % 91 % 1023,1 hPa 0,0 l/m² 0,0 km/h (0 Bft) W-NW 290 ° 0 min 0 W/m² -2,0 °C -0,7 °C 0,0 km/h (0 Bft)
27.12.2023 07:55 21,8 °C -0,7 °C 55 % 91 % 1023,1 hPa 0,0 l/m² 0,0 km/h (0 Bft) W-NW 290 ° 0 min 0 W/m² -2,0 °C -0,7 °C 0,0 km/h (0 Bft)
27.12.2023 07:57 21,8 °C -0,7 °C 55 % 91 % 1023,1 hPa 0,0 l/m² 0,0 km/h (0 Bft) W-NW 290 ° 0 min 0 W/m² -2,0 °C -0,7 °C 0,0 km/h (0 Bft)
27.12.2023 07:59 21,8 °C -0,7 °C 55 % 91 % 1023,1 hPa 0,0 l/m² 0,0 km/h (0 Bft) W-NW 290 ° 0 min 0 W/m² -2,0 °C -0,7 °C 0,0 km/h (0 Bft)
27.12.2023 08:01 21,8 °C -0,7 °C 55 % 91 % 1023,1 hPa 0,0 l/m² 0,0 km/h (0 Bft) W-NW 290 ° 0 min 0 W/m² -2,0 °C -0,7 °C 0,0 km/h (0 Bft)
27.12.2023 08:02 21,8 °C -0,7 °C 55 % 92 % 1023,0 hPa 0,0 l/m² 0,0 km/h (0 Bft) W-NW 290 ° 0 min 0 W/m² -1,8 °C -0,7 °C 0,0 km/h (0 Bft)
27.12.2023 08:03 21,8 °C -0,7 °C 55 % 92 % 1023,1 hPa 0,0 l/m² 0,0 km/h (0 Bft) W-NW 290 ° 0 min 0 W/m² -1,8 °C -0,7 °C 0,0 km/h (0 Bft)
27.12.2023 08:04 21,8 °C -0,7 °C 55 % 92 % 1023,1 hPa 0,0 l/m² 0,0 km/h (0 Bft) W-NW 290 ° 0 min 0 W/m² -1,8 °C -0,7 °C 0,0 km/h (0 Bft)
27.12.2023 08:06 21,8 °C -0,7 °C 55 % 92 % 1023,0 hPa 0,0 l/m² 0,0 km/h (0 Bft) W-NW 290 ° 0 min 0 W/m² -1,8 °C -0,7 °C 0,0 km/h (0 Bft)
27.12.2023 08:08 21,8 °C -0,7 °C 55 % 92 % 1023,1 hPa 0,0 l/m² 2,1 km/h (1 Bft) W-NW 290 ° 0 min 5 W/m² -1,8 °C -0,7 °C 4,8 km/h (1 Bft)
27.12.2023 08:10 21,8 °C -0,7 °C 55 % 92 % 1023,0 hPa 0,0 l/m² 2,6 km/h (1 Bft) W-NW 290 ° 0 min 5 W/m² -1,8 °C -0,7 °C 4,8 km/h (1 Bft)
27.12.2023 08:11 21,8 °C -0,7 °C 55 % 92 % 1023,0 hPa 0,0 l/m² 2,9 km/h (1 Bft) W-NW 290 ° 0 min 5 W/m² -1,8 °C -0,7 °C 4,8 km/h (1 Bft)
27.12.2023 08:12 21,8 °C -0,7 °C 55 % 92 % 1023,0 hPa 0,0 l/m² 2,0 km/h (1 Bft) W-NW 290 ° 0 min 5 W/m² -1,8 °C -0,7 °C 3,2 km/h (1 Bft)
27.12.2023 08:13 21,8 °C -0,7 °C 55 % 92 % 1023,1 hPa 0,0 l/m² 1,3 km/h (1 Bft) W-NW 290 ° 0 min 5 W/m² -1,8 °C -0,7 °C 3,2 km/h (1 Bft)
27.12.2023 08:15 21,8 °C -0,7 °C 55 % 92 % 1023,1 hPa 0,0 l/m² 0,3 km/h (0 Bft) W-NW 290 ° 0 min 7 W/m² -1,8 °C -0,7 °C 1,6 km/h (1 Bft)
27.12.2023 08:17 21,8 °C -0,6 °C 55 % 92 % 1023,2 hPa 0,0 l/m² 0,4 km/h (0 Bft) W-NW 290 ° 0 min 7 W/m² -1,7 °C -0,6 °C 3,2 km/h (1 Bft)
27.12.2023 08:19 21,8 °C -0,6 °C 55 % 92 % 1023,2 hPa 0,0 l/m² 1,5 km/h (1 Bft) W-NW 290 ° 0 min 7 W/m² -1,7 °C -0,6 °C 3,2 km/h (1 Bft)
27.12.2023 08:21 21,8 °C -0,6 °C 55 % 92 % 1023,1 hPa 0,0 l/m² 1,2 km/h (1 Bft) W-NW 290 ° 0 min 9 W/m² -1,7 °C -0,6 °C 3,2 km/h (1 Bft)
27.12.2023 08:22 21,8 °C -0,6 °C 55 % 92 % 1023,2 hPa 0,0 l/m² 2,1 km/h (1 Bft) W-NW 290 ° 0 min 9 W/m² -1,7 °C -0,6 °C 3,2 km/h (1 Bft)
27.12.2023 08:23 21,8 °C -0,6 °C 55 % 92 % 1023,1 hPa 0,0 l/m² 1,9 km/h (1 Bft) W-NW 290 ° 0 min 11 W/m² -1,7 °C -0,6 °C 3,2 km/h (1 Bft)
27.12.2023 08:24 21,8 °C -0,5 °C 55 % 92 % 1023,1 hPa 0,0 l/m² 2,0 km/h (1 Bft) W-NW 290 ° 0 min 11 W/m² -1,6 °C -0,5 °C 3,2 km/h (1 Bft)
27.12.2023 08:26 21,8 °C -0,5 °C 55 % 92 % 1023,3 hPa 0,0 l/m² 1,9 km/h (1 Bft) W-NW 290 ° 0 min 14 W/m² -1,6 °C -0,5 °C 3,2 km/h (1 Bft)
27.12.2023 08:28 21,8 °C -0,5 °C 55 % 92 % 1023,3 hPa 0,0 l/m² 0,1 km/h (0 Bft) W-NW 290 ° 0 min 16 W/m² -1,6 °C -0,5 °C 1,6 km/h (1 Bft)
27.12.2023 08:30 21,8 °C -0,5 °C 55 % 92 % 1023,3 hPa 0,0 l/m² 0,0 km/h (0 Bft) W-NW 290 ° 0 min 16 W/m² -1,6 °C -0,5 °C 0,0 km/h (0 Bft)
27.12.2023 08:31 21,8 °C -0,5 °C 55 % 92 % 1023,2 hPa 0,0 l/m² 0,0 km/h (0 Bft) W-NW 290 ° 0 min 18 W/m² -1,6 °C -0,5 °C 0,0 km/h (0 Bft)
27.12.2023 08:33 21,8 °C -0,5 °C 55 % 92 % 1023,2 hPa 0,0 l/m² 0,0 km/h (0 Bft) W-NW 290 ° 0 min 19 W/m² -1,6 °C -0,5 °C 0,0 km/h (0 Bft)
27.12.2023 08:35 21,8 °C -0,5 °C 55 % 92 % 1023,2 hPa 0,0 l/m² 0,0 km/h (0 Bft) W-NW 290 ° 0 min 21 W/m² -1,6 °C -0,5 °C 0,0 km/h (0 Bft)
27.12.2023 08:37 21,8 °C -0,6 °C 55 % 92 % 1023,2 hPa 0,0 l/m² 0,0 km/h (0 Bft) W-NW 290 ° 0 min 23 W/m² -1,7 °C -0,6 °C 0,0 km/h (0 Bft)
27.12.2023 08:39 21,8 °C -0,5 °C 55 % 92 % 1023,1 hPa 0,0 l/m² 0,0 km/h (0 Bft) W-NW 290 ° 0 min 26 W/m² -1,6 °C -0,5 °C 0,0 km/h (0 Bft)
27.12.2023 08:40 21,8 °C -0,6 °C 55 % 92 % 1023,1 hPa 0,0 l/m² 0,0 km/h (0 Bft) W-NW 290 ° 0 min 26 W/m² -1,7 °C -0,6 °C 0,0 km/h (0 Bft)
27.12.2023 08:42 21,8 °C -0,5 °C 55 % 92 % 1023,2 hPa 0,0 l/m² 0,0 km/h (0 Bft) W-NW 290 ° 0 min 30 W/m² -1,6 °C -0,5 °C 0,0 km/h (0 Bft)
27.12.2023 08:43 21,8 °C -0,5 °C 55 % 92 % 1023,2 hPa 0,0 l/m² 0,0 km/h (0 Bft) W-NW 290 ° 0 min 32 W/m² -1,6 °C -0,5 °C 0,0 km/h (0 Bft)
27.12.2023 08:44 21,8 °C -0,5 °C 55 % 92 % 1023,2 hPa 0,0 l/m² 0,0 km/h (0 Bft) W-NW 290 ° 0 min 33 W/m² -1,6 °C -0,5 °C 0,0 km/h (0 Bft)
27.12.2023 08:46 21,8 °C -0,4 °C 55 % 92 % 1023,2 hPa 0,0 l/m² 0,0 km/h (0 Bft) W-NW 290 ° 0 min 35 W/m² -1,5 °C -0,4 °C 0,0 km/h (0 Bft)
27.12.2023 08:48 21,8 °C -0,3 °C 55 % 92 % 1023,2 hPa 0,0 l/m² 0,0 km/h (0 Bft) W-NW 290 ° 0 min 37 W/m² -1,4 °C -0,3 °C 0,0 km/h (0 Bft)
27.12.2023 08:50 21,8 °C -0,2 °C 55 % 92 % 1023,2 hPa 0,0 l/m² 0,0 km/h (0 Bft) W-NW 290 ° 0 min 40 W/m² -1,3 °C -0,2 °C 0,0 km/h (0 Bft)
27.12.2023 08:51 21,8 °C -0,2 °C 55 % 92 % 1023,2 hPa 0,0 l/m² 0,0 km/h (0 Bft) W-NW 290 ° 0 min 42 W/m² -1,3 °C -0,2 °C 0,0 km/h (0 Bft)
27.12.2023 08:52 21,8 °C -0,2 °C 55 % 92 % 1023,2 hPa 0,0 l/m² 0,0 km/h (0 Bft) W-NW 290 ° 0 min 42 W/m² -1,3 °C -0,2 °C 0,0 km/h (0 Bft)
27.12.2023 08:53 21,8 °C -0,2 °C 55 % 92 % 1023,3 hPa 0,0 l/m² 0,0 km/h (0 Bft) W-NW 290 ° 0 min 44 W/m² -1,3 °C -0,2 °C 0,0 km/h (0 Bft)
27.12.2023 08:55 21,9 °C -0,2 °C 54 % 92 % 1023,3 hPa 0,0 l/m² 0,0 km/h (0 Bft) W-NW 290 ° 0 min 46 W/m² -1,3 °C -0,2 °C 0,0 km/h (0 Bft)
27.12.2023 08:57 22,2 °C -0,1 °C 54 % 92 % 1023,3 hPa 0,0 l/m² 0,0 km/h (0 Bft) W-NW 290 ° 0 min 46 W/m² -1,2 °C -0,1 °C 0,0 km/h (0 Bft)
27.12.2023 08:59 22,3 °C -0,1 °C 54 % 93 % 1023,5 hPa 0,0 l/m² 0,0 km/h (0 Bft) W-NW 290 ° 0 min 44 W/m² -1,1 °C -0,1 °C 0,0 km/h (0 Bft)
27.12.2023 09:00 22,4 °C -0,1 °C 54 % 93 % 1023,5 hPa 0,0 l/m² 0,0 km/h (0 Bft) W-NW 290 ° 0 min 44 W/m² -1,1 °C -0,1 °C 0,0 km/h (0 Bft)
27.12.2023 09:01 22,4 °C 0,0 °C 54 % 93 % 1023,5 hPa 0,0 l/m² 0,0 km/h (0 Bft) W-NW 290 ° 0 min 44 W/m² -1,0 °C 0,0 °C 0,0 km/h (0 Bft)
27.12.2023 09:02 22,4 °C 0,1 °C 53 % 92 % 1023,5 hPa 0,0 l/m² 0,0 km/h (0 Bft) W-NW 290 ° 0 min 44 W/m² -1,0 °C 0,1 °C 0,0 km/h (0 Bft)
27.12.2023 09:04 22,5 °C 0,1 °C 53 % 93 % 1023,5 hPa 0,0 l/m² 0,0 km/h (0 Bft) W-NW 290 ° 0 min 46 W/m² -0,9 °C 0,1 °C 0,0 km/h (0 Bft)
27.12.2023 09:06 22,6 °C 0,2 °C 53 % 93 % 1023,5 hPa 0,0 l/m² 0,0 km/h (0 Bft) W-NW 290 ° 0 min 44 W/m² -0,8 °C 0,2 °C 0,0 km/h (0 Bft)
27.12.2023 09:08 22,6 °C 0,2 °C 53 % 92 % 1023,6 hPa 0,0 l/m² 0,0 km/h (0 Bft) W-NW 290 ° 0 min 44 W/m² -0,9 °C 0,2 °C 0,0 km/h (0 Bft)
27.12.2023 09:10 22,6 °C 0,2 °C 53 % 93 % 1023,5 hPa 0,0 l/m² 0,0 km/h (0 Bft) W-NW 290 ° 0 min 44 W/m² -0,8 °C 0,2 °C 0,0 km/h (0 Bft)
27.12.2023 09:11 22,6 °C 0,2 °C 53 % 92 % 1023,6 hPa 0,0 l/m² 0,0 km/h (0 Bft) W-NW 290 ° 0 min 46 W/m² -0,9 °C 0,2 °C 0,0 km/h (0 Bft)
27.12.2023 09:12 22,6 °C 0,2 °C 53 % 92 % 1023,6 hPa 0,0 l/m² 0,0 km/h (0 Bft) W-NW 290 ° 0 min 47 W/m² -0,9 °C 0,2 °C 0,0 km/h (0 Bft)
27.12.2023 09:13 22,5 °C 0,2 °C 53 % 92 % 1023,5 hPa 0,0 l/m² 0,0 km/h (0 Bft) W-NW 290 ° 1 min 53 W/m² -0,9 °C 0,2 °C 0,0 km/h (0 Bft)
27.12.2023 09:15 22,4 °C 0,2 °C 54 % 92 % 1023,6 hPa 0,0 l/m² 0,0 km/h (0 Bft) W-NW 290 ° 2 min 60 W/m² -0,9 °C 0,2 °C 0,0 km/h (0 Bft)
27.12.2023 09:16 22,4 °C 0,2 °C 54 % 92 % 1023,5 hPa 0,0 l/m² 0,0 km/h (0 Bft) W-NW 290 ° 1 min 63 W/m² -0,9 °C 0,2 °C 0,0 km/h (0 Bft)
27.12.2023 09:17 22,4 °C 0,2 °C 54 % 93 % 1023,5 hPa 0,0 l/m² 0,0 km/h (0 Bft) W-NW 290 ° 1 min 65 W/m² -0,8 °C 0,2 °C 0,0 km/h (0 Bft)
27.12.2023 09:19 22,4 °C 0,3 °C 54 % 93 % 1023,4 hPa 0,0 l/m² 0,0 km/h (0 Bft) W-NW 290 ° 2 min 67 W/m² -0,7 °C 0,3 °C 0,0 km/h (0 Bft)
27.12.2023 09:20 22,4 °C 0,3 °C 54 % 93 % 1023,4 hPa 0,0 l/m² 0,0 km/h (0 Bft) W-NW 290 ° 1 min 69 W/m² -0,7 °C 0,3 °C 0,0 km/h (0 Bft)
27.12.2023 09:22 22,4 °C 0,4 °C 54 % 93 % 1023,4 hPa 0,0 l/m² 0,0 km/h (0 Bft) W-NW 290 ° 2 min 77 W/m² -0,6 °C 0,4 °C 0,0 km/h (0 Bft)
27.12.2023 09:23 22,4 °C 0,5 °C 54 % 93 % 1023,4 hPa 0,0 l/m² 0,0 km/h (0 Bft) W-NW 290 ° 1 min 83 W/m² -0,5 °C 0,5 °C 0,0 km/h (0 Bft)
27.12.2023 09:24 22,4 °C 0,5 °C 54 % 93 % 1023,4 hPa 0,0 l/m² 0,0 km/h (0 Bft) W-NW 290 ° 1 min 91 W/m² -0,5 °C 0,5 °C 0,0 km/h (0 Bft)
27.12.2023 09:26 22,4 °C 0,6 °C 54 % 93 % 1023,4 hPa 0,0 l/m² 0,0 km/h (0 Bft) W-NW 290 ° 2 min 97 W/m² -0,4 °C 0,6 °C 0,0 km/h (0 Bft)
27.12.2023 09:28 22,4 °C 0,7 °C 54 % 93 % 1023,4 hPa 0,0 l/m² 0,0 km/h (0 Bft) W-NW 290 ° 2 min 98 W/m² -0,3 °C 0,7 °C 0,0 km/h (0 Bft)
27.12.2023 09:30 22,4 °C 0,8 °C 54 % 93 % 1023,5 hPa 0,0 l/m² 0,0 km/h (0 Bft) W-NW 290 ° 2 min 102 W/m² -0,2 °C 0,8 °C 0,0 km/h (0 Bft)
27.12.2023 09:31 22,4 °C 0,9 °C 54 % 93 % 1023,5 hPa 0,0 l/m² 0,0 km/h (0 Bft) W-NW 290 ° 1 min 105 W/m² -0,1 °C 0,9 °C 0,0 km/h (0 Bft)
27.12.2023 09:32 22,5 °C 0,9 °C 54 % 93 % 1023,5 hPa 0,0 l/m² 0,0 km/h (0 Bft) W-NW 290 ° 1 min 105 W/m² -0,1 °C 0,9 °C 0,0 km/h (0 Bft)
27.12.2023 09:33 22,5 °C 1,1 °C 54 % 93 % 1023,4 hPa 0,0 l/m² 0,0 km/h (0 Bft) W-NW 290 ° 1 min 104 W/m² 0,1 °C 1,1 °C 0,0 km/h (0 Bft)
27.12.2023 09:35 22,6 °C 1,2 °C 54 % 93 % 1023,4 hPa 0,0 l/m² 0,0 km/h (0 Bft) W-NW 290 ° 2 min 102 W/m² 0,2 °C 1,2 °C 0,0 km/h (0 Bft)
27.12.2023 09:37 22,6 °C 1,2 °C 54 % 92 % 1023,5 hPa 0,0 l/m² 0,0 km/h (0 Bft) W-NW 290 ° 2 min 98 W/m² 0,0 °C 1,2 °C 0,0 km/h (0 Bft)
27.12.2023 09:39 22,6 °C 1,3 °C 54 % 92 % 1023,5 hPa 0,0 l/m² 0,0 km/h (0 Bft) W-NW 290 ° 2 min 91 W/m² 0,1 °C 1,3 °C 0,0 km/h (0 Bft)
27.12.2023 09:40 22,5 °C 1,3 °C 54 % 92 % 1023,5 hPa 0,0 l/m² 0,0 km/h (0 Bft) W-NW 290 ° 1 min 93 W/m² 0,1 °C 1,3 °C 0,0 km/h (0 Bft)
27.12.2023 09:41 22,6 °C 1,3 °C 54 % 92 % 1023,5 hPa 0,0 l/m² 0,0 km/h (0 Bft) W-NW 290 ° 1 min 90 W/m² 0,1 °C 1,3 °C 0,0 km/h (0 Bft)
27.12.2023 09:42 22,5 °C 1,3 °C 54 % 92 % 1023,5 hPa 0,0 l/m² 0,0 km/h (0 Bft) W-NW 290 ° 1 min 84 W/m² 0,1 °C 1,3 °C 0,0 km/h (0 Bft)
27.12.2023 09:44 22,5 °C 1,4 °C 54 % 92 % 1023,4 hPa 0,0 l/m² 0,0 km/h (0 Bft) W-NW 290 ° 2 min 84 W/m² 0,2 °C 1,4 °C 0,0 km/h (0 Bft)
27.12.2023 09:46 22,4 °C 1,4 °C 54 % 92 % 1023,5 hPa 0,0 l/m² 0,0 km/h (0 Bft) W-NW 290 ° 2 min 83 W/m² 0,2 °C 1,4 °C 0,0 km/h (0 Bft)
27.12.2023 09:48 22,4 °C 1,4 °C 54 % 92 % 1023,4 hPa 0,0 l/m² 0,0 km/h (0 Bft) W-NW 290 ° 2 min 81 W/m² 0,2 °C 1,4 °C 0,0 km/h (0 Bft)
27.12.2023 09:50 22,4 °C 1,4 °C 54 % 92 % 1023,4 hPa 0,0 l/m² 0,0 km/h (0 Bft) W-NW 290 ° 2 min 81 W/m² 0,2 °C 1,4 °C 0,0 km/h (0 Bft)
27.12.2023 09:51 22,4 °C 1,4 °C 54 % 92 % 1023,5 hPa 0,0 l/m² 0,0 km/h (0 Bft) W-NW 290 ° 1 min 81 W/m² 0,2 °C 1,4 °C 0,0 km/h (0 Bft)
27.12.2023 09:52 22,4 °C 1,4 °C 54 % 92 % 1023,5 hPa 0,0 l/m² 0,0 km/h (0 Bft) W-NW 290 ° 1 min 81 W/m² 0,2 °C 1,4 °C 0,0 km/h (0 Bft)
27.12.2023 09:53 22,3 °C 1,5 °C 54 % 92 % 1023,4 hPa 0,0 l/m² 0,0 km/h (0 Bft) W-NW 290 ° 1 min 83 W/m² 0,3 °C 1,5 °C 0,0 km/h (0 Bft)
27.12.2023 09:55 22,3 °C 1,6 °C 54 % 92 % 1023,4 hPa 0,0 l/m² 0,0 km/h (0 Bft) W-NW 290 ° 2 min 83 W/m² 0,4 °C 1,6 °C 0,0 km/h (0 Bft)
27.12.2023 09:57 22,3 °C 1,4 °C 54 % 92 % 1023,4 hPa 0,0 l/m² 0,0 km/h (0 Bft) W-NW 290 ° 2 min 84 W/m² 0,2 °C 1,4 °C 0,0 km/h (0 Bft)
27.12.2023 09:59 22,3 °C 1,4 °C 54 % 92 % 1023,4 hPa 0,0 l/m² 0,0 km/h (0 Bft) W-NW 290 ° 2 min 86 W/m² 0,2 °C 1,4 °C 0,0 km/h (0 Bft)
27.12.2023 10:00 22,3 °C 1,4 °C 54 % 92 % 1023,3 hPa 0,0 l/m² 0,9 km/h (0 Bft) W-NW 290 ° 1 min 90 W/m² 0,2 °C 1,4 °C 4,8 km/h (1 Bft)
27.12.2023 10:01 22,3 °C 1,5 °C 54 % 92 % 1023,3 hPa 0,0 l/m² 4,3 km/h (1 Bft) W-NW 290 ° 1 min 93 W/m² 0,3 °C 1,5 °C 6,4 km/h (2 Bft)
27.12.2023 10:02 22,3 °C 1,5 °C 54 % 92 % 1023,3 hPa 0,0 l/m² 3,3 km/h (1 Bft) W-NW 290 ° 1 min 98 W/m² 0,3 °C 1,5 °C 4,8 km/h (1 Bft)
27.12.2023 10:04 22,3 °C 1,6 °C 54 % 92 % 1023,3 hPa 0,0 l/m² 3,9 km/h (1 Bft) W-NW 290 ° 2 min 107 W/m² 0,4 °C 1,6 °C 6,4 km/h (2 Bft)
27.12.2023 10:06 22,3 °C 1,4 °C 54 % 92 % 1023,3 hPa 0,0 l/m² 1,6 km/h (1 Bft) W-NW 290 ° 2 min 107 W/m² 0,2 °C 1,4 °C 4,8 km/h (1 Bft)
27.12.2023 10:08 22,3 °C 1,3 °C 54 % 92 % 1023,3 hPa 0,0 l/m² 2,2 km/h (1 Bft) W-NW 290 ° 2 min 105 W/m² 0,1 °C 1,3 °C 4,8 km/h (1 Bft)
27.12.2023 10:10 22,3 °C 1,3 °C 54 % 92 % 1023,3 hPa 0,0 l/m² 2,5 km/h (1 Bft) W-NW 290 ° 2 min 109 W/m² 0,1 °C 1,3 °C 3,2 km/h (1 Bft)
27.12.2023 10:11 22,3 °C 1,3 °C 53 % 92 % 1023,2 hPa 0,0 l/m² 3,0 km/h (1 Bft) W-NW 290 ° 1 min 111 W/m² 0,1 °C 1,3 °C 4,8 km/h (1 Bft)
27.12.2023 10:12 22,3 °C 1,3 °C 53 % 92 % 1023,2 hPa 0,0 l/m² 3,8 km/h (1 Bft) W-NW 290 ° 1 min 114 W/m² 0,1 °C 1,3 °C 4,8 km/h (1 Bft)
27.12.2023 10:13 22,3 °C 1,3 °C 53 % 92 % 1023,3 hPa 0,0 l/m² 3,7 km/h (1 Bft) W-NW 290 ° 1 min 118 W/m² 0,1 °C 1,3 °C 4,8 km/h (1 Bft)
27.12.2023 10:15 22,3 °C 1,4 °C 53 % 92 % 1023,2 hPa 0,0 l/m² 2,9 km/h (1 Bft) W-NW 290 ° 2 min 121 W/m² 0,2 °C 1,4 °C 4,8 km/h (1 Bft)
27.12.2023 10:16 22,3 °C 1,4 °C 53 % 92 % 1023,2 hPa 0,0 l/m² 2,2 km/h (1 Bft) W-NW 290 ° 1 min 121 W/m² 0,2 °C 1,4 °C 3,2 km/h (1 Bft)
27.12.2023 10:17 22,3 °C 1,6 °C 53 % 92 % 1023,2 hPa 0,0 l/m² 1,1 km/h (1 Bft) W-NW 290 ° 1 min 123 W/m² 0,4 °C 1,6 °C 3,2 km/h (1 Bft)
27.12.2023 10:19 22,3 °C 1,6 °C 54 % 92 % 1023,3 hPa 0,0 l/m² 0,8 km/h (0 Bft) W-NW 290 ° 2 min 125 W/m² 0,4 °C 1,6 °C 3,2 km/h (1 Bft)
27.12.2023 10:20 22,3 °C 1,6 °C 54 % 92 % 1023,3 hPa 0,0 l/m² 0,0 km/h (0 Bft) W-NW 290 ° 1 min 123 W/m² 0,4 °C 1,6 °C 0,0 km/h (0 Bft)
27.12.2023 10:21 22,3 °C 1,6 °C 54 % 92 % 1023,3 hPa 0,0 l/m² 0,4 km/h (0 Bft) W-NW 290 ° 1 min 125 W/m² 0,4 °C 1,6 °C 1,6 km/h (1 Bft)
27.12.2023 10:22 22,3 °C 1,6 °C 54 % 92 % 1023,3 hPa 0,0 l/m² 1,5 km/h (1 Bft) W-NW 290 ° 1 min 127 W/m² 0,4 °C 1,6 °C 3,2 km/h (1 Bft)
27.12.2023 10:24 22,3 °C 1,6 °C 54 % 92 % 1023,4 hPa 0,0 l/m² 1,6 km/h (1 Bft) W-NW 290 ° 2 min 141 W/m² 0,4 °C 1,6 °C 3,2 km/h (1 Bft)
27.12.2023 10:26 22,4 °C 1,7 °C 54 % 92 % 1023,3 hPa 0,0 l/m² 1,1 km/h (1 Bft) W-NW 290 ° 2 min 146 W/m² 0,5 °C 1,7 °C 3,2 km/h (1 Bft)
27.12.2023 10:28 22,4 °C 2,1 °C 54 % 93 % 1023,3 hPa 0,0 l/m² 0,0 km/h (0 Bft) W-NW 290 ° 2 min 144 W/m² 1,1 °C 2,1 °C 1,6 km/h (1 Bft)
27.12.2023 10:30 22,4 °C 2,2 °C 53 % 93 % 1023,3 hPa 0,0 l/m² 0,0 km/h (0 Bft) W-NW 290 ° 2 min 149 W/m² 1,2 °C 2,2 °C 0,0 km/h (0 Bft)
27.12.2023 10:31 22,4 °C 2,3 °C 52 % 93 % 1023,2 hPa 0,0 l/m² 0,5 km/h (0 Bft) W-NW 290 ° 1 min 155 W/m² 1,3 °C 2,3 °C 1,6 km/h (1 Bft)
27.12.2023 10:32 22,4 °C 2,4 °C 52 % 93 % 1023,2 hPa 0,0 l/m² 0,0 km/h (0 Bft) W-NW 290 ° 1 min 156 W/m² 1,4 °C 2,4 °C 0,0 km/h (0 Bft)
27.12.2023 10:33 22,4 °C 2,6 °C 51 % 92 % 1023,2 hPa 0,0 l/m² 0,1 km/h (0 Bft) W-NW 290 ° 1 min 160 W/m² 1,4 °C 2,6 °C 1,6 km/h (1 Bft)
27.12.2023 10:35 22,4 °C 2,7 °C 51 % 92 % 1023,3 hPa 0,0 l/m² 0,8 km/h (0 Bft) W-NW 290 ° 2 min 169 W/m² 1,5 °C 2,7 °C 3,2 km/h (1 Bft)
27.12.2023 10:37 22,4 °C 2,6 °C 51 % 92 % 1023,3 hPa 0,0 l/m² 0,0 km/h (0 Bft) W-NW 290 ° 2 min 171 W/m² 1,4 °C 2,6 °C 0,0 km/h (0 Bft)
27.12.2023 10:39 22,4 °C 2,6 °C 51 % 91 % 1023,3 hPa 0,0 l/m² 0,4 km/h (0 Bft) W-NW 290 ° 2 min 169 W/m² 1,3 °C 2,6 °C 1,6 km/h (1 Bft)
27.12.2023 10:40 22,4 °C 2,6 °C 51 % 92 % 1023,3 hPa 0,0 l/m² 0,0 km/h (0 Bft) W-NW 290 ° 1 min 169 W/m² 1,4 °C 2,6 °C 0,0 km/h (0 Bft)
27.12.2023 10:42 22,4 °C 2,6 °C 52 % 92 % 1023,3 hPa 0,0 l/m² 2,0 km/h (1 Bft) W-NW 290 ° 2 min 174 W/m² 1,4 °C 2,6 °C 3,2 km/h (1 Bft)
27.12.2023 10:43 22,4 °C 2,6 °C 52 % 92 % 1023,2 hPa 0,0 l/m² 1,8 km/h (1 Bft) W-NW 290 ° 1 min 172 W/m² 1,4 °C 2,6 °C 3,2 km/h (1 Bft)
27.12.2023 10:44 22,4 °C 2,6 °C 52 % 92 % 1023,2 hPa 0,0 l/m² 2,1 km/h (1 Bft) W-NW 290 ° 1 min 172 W/m² 1,4 °C 2,6 °C 3,2 km/h (1 Bft)
27.12.2023 10:46 22,5 °C 2,7 °C 52 % 92 % 1023,2 hPa 0,0 l/m² 1,8 km/h (1 Bft) W-NW 290 ° 2 min 179 W/m² 1,5 °C 2,7 °C 3,2 km/h (1 Bft)
27.12.2023 10:48 22,5 °C 2,8 °C 52 % 92 % 1023,1 hPa 0,0 l/m² 2,3 km/h (1 Bft) W-NW 290 ° 2 min 176 W/m² 1,6 °C 2,8 °C 3,2 km/h (1 Bft)
27.12.2023 10:50 22,5 °C 2,9 °C 52 % 92 % 1023,1 hPa 0,0 l/m² 3,6 km/h (1 Bft) W-NW 290 ° 2 min 174 W/m² 1,7 °C 2,9 °C 4,8 km/h (1 Bft)
27.12.2023 10:51 22,5 °C 2,9 °C 52 % 92 % 1023,1 hPa 0,0 l/m² 2,1 km/h (1 Bft) W-NW 290 ° 1 min 169 W/m² 1,7 °C 2,9 °C 3,2 km/h (1 Bft)
27.12.2023 10:52 22,5 °C 2,9 °C 52 % 92 % 1023,1 hPa 0,0 l/m² 3,1 km/h (1 Bft) W-NW 290 ° 1 min 169 W/m² 1,7 °C 2,9 °C 3,2 km/h (1 Bft)
27.12.2023 10:53 22,6 °C 2,9 °C 52 % 92 % 1023,1 hPa 0,0 l/m² 4,1 km/h (1 Bft) W-NW 290 ° 1 min 172 W/m² 1,7 °C 2,9 °C 4,8 km/h (1 Bft)
27.12.2023 10:55 22,6 °C 3,1 °C 52 % 92 % 1023,1 hPa 0,0 l/m² 4,1 km/h (1 Bft) W-NW 290 ° 2 min 174 W/m² 1,9 °C 3,1 °C 4,8 km/h (1 Bft)
27.12.2023 10:57 22,6 °C 3,1 °C 52 % 91 % 1022,9 hPa 0,0 l/m² 4,4 km/h (1 Bft) W-NW 290 ° 2 min 183 W/m² 1,8 °C 3,1 °C 6,4 km/h (2 Bft)
27.12.2023 10:59 22,6 °C 3,2 °C 52 % 91 % 1023,0 hPa 0,0 l/m² 4,1 km/h (1 Bft) W-NW 290 ° 2 min 195 W/m² 1,9 °C 3,2 °C 6,4 km/h (2 Bft)
27.12.2023 11:00 22,6 °C 3,2 °C 52 % 91 % 1023,0 hPa 0,0 l/m² 3,7 km/h (1 Bft) W-NW 290 ° 1 min 197 W/m² 1,9 °C 3,2 °C 4,8 km/h (1 Bft)
27.12.2023 11:01 22,6 °C 3,3 °C 52 % 91 % 1023,0 hPa 0,0 l/m² 3,6 km/h (1 Bft) W-NW 290 ° 1 min 199 W/m² 2,0 °C 3,3 °C 4,8 km/h (1 Bft)
27.12.2023 11:02 22,6 °C 3,3 °C 52 % 90 % 1023,0 hPa 0,0 l/m² 4,3 km/h (1 Bft) W-NW 290 ° 1 min 195 W/m² 1,8 °C 3,3 °C 4,8 km/h (1 Bft)
27.12.2023 11:04 22,6 °C 3,3 °C 52 % 90 % 1022,9 hPa 0,0 l/m² 4,2 km/h (1 Bft) W-NW 290 ° 2 min 206 W/m² 1,8 °C 3,3 °C 4,8 km/h (1 Bft)
27.12.2023 11:06 22,6 °C 3,4 °C 52 % 91 % 1022,9 hPa 0,0 l/m² 3,5 km/h (1 Bft) W-NW 290 ° 2 min 204 W/m² 2,1 °C 3,4 °C 4,8 km/h (1 Bft)
27.12.2023 11:08 22,6 °C 3,4 °C 52 % 91 % 1022,9 hPa 0,0 l/m² 4,1 km/h (1 Bft) W-NW 290 ° 2 min 200 W/m² 2,1 °C 3,4 °C 6,4 km/h (2 Bft)
27.12.2023 11:10 22,6 °C 3,4 °C 52 % 90 % 1022,9 hPa 0,0 l/m² 5,2 km/h (1 Bft) W-NW 291 ° 2 min 193 W/m² 1,9 °C 3,4 °C 6,4 km/h (2 Bft)
27.12.2023 11:11 22,6 °C 3,4 °C 52 % 90 % 1022,8 hPa 0,0 l/m² 4,2 km/h (1 Bft) W-NW 291 ° 1 min 190 W/m² 1,9 °C 3,4 °C 6,4 km/h (2 Bft)
27.12.2023 11:12 22,6 °C 3,5 °C 52 % 90 % 1022,8 hPa 0,0 l/m² 3,9 km/h (1 Bft) O 79 ° 1 min 195 W/m² 2,0 °C 3,5 °C 6,4 km/h (2 Bft)
27.12.2023 11:13 22,7 °C 3,6 °C 52 % 90 % 1022,8 hPa 0,0 l/m² 5,0 km/h (1 Bft) O 80 ° 1 min 195 W/m² 2,1 °C 3,6 °C 6,4 km/h (2 Bft)
27.12.2023 11:15 22,7 °C 3,6 °C 52 % 90 % 1022,8 hPa 0,0 l/m² 4,9 km/h (1 Bft) O 80 ° 2 min 193 W/m² 2,1 °C 3,6 °C 6,4 km/h (2 Bft)
27.12.2023 11:17 22,7 °C 3,7 °C 52 % 90 % 1022,8 hPa 0,0 l/m² 4,5 km/h (1 Bft) O 80 ° 2 min 193 W/m² 2,2 °C 3,7 °C 6,4 km/h (2 Bft)
27.12.2023 11:19 22,7 °C 3,7 °C 52 % 89 % 1022,7 hPa 0,0 l/m² 3,2 km/h (1 Bft) O 80 ° 2 min 195 W/m² 2,1 °C 3,7 °C 6,4 km/h (2 Bft)
27.12.2023 11:20 22,7 °C 3,7 °C 52 % 89 % 1022,8 hPa 0,0 l/m² 2,1 km/h (1 Bft) O 80 ° 1 min 197 W/m² 2,1 °C 3,7 °C 3,2 km/h (1 Bft)
27.12.2023 11:21 22,7 °C 3,7 °C 52 % 89 % 1022,8 hPa 0,0 l/m² 1,1 km/h (1 Bft) O 80 ° 1 min 199 W/m² 2,1 °C 3,7 °C 3,2 km/h (1 Bft)
27.12.2023 11:22 22,7 °C 3,8 °C 52 % 90 % 1022,7 hPa 0,0 l/m² 3,3 km/h (1 Bft) O 80 ° 1 min 206 W/m² 2,3 °C 3,8 °C 4,8 km/h (1 Bft)
27.12.2023 11:24 22,7 °C 3,9 °C 52 % 89 % 1022,6 hPa 0,0 l/m² 1,8 km/h (1 Bft) O 80 ° 2 min 204 W/m² 2,3 °C 3,9 °C 4,8 km/h (1 Bft)
27.12.2023 11:26 22,7 °C 3,9 °C 52 % 89 % 1022,6 hPa 0,0 l/m² 2,5 km/h (1 Bft) O 80 ° 2 min 197 W/m² 2,3 °C 3,9 °C 6,4 km/h (2 Bft)
27.12.2023 11:28 22,6 °C 4,0 °C 52 % 89 % 1022,6 hPa 0,0 l/m² 3,2 km/h (1 Bft) O 80 ° 2 min 192 W/m² 2,4 °C 4,0 °C 4,8 km/h (1 Bft)
27.12.2023 11:30 22,7 °C 4,0 °C 52 % 89 % 1022,4 hPa 0,0 l/m² 4,0 km/h (1 Bft) O 80 ° 2 min 200 W/m² 2,4 °C 4,0 °C 6,4 km/h (2 Bft)
27.12.2023 11:31 22,7 °C 4,2 °C 52 % 89 % 1022,4 hPa 0,0 l/m² 4,1 km/h (1 Bft) O-NO 75 ° 1 min 209 W/m² 2,6 °C 4,2 °C 6,4 km/h (2 Bft)
27.12.2023 11:32 22,7 °C 4,3 °C 52 % 90 % 1022,4 hPa 0,0 l/m² 4,4 km/h (1 Bft) O-NO 63 ° 1 min 211 W/m² 2,8 °C 4,3 °C 6,4 km/h (2 Bft)
27.12.2023 11:33 22,7 °C 4,5 °C 52 % 89 % 1022,4 hPa 0,0 l/m² 1,1 km/h (1 Bft) O-NO 63 ° 1 min 213 W/m² 2,8 °C 4,5 °C 3,2 km/h (1 Bft)
27.12.2023 11:35 22,7 °C 4,8 °C 52 % 89 % 1022,4 hPa 0,0 l/m² 4,5 km/h (1 Bft) O-NO 71 ° 2 min 218 W/m² 3,1 °C 4,8 °C 6,4 km/h (2 Bft)
27.12.2023 11:37 22,7 °C 4,8 °C 52 % 88 % 1022,3 hPa 0,0 l/m² 5,7 km/h (2 Bft) O-NO 76 ° 2 min 221 W/m² 3,0 °C 4,8 °C 8,0 km/h (2 Bft)
27.12.2023 11:39 22,7 °C 4,8 °C 52 % 88 % 1022,3 hPa 0,0 l/m² 5,3 km/h (1 Bft) O-NO 68 ° 2 min 209 W/m² 3,0 °C 4,8 °C 8,0 km/h (2 Bft)
27.12.2023 11:40 22,7 °C 4,8 °C 52 % 88 % 1022,2 hPa 0,0 l/m² 6,0 km/h (2 Bft) O-NO 69 ° 1 min 207 W/m² 3,0 °C 4,8 °C 8,0 km/h (2 Bft)
27.12.2023 11:41 22,7 °C 4,9 °C 52 % 88 % 1022,2 hPa 0,0 l/m² 7,5 km/h (2 Bft) O-NO 78 ° 1 min 213 W/m² 3,1 °C 3,9 °C 8,0 km/h (2 Bft)
27.12.2023 11:42 22,7 °C 4,9 °C 52 % 88 % 1022,1 hPa 0,0 l/m² 6,8 km/h (2 Bft) O-NO 76 ° 1 min 218 W/m² 3,1 °C 4,6 °C 8,0 km/h (2 Bft)
27.12.2023 11:44 22,7 °C 5,0 °C 52 % 88 % 1022,2 hPa 0,0 l/m² 6,7 km/h (2 Bft) O-NO 73 ° 2 min 216 W/m² 3,2 °C 4,8 °C 8,0 km/h (2 Bft)
27.12.2023 11:46 22,7 °C 5,1 °C 52 % 88 % 1022,1 hPa 0,0 l/m² 7,6 km/h (2 Bft) O-NO 73 ° 2 min 214 W/m² 3,3 °C 4,0 °C 11,3 km/h (2 Bft)
27.12.2023 11:48 22,7 °C 5,2 °C 52 % 88 % 1022,1 hPa 0,0 l/m² 7,5 km/h (2 Bft) O-NO 73 ° 2 min 202 W/m² 3,4 °C 4,2 °C 11,3 km/h (2 Bft)
27.12.2023 11:50 22,7 °C 5,3 °C 52 % 88 % 1022,0 hPa 0,0 l/m² 7,0 km/h (2 Bft) O-NO 74 ° 2 min 199 W/m² 3,5 °C 4,8 °C 8,0 km/h (2 Bft)
27.12.2023 11:51 22,7 °C 5,4 °C 52 % 88 % 1022,0 hPa 0,0 l/m² 5,9 km/h (2 Bft) O-NO 74 ° 1 min 190 W/m² 3,6 °C 5,4 °C 11,3 km/h (2 Bft)
27.12.2023 11:52 22,7 °C 5,4 °C 52 % 88 % 1022,0 hPa 0,0 l/m² 6,0 km/h (2 Bft) O-NO 74 ° 1 min 192 W/m² 3,6 °C 5,4 °C 8,0 km/h (2 Bft)
27.12.2023 11:53 22,7 °C 5,4 °C 52 % 88 % 1022,1 hPa 0,0 l/m² 5,7 km/h (2 Bft) O-NO 74 ° 1 min 192 W/m² 3,6 °C 5,4 °C 8,0 km/h (2 Bft)
27.12.2023 11:55 22,7 °C 5,6 °C 52 % 88 % 1022,0 hPa 0,0 l/m² 5,1 km/h (1 Bft) O-NO 74 ° 2 min 190 W/m² 3,8 °C 5,6 °C 6,4 km/h (2 Bft)
27.12.2023 11:57 22,7 °C 5,7 °C 52 % 88 % 1021,9 hPa 0,0 l/m² 5,4 km/h (2 Bft) O-NO 74 ° 2 min 183 W/m² 3,9 °C 5,7 °C 8,0 km/h (2 Bft)
27.12.2023 11:59 22,6 °C 5,7 °C 53 % 87 % 1021,9 hPa 0,0 l/m² 5,4 km/h (2 Bft) O-NO 74 ° 2 min 185 W/m² 3,7 °C 5,7 °C 6,4 km/h (2 Bft)
27.12.2023 12:00 22,7 °C 5,7 °C 53 % 87 % 1021,9 hPa 0,0 l/m² 4,8 km/h (1 Bft) O-NO 74 ° 1 min 183 W/m² 3,7 °C 5,7 °C 6,4 km/h (2 Bft)
27.12.2023 12:01 22,7 °C 5,8 °C 53 % 87 % 1021,9 hPa 0,0 l/m² 5,7 km/h (2 Bft) O-NO 74 ° 1 min 178 W/m² 3,8 °C 5,8 °C 8,0 km/h (2 Bft)
27.12.2023 12:02 22,7 °C 5,8 °C 53 % 87 % 1021,8 hPa 0,0 l/m² 5,4 km/h (2 Bft) O-NO 74 ° 1 min 171 W/m² 3,8 °C 5,8 °C 6,4 km/h (2 Bft)
27.12.2023 12:04 22,7 °C 5,8 °C 53 % 87 % 1021,8 hPa 0,0 l/m² 3,9 km/h (1 Bft) O-NO 74 ° 2 min 160 W/m² 3,8 °C 5,8 °C 6,4 km/h (2 Bft)
27.12.2023 12:06 22,7 °C 5,7 °C 53 % 86 % 1021,8 hPa 0,0 l/m² 4,1 km/h (1 Bft) O-NO 74 ° 2 min 153 W/m² 3,5 °C 5,7 °C 4,8 km/h (1 Bft)
27.12.2023 12:08 22,6 °C 5,9 °C 53 % 87 % 1021,8 hPa 0,0 l/m² 4,6 km/h (1 Bft) O-NO 74 ° 2 min 146 W/m² 3,9 °C 5,9 °C 6,4 km/h (2 Bft)
27.12.2023 12:10 22,6 °C 6,0 °C 53 % 87 % 1021,7 hPa 0,0 l/m² 5,0 km/h (1 Bft) O-NO 74 ° 2 min 141 W/m² 4,0 °C 6,0 °C 6,4 km/h (2 Bft)
27.12.2023 12:11 22,6 °C 6,1 °C 53 % 86 % 1021,7 hPa 0,0 l/m² 7,4 km/h (2 Bft) O-NO 78 ° 1 min 141 W/m² 3,9 °C 5,3 °C 8,0 km/h (2 Bft)
27.12.2023 12:12 22,6 °C 6,1 °C 53 % 86 % 1021,7 hPa 0,0 l/m² 6,0 km/h (2 Bft) O-NO 78 ° 1 min 139 W/m² 3,9 °C 6,1 °C 8,0 km/h (2 Bft)
27.12.2023 12:13 22,6 °C 6,1 °C 53 % 86 % 1021,6 hPa 0,0 l/m² 5,0 km/h (1 Bft) O 82 ° 1 min 141 W/m² 3,9 °C 6,1 °C 8,0 km/h (2 Bft)
27.12.2023 12:15 22,6 °C 6,2 °C 53 % 86 % 1021,6 hPa 0,0 l/m² 5,4 km/h (2 Bft) O 83 ° 2 min 139 W/m² 4,0 °C 6,2 °C 12,9 km/h (3 Bft)
27.12.2023 12:17 22,6 °C 6,2 °C 53 % 86 % 1021,6 hPa 0,0 l/m² 7,7 km/h (2 Bft) O-SO 104 ° 2 min 142 W/m² 4,0 °C 5,1 °C 12,9 km/h (3 Bft)
27.12.2023 12:19 22,6 °C 6,3 °C 53 % 85 % 1021,5 hPa 0,0 l/m² 7,7 km/h (2 Bft) O-SO 103 ° 2 min 144 W/m² 4,0 °C 5,2 °C 9,7 km/h (2 Bft)
27.12.2023 12:21 22,6 °C 6,3 °C 53 % 85 % 1021,5 hPa 0,0 l/m² 8,6 km/h (2 Bft) O-SO 114 ° 2 min 137 W/m² 4,0 °C 4,5 °C 12,9 km/h (3 Bft)
27.12.2023 12:22 22,6 °C 6,3 °C 53 % 85 % 1021,5 hPa 0,0 l/m² 8,4 km/h (2 Bft) O-SO 111 ° 1 min 137 W/m² 4,0 °C 4,7 °C 12,9 km/h (3 Bft)
27.12.2023 12:23 22,6 °C 6,3 °C 53 % 84 % 1021,6 hPa 0,0 l/m² 11,5 km/h (2 Bft) O-SO 103 ° 1 min 134 W/m² 3,8 °C 2,6 °C 14,5 km/h (3 Bft)
27.12.2023 12:24 22,6 °C 6,4 °C 53 % 84 % 1021,5 hPa 0,0 l/m² 6,7 km/h (2 Bft) O-SO 116 ° 1 min 134 W/m² 3,9 °C 6,2 °C 9,7 km/h (2 Bft)
27.12.2023 12:25 22,6 °C 6,4 °C 53 % 84 % 1021,5 hPa 0,0 l/m² 7,2 km/h (2 Bft) O 100 ° 1 min 132 W/m² 3,9 °C 5,7 °C 9,7 km/h (2 Bft)
27.12.2023 12:26 22,6 °C 6,4 °C 53 % 84 % 1021,5 hPa 0,0 l/m² 6,3 km/h (2 Bft) O 101 ° 1 min 130 W/m² 3,9 °C 6,4 °C 6,4 km/h (2 Bft)
27.12.2023 12:27 22,6 °C 6,4 °C 53 % 84 % 1021,5 hPa 0,0 l/m² 8,6 km/h (2 Bft) O 100 ° 1 min 130 W/m² 3,9 °C 4,6 °C 11,3 km/h (2 Bft)
27.12.2023 12:28 22,6 °C 6,4 °C 53 % 84 % 1021,5 hPa 0,0 l/m² 7,7 km/h (2 Bft) O 90 ° 1 min 130 W/m² 3,9 °C 5,3 °C 11,3 km/h (2 Bft)
27.12.2023 12:29 22,6 °C 6,4 °C 53 % 84 % 1021,5 hPa 0,0 l/m² 9,3 km/h (2 Bft) O-SO 105 ° 1 min 130 W/m² 3,9 °C 4,1 °C 11,3 km/h (2 Bft)
27.12.2023 12:31 22,6 °C 6,4 °C 53 % 84 % 1021,5 hPa 0,0 l/m² 9,0 km/h (2 Bft) O-SO 108 ° 2 min 134 W/m² 3,9 °C 4,3 °C 11,3 km/h (2 Bft)
27.12.2023 12:33 22,6 °C 6,5 °C 53 % 84 % 1021,5 hPa 0,0 l/m² 9,5 km/h (2 Bft) O-SO 119 ° 2 min 135 W/m² 4,0 °C 4,1 °C 11,3 km/h (2 Bft)
27.12.2023 12:34 22,5 °C 6,5 °C 53 % 83 % 1021,5 hPa 0,0 l/m² 7,2 km/h (2 Bft) O-SO 110 ° 1 min 137 W/m² 3,8 °C 5,8 °C 9,7 km/h (2 Bft)
27.12.2023 12:35 22,5 °C 6,4 °C 53 % 83 % 1021,4 hPa 0,0 l/m² 8,6 km/h (2 Bft) O-SO 109 ° 1 min 137 W/m² 3,7 °C 4,6 °C 11,3 km/h (2 Bft)
27.12.2023 12:36 22,5 °C 6,5 °C 53 % 83 % 1021,3 hPa 0,0 l/m² 6,3 km/h (2 Bft) O-SO 112 ° 1 min 135 W/m² 3,8 °C 6,5 °C 9,7 km/h (2 Bft)
27.12.2023 12:37 22,5 °C 6,6 °C 53 % 83 % 1021,3 hPa 0,0 l/m² 5,9 km/h (2 Bft) O 101 ° 1 min 135 W/m² 3,9 °C 6,6 °C 9,7 km/h (2 Bft)
27.12.2023 12:38 22,5 °C 6,6 °C 53 % 84 % 1021,3 hPa 0,0 l/m² 11,4 km/h (2 Bft) O 93 ° 1 min 134 W/m² 4,1 °C 3,0 °C 14,5 km/h (3 Bft)
27.12.2023 12:39 22,5 °C 6,6 °C 53 % 83 % 1021,3 hPa 0,0 l/m² 12,2 km/h (2 Bft) O-SO 108 ° 1 min 134 W/m² 3,9 °C 2,5 °C 14,5 km/h (3 Bft)
27.12.2023 12:41 22,5 °C 6,6 °C 53 % 83 % 1021,3 hPa 0,0 l/m² 12,1 km/h (2 Bft) O-SO 107 ° 2 min 132 W/m² 3,9 °C 2,5 °C 14,5 km/h (3 Bft)
27.12.2023 12:43 22,4 °C 6,6 °C 53 % 83 % 1021,3 hPa 0,0 l/m² 8,8 km/h (2 Bft) O-SO 107 ° 2 min 130 W/m² 3,9 °C 4,7 °C 14,5 km/h (3 Bft)
27.12.2023 12:46 22,4 °C 6,6 °C 53 % 83 % 1021,1 hPa 0,0 l/m² 10,0 km/h (2 Bft) O 100 ° 3 min 127 W/m² 3,9 °C 3,8 °C 14,5 km/h (3 Bft)
27.12.2023 12:47 22,4 °C 6,6 °C 53 % 83 % 1021,1 hPa 0,0 l/m² 7,7 km/h (2 Bft) O 99 ° 1 min 125 W/m² 3,9 °C 5,5 °C 9,7 km/h (2 Bft)
27.12.2023 12:48 22,4 °C 6,6 °C 53 % 83 % 1021,1 hPa 0,0 l/m² 6,4 km/h (2 Bft) O 101 ° 1 min 123 W/m² 3,9 °C 6,6 °C 9,7 km/h (2 Bft)
27.12.2023 12:49 22,4 °C 6,6 °C 53 % 83 % 1021,1 hPa 0,0 l/m² 6,7 km/h (2 Bft) O 101 ° 1 min 121 W/m² 3,9 °C 6,4 °C 9,7 km/h (2 Bft)
27.12.2023 12:51 22,4 °C 6,6 °C 53 % 83 % 1021,1 hPa 0,0 l/m² 9,3 km/h (2 Bft) O 96 ° 2 min 118 W/m² 3,9 °C 4,3 °C 12,9 km/h (3 Bft)
27.12.2023 12:53 22,4 °C 6,6 °C 53 % 84 % 1021,0 hPa 0,0 l/m² 4,8 km/h (1 Bft) O 96 ° 2 min 114 W/m² 4,1 °C 6,6 °C 9,7 km/h (2 Bft)
27.12.2023 12:54 22,4 °C 6,6 °C 53 % 84 % 1021,0 hPa 0,0 l/m² 7,0 km/h (2 Bft) O 98 ° 1 min 113 W/m² 4,1 °C 6,1 °C 9,7 km/h (2 Bft)
27.12.2023 12:55 22,4 °C 6,6 °C 53 % 84 % 1021,0 hPa 0,0 l/m² 4,2 km/h (1 Bft) O 98 ° 1 min 111 W/m² 4,1 °C 6,6 °C 6,4 km/h (2 Bft)
27.12.2023 12:56 22,4 °C 6,6 °C 53 % 83 % 1021,0 hPa 0,0 l/m² 5,5 km/h (2 Bft) O 98 ° 1 min 109 W/m² 3,9 °C 6,6 °C 9,7 km/h (2 Bft)
27.12.2023 12:57 22,4 °C 6,6 °C 53 % 83 % 1021,0 hPa 0,0 l/m² 5,6 km/h (2 Bft) O 98 ° 1 min 107 W/m² 3,9 °C 6,6 °C 6,4 km/h (2 Bft)
27.12.2023 12:58 22,4 °C 6,6 °C 53 % 83 % 1020,9 hPa 0,0 l/m² 4,4 km/h (1 Bft) O 98 ° 1 min 107 W/m² 3,9 °C 6,6 °C 4,8 km/h (1 Bft)
27.12.2023 12:59 22,4 °C 6,6 °C 53 % 84 % 1020,9 hPa 0,0 l/m² 5,0 km/h (1 Bft) O 99 ° 1 min 107 W/m² 4,1 °C 6,6 °C 9,7 km/h (2 Bft)
27.12.2023 13:01 22,4 °C 6,6 °C 53 % 83 % 1020,9 hPa 0,0 l/m² 6,1 km/h (2 Bft) O-SO 110 ° 2 min 105 W/m² 3,9 °C 6,6 °C 11,3 km/h (2 Bft)
27.12.2023 13:03 22,4 °C 6,7 °C 53 % 83 % 1020,9 hPa 0,0 l/m² 4,5 km/h (1 Bft) O-SO 110 ° 2 min 104 W/m² 4,0 °C 6,7 °C 6,4 km/h (2 Bft)
27.12.2023 13:04 22,4 °C 6,7 °C 53 % 83 % 1020,9 hPa 0,0 l/m² 5,8 km/h (2 Bft) O-SO 110 ° 1 min 104 W/m² 4,0 °C 6,7 °C 9,7 km/h (2 Bft)
27.12.2023 13:05 22,4 °C 6,7 °C 53 % 84 % 1020,9 hPa 0,0 l/m² 3,6 km/h (1 Bft) O-SO 110 ° 1 min 104 W/m² 4,2 °C 6,7 °C 6,4 km/h (2 Bft)
27.12.2023 13:06 22,4 °C 6,7 °C 53 % 84 % 1020,8 hPa 0,0 l/m² 6,8 km/h (2 Bft) O-SO 109 ° 1 min 104 W/m² 4,2 °C 6,4 °C 9,7 km/h (2 Bft)
27.12.2023 13:07 22,4 °C 6,7 °C 53 % 83 % 1020,7 hPa 0,0 l/m² 5,8 km/h (2 Bft) O-SO 109 ° 1 min 105 W/m² 4,0 °C 6,7 °C 9,7 km/h (2 Bft)
27.12.2023 13:08 22,3 °C 6,7 °C 53 % 83 % 1020,8 hPa 0,0 l/m² 3,4 km/h (1 Bft) O-SO 109 ° 1 min 105 W/m² 4,0 °C 6,7 °C 4,8 km/h (1 Bft)
27.12.2023 13:09 22,3 °C 6,7 °C 53 % 83 % 1020,8 hPa 0,0 l/m² 4,6 km/h (1 Bft) O-SO 109 ° 1 min 105 W/m² 4,0 °C 6,7 °C 6,4 km/h (2 Bft)
27.12.2023 13:11 22,3 °C 6,7 °C 53 % 84 % 1020,6 hPa 0,0 l/m² 3,4 km/h (1 Bft) O-SO 109 ° 2 min 105 W/m² 4,2 °C 6,7 °C 4,8 km/h (1 Bft)
27.12.2023 13:12 22,3 °C 6,7 °C 53 % 84 % 1020,7 hPa 0,0 l/m² 4,0 km/h (1 Bft) O-SO 109 ° 1 min 105 W/m² 4,2 °C 6,7 °C 4,8 km/h (1 Bft)
27.12.2023 13:13 22,3 °C 6,7 °C 53 % 84 % 1020,7 hPa 0,0 l/m² 5,1 km/h (1 Bft) O-SO 109 ° 1 min 105 W/m² 4,2 °C 6,7 °C 9,7 km/h (2 Bft)
27.12.2023 13:14 22,3 °C 6,7 °C 53 % 84 % 1020,7 hPa 0,0 l/m² 4,7 km/h (1 Bft) O-SO 109 ° 1 min 105 W/m² 4,2 °C 6,7 °C 6,4 km/h (2 Bft)
27.12.2023 13:15 22,3 °C 6,7 °C 53 % 84 % 1020,6 hPa 0,0 l/m² 5,9 km/h (2 Bft) O-SO 109 ° 1 min 105 W/m² 4,2 °C 6,7 °C 9,7 km/h (2 Bft)
27.12.2023 13:16 22,3 °C 6,7 °C 53 % 84 % 1020,6 hPa 0,0 l/m² 5,1 km/h (1 Bft) O-SO 109 ° 1 min 105 W/m² 4,2 °C 6,7 °C 6,4 km/h (2 Bft)
27.12.2023 13:17 22,3 °C 6,7 °C 53 % 84 % 1020,5 hPa 0,0 l/m² 7,2 km/h (2 Bft) O-SO 109 ° 1 min 105 W/m² 4,2 °C 6,0 °C 11,3 km/h (2 Bft)
27.12.2023 13:18 22,3 °C 6,7 °C 53 % 84 % 1020,5 hPa 0,0 l/m² 7,4 km/h (2 Bft) O-SO 109 ° 1 min 105 W/m² 4,2 °C 5,9 °C 11,3 km/h (2 Bft)
27.12.2023 13:19 22,3 °C 6,7 °C 53 % 83 % 1020,5 hPa 0,0 l/m² 4,8 km/h (1 Bft) O-SO 109 ° 1 min 104 W/m² 4,0 °C 6,7 °C 6,4 km/h (2 Bft)
27.12.2023 13:21 22,3 °C 6,7 °C 53 % 84 % 1020,5 hPa 0,0 l/m² 5,0 km/h (1 Bft) O-SO 109 ° 2 min 100 W/m² 4,2 °C 6,7 °C 9,7 km/h (2 Bft)
27.12.2023 13:23 22,3 °C 6,7 °C 53 % 84 % 1020,4 hPa 0,0 l/m² 6,0 km/h (2 Bft) O-SO 109 ° 2 min 98 W/m² 4,2 °C 6,7 °C 9,7 km/h (2 Bft)
27.12.2023 13:24 22,3 °C 6,7 °C 53 % 84 % 1020,4 hPa 0,0 l/m² 7,5 km/h (2 Bft) O-SO 109 ° 1 min 97 W/m² 4,2 °C 5,8 °C 9,7 km/h (2 Bft)
27.12.2023 13:25 22,3 °C 6,7 °C 53 % 84 % 1020,5 hPa 0,0 l/m² 7,5 km/h (2 Bft) O-SO 109 ° 1 min 95 W/m² 4,2 °C 5,8 °C 11,3 km/h (2 Bft)
27.12.2023 13:26 22,3 °C 6,7 °C 53 % 84 % 1020,5 hPa 0,0 l/m² 4,9 km/h (1 Bft) O-SO 109 ° 1 min 93 W/m² 4,2 °C 6,7 °C 6,4 km/h (2 Bft)
27.12.2023 13:27 22,3 °C 6,7 °C 53 % 84 % 1020,4 hPa 0,0 l/m² 5,6 km/h (2 Bft) O-SO 109 ° 1 min 91 W/m² 4,2 °C 6,7 °C 9,7 km/h (2 Bft)
27.12.2023 13:28 22,3 °C 6,7 °C 53 % 84 % 1020,5 hPa 0,0 l/m² 8,0 km/h (2 Bft) O-SO 109 ° 1 min 90 W/m² 4,2 °C 5,4 °C 11,3 km/h (2 Bft)
27.12.2023 13:29 22,3 °C 6,7 °C 53 % 84 % 1020,5 hPa 0,0 l/m² 9,4 km/h (2 Bft) O-SO 109 ° 1 min 88 W/m² 4,2 °C 4,4 °C 14,5 km/h (3 Bft)
27.12.2023 13:31 22,3 °C 6,7 °C 53 % 84 % 1020,4 hPa 0,0 l/m² 7,3 km/h (2 Bft) O-SO 111 ° 2 min 84 W/m² 4,2 °C 6,0 °C 11,3 km/h (2 Bft)
27.12.2023 13:32 22,2 °C 6,7 °C 53 % 84 % 1020,5 hPa 0,0 l/m² 4,8 km/h (1 Bft) O-SO 111 ° 1 min 83 W/m² 4,2 °C 6,7 °C 6,4 km/h (2 Bft)
27.12.2023 13:33 22,2 °C 6,8 °C 53 % 84 % 1020,5 hPa 0,0 l/m² 8,4 km/h (2 Bft) O-SO 113 ° 1 min 83 W/m² 4,3 °C 5,2 °C 12,9 km/h (3 Bft)
27.12.2023 13:34 22,3 °C 6,7 °C 53 % 84 % 1020,3 hPa 0,0 l/m² 6,5 km/h (2 Bft) O-SO 114 ° 1 min 81 W/m² 4,2 °C 6,6 °C 12,9 km/h (3 Bft)
27.12.2023 13:35 22,3 °C 6,8 °C 53 % 84 % 1020,4 hPa 0,0 l/m² 8,0 km/h (2 Bft) O-SO 110 ° 1 min 81 W/m² 4,3 °C 5,5 °C 11,3 km/h (2 Bft)
27.12.2023 13:36 22,3 °C 6,8 °C 53 % 84 % 1020,4 hPa 0,0 l/m² 9,7 km/h (2 Bft) SO 124 ° 1 min 79 W/m² 4,3 °C 4,3 °C 12,9 km/h (3 Bft)
27.12.2023 13:37 22,3 °C 6,8 °C 53 % 84 % 1020,4 hPa 0,0 l/m² 11,1 km/h (2 Bft) O-SO 118 ° 1 min 77 W/m² 4,3 °C 3,4 °C 14,5 km/h (3 Bft)
27.12.2023 13:38 22,3 °C 6,8 °C 53 % 84 % 1020,4 hPa 0,0 l/m² 10,8 km/h (2 Bft) O 101 ° 1 min 77 W/m² 4,3 °C 3,5 °C 12,9 km/h (3 Bft)
27.12.2023 13:39 22,3 °C 6,8 °C 53 % 84 % 1020,4 hPa 0,0 l/m² 9,2 km/h (2 Bft) O-SO 119 ° 1 min 76 W/m² 4,3 °C 4,6 °C 12,9 km/h (3 Bft)
27.12.2023 13:41 22,3 °C 6,8 °C 53 % 84 % 1020,3 hPa 0,0 l/m² 9,9 km/h (2 Bft) O-SO 108 ° 2 min 74 W/m² 4,3 °C 4,1 °C 14,5 km/h (3 Bft)
27.12.2023 13:43 22,3 °C 6,8 °C 53 % 84 % 1020,3 hPa 0,0 l/m² 9,7 km/h (2 Bft) O-SO 112 ° 2 min 70 W/m² 4,3 °C 4,3 °C 12,9 km/h (3 Bft)
27.12.2023 13:44 22,2 °C 6,8 °C 54 % 84 % 1020,3 hPa 0,0 l/m² 10,9 km/h (2 Bft) O-SO 114 ° 1 min 69 W/m² 4,3 °C 3,5 °C 12,9 km/h (3 Bft)
27.12.2023 13:45 22,2 °C 6,8 °C 53 % 83 % 1020,2 hPa 0,0 l/m² 7,5 km/h (2 Bft) O-SO 112 ° 1 min 67 W/m² 4,1 °C 5,9 °C 9,7 km/h (2 Bft)
27.12.2023 13:47 22,2 °C 6,8 °C 53 % 84 % 1020,1 hPa 0,0 l/m² 9,7 km/h (2 Bft) O-SO 113 ° 2 min 62 W/m² 4,3 °C 4,3 °C 12,9 km/h (3 Bft)
27.12.2023 13:48 22,2 °C 6,8 °C 53 % 84 % 1020,1 hPa 0,0 l/m² 7,6 km/h (2 Bft) O-SO 110 ° 1 min 62 W/m² 4,3 °C 5,8 °C 11,3 km/h (2 Bft)
27.12.2023 13:49 22,2 °C 6,8 °C 53 % 84 % 1020,1 hPa 0,0 l/m² 5,6 km/h (2 Bft) O-SO 107 ° 1 min 60 W/m² 4,3 °C 6,8 °C 9,7 km/h (2 Bft)
27.12.2023 13:51 22,2 °C 6,8 °C 53 % 84 % 1020,1 hPa 0,0 l/m² 9,0 km/h (2 Bft) O-SO 117 ° 2 min 60 W/m² 4,3 °C 4,7 °C 12,9 km/h (3 Bft)
27.12.2023 13:53 22,2 °C 6,8 °C 53 % 84 % 1020,0 hPa 0,0 l/m² 5,9 km/h (2 Bft) O-SO 108 ° 2 min 60 W/m² 4,3 °C 6,8 °C 9,7 km/h (2 Bft)
27.12.2023 13:54 22,2 °C 6,8 °C 53 % 84 % 1019,9 hPa 0,0 l/m² 5,0 km/h (1 Bft) O-SO 108 ° 1 min 60 W/m² 4,3 °C 6,8 °C 6,4 km/h (2 Bft)
27.12.2023 13:55 22,2 °C 6,8 °C 53 % 84 % 1019,9 hPa 0,0 l/m² 9,8 km/h (2 Bft) O-SO 110 ° 1 min 62 W/m² 4,3 °C 4,2 °C 11,3 km/h (2 Bft)
27.12.2023 13:56 22,2 °C 6,8 °C 53 % 84 % 1020,0 hPa 0,0 l/m² 9,0 km/h (2 Bft) O 82 ° 1 min 62 W/m² 4,3 °C 4,7 °C 11,3 km/h (2 Bft)
27.12.2023 13:57 22,2 °C 6,8 °C 53 % 84 % 1019,8 hPa 0,0 l/m² 11,8 km/h (2 Bft) O 86 ° 1 min 63 W/m² 4,3 °C 2,9 °C 14,5 km/h (3 Bft)
27.12.2023 13:58 22,2 °C 6,8 °C 53 % 84 % 1019,8 hPa 0,0 l/m² 9,8 km/h (2 Bft) O 86 ° 1 min 63 W/m² 4,3 °C 4,2 °C 11,3 km/h (2 Bft)
27.12.2023 13:59 22,2 °C 6,8 °C 53 % 84 % 1019,8 hPa 0,0 l/m² 8,3 km/h (2 Bft) O 93 ° 1 min 65 W/m² 4,3 °C 5,3 °C 11,3 km/h (2 Bft)
27.12.2023 14:00 22,2 °C 6,8 °C 53 % 84 % 1019,8 hPa 0,0 l/m² 8,3 km/h (2 Bft) O 93 ° 1 min 67 W/m² 4,3 °C 5,3 °C 11,3 km/h (2 Bft)
27.12.2023 14:02 22,2 °C 6,8 °C 53 % 85 % 1019,7 hPa 0,0 l/m² 6,7 km/h (2 Bft) O 94 ° 2 min 74 W/m² 4,5 °C 6,6 °C 11,3 km/h (2 Bft)
27.12.2023 14:03 22,2 °C 6,8 °C 53 % 85 % 1019,7 hPa 0,0 l/m² 8,0 km/h (2 Bft) O 96 ° 1 min 76 W/m² 4,5 °C 5,5 °C 11,3 km/h (2 Bft)
27.12.2023 14:04 22,2 °C 6,8 °C 53 % 85 % 1019,7 hPa 0,0 l/m² 10,5 km/h (2 Bft) O 94 ° 1 min 76 W/m² 4,5 °C 3,7 °C 12,9 km/h (3 Bft)
27.12.2023 14:05 22,2 °C 6,8 °C 53 % 85 % 1019,7 hPa 0,0 l/m² 9,8 km/h (2 Bft) O 97 ° 1 min 77 W/m² 4,5 °C 4,2 °C 11,3 km/h (2 Bft)
27.12.2023 14:06 22,2 °C 6,8 °C 53 % 85 % 1019,7 hPa 0,0 l/m² 5,9 km/h (2 Bft) O 98 ° 1 min 77 W/m² 4,5 °C 6,8 °C 9,7 km/h (2 Bft)
27.12.2023 14:07 22,1 °C 6,8 °C 53 % 85 % 1019,7 hPa 0,0 l/m² 7,6 km/h (2 Bft) O 96 ° 1 min 77 W/m² 4,5 °C 5,8 °C 9,7 km/h (2 Bft)
27.12.2023 14:08 22,2 °C 6,8 °C 53 % 85 % 1019,7 hPa 0,0 l/m² 6,4 km/h (2 Bft) O 96 ° 1 min 77 W/m² 4,5 °C 6,8 °C 9,7 km/h (2 Bft)
27.12.2023 14:09 22,1 °C 6,8 °C 53 % 85 % 1019,7 hPa 0,0 l/m² 5,5 km/h (2 Bft) O 96 ° 1 min 77 W/m² 4,5 °C 6,8 °C 6,4 km/h (2 Bft)
27.12.2023 14:10 22,2 °C 6,8 °C 53 % 85 % 1019,6 hPa 0,0 l/m² 6,4 km/h (2 Bft) O-SO 103 ° 1 min 77 W/m² 4,5 °C 6,8 °C 9,7 km/h (2 Bft)
27.12.2023 14:11 22,1 °C 6,8 °C 53 % 85 % 1019,5 hPa 0,0 l/m² 7,3 km/h (2 Bft) O-SO 107 ° 1 min 74 W/m² 4,5 °C 6,1 °C 11,3 km/h (2 Bft)
27.12.2023 14:12 22,2 °C 6,8 °C 53 % 85 % 1019,5 hPa 0,0 l/m² 7,1 km/h (2 Bft) O-SO 111 ° 1 min 74 W/m² 4,5 °C 6,2 °C 11,3 km/h (2 Bft)
27.12.2023 14:13 22,2 °C 6,8 °C 53 % 85 % 1019,5 hPa 0,0 l/m² 5,8 km/h (2 Bft) O-SO 106 ° 1 min 74 W/m² 4,5 °C 6,8 °C 6,4 km/h (2 Bft)
27.12.2023 14:14 22,1 °C 6,8 °C 53 % 85 % 1019,5 hPa 0,0 l/m² 9,4 km/h (2 Bft) O 98 ° 1 min 74 W/m² 4,5 °C 4,5 °C 11,3 km/h (2 Bft)
27.12.2023 14:15 22,1 °C 6,8 °C 54 % 85 % 1019,4 hPa 0,0 l/m² 9,0 km/h (2 Bft) O-SO 103 ° 1 min 76 W/m² 4,5 °C 4,7 °C 11,3 km/h (2 Bft)
27.12.2023 14:17 22,1 °C 6,8 °C 54 % 85 % 1019,2 hPa 0,0 l/m² 6,9 km/h (2 Bft) O 100 ° 2 min 81 W/m² 4,5 °C 6,4 °C 11,3 km/h (2 Bft)
27.12.2023 14:18 22,1 °C 6,8 °C 54 % 85 % 1019,2 hPa 0,0 l/m² 8,0 km/h (2 Bft) O 98 ° 1 min 79 W/m² 4,5 °C 5,5 °C 9,7 km/h (2 Bft)
27.12.2023 14:19 22,1 °C 6,8 °C 54 % 85 % 1019,2 hPa 0,0 l/m² 5,9 km/h (2 Bft) O 99 ° 1 min 77 W/m² 4,5 °C 6,8 °C 6,4 km/h (2 Bft)
27.12.2023 14:21 22,1 °C 6,8 °C 54 % 85 % 1019,2 hPa 0,0 l/m² 8,6 km/h (2 Bft) O-SO 113 ° 2 min 76 W/m² 4,5 °C 5,0 °C 12,9 km/h (3 Bft)
27.12.2023 14:23 22,1 °C 6,8 °C 54 % 85 % 1019,1 hPa 0,0 l/m² 6,7 km/h (2 Bft) O-SO 112 ° 2 min 84 W/m² 4,5 °C 6,6 °C 11,3 km/h (2 Bft)
27.12.2023 14:24 22,1 °C 6,8 °C 54 % 85 % 1019,2 hPa 0,0 l/m² 7,6 km/h (2 Bft) O-SO 112 ° 1 min 86 W/m² 4,5 °C 5,8 °C 9,7 km/h (2 Bft)
27.12.2023 14:25 22,1 °C 6,8 °C 54 % 85 % 1019,1 hPa 0,0 l/m² 8,4 km/h (2 Bft) O-SO 102 ° 1 min 88 W/m² 4,5 °C 5,2 °C 12,9 km/h (3 Bft)
27.12.2023 14:26 22,1 °C 6,8 °C 54 % 85 % 1019,1 hPa 0,0 l/m² 11,2 km/h (2 Bft) O-SO 105 ° 1 min 91 W/m² 4,5 °C 3,3 °C 12,9 km/h (3 Bft)
27.12.2023 14:27 22,1 °C 6,8 °C 54 % 85 % 1019,0 hPa 0,0 l/m² 9,3 km/h (2 Bft) O-SO 119 ° 1 min 95 W/m² 4,5 °C 4,5 °C 12,9 km/h (3 Bft)
27.12.2023 14:28 22,1 °C 6,8 °C 54 % 85 % 1019,1 hPa 0,0 l/m² 7,9 km/h (2 Bft) O-SO 107 ° 1 min 100 W/m² 4,5 °C 5,6 °C 9,7 km/h (2 Bft)
27.12.2023 14:29 22,1 °C 6,8 °C 54 % 85 % 1019,1 hPa 0,0 l/m² 11,7 km/h (2 Bft) O 98 ° 1 min 105 W/m² 4,5 °C 3,0 °C 14,5 km/h (3 Bft)
27.12.2023 14:31 22,1 °C 6,8 °C 54 % 85 % 1019,0 hPa 0,0 l/m² 10,9 km/h (2 Bft) O-SO 115 ° 2 min 139 W/m² 4,5 °C 3,5 °C 14,5 km/h (3 Bft)
27.12.2023 14:33 22,1 °C 6,8 °C 54 % 85 % 1019,0 hPa 0,0 l/m² 9,9 km/h (2 Bft) O-SO 105 ° 2 min 97 W/m² 4,5 °C 4,1 °C 14,5 km/h (3 Bft)
27.12.2023 14:34 22,1 °C 6,8 °C 54 % 85 % 1018,9 hPa 0,0 l/m² 13,3 km/h (3 Bft) O 97 ° 1 min 93 W/m² 4,5 °C 2,1 °C 16,1 km/h (3 Bft)
27.12.2023 14:35 22,1 °C 6,8 °C 54 % 84 % 1018,8 hPa 0,0 l/m² 10,1 km/h (2 Bft) O-SO 114 ° 1 min 88 W/m² 4,3 °C 4,0 °C 12,9 km/h (3 Bft)
27.12.2023 14:37 22,1 °C 6,8 °C 54 % 85 % 1018,8 hPa 0,0 l/m² 9,5 km/h (2 Bft) O-SO 115 ° 2 min 114 W/m² 4,5 °C 4,4 °C 14,5 km/h (3 Bft)
27.12.2023 14:38 22,1 °C 6,8 °C 54 % 85 % 1018,8 hPa 0,0 l/m² 10,1 km/h (2 Bft) O-SO 110 ° 1 min 141 W/m² 4,5 °C 4,0 °C 11,3 km/h (2 Bft)
27.12.2023 14:39 22,1 °C 6,8 °C 54 % 85 % 1018,7 hPa 0,0 l/m² 7,7 km/h (2 Bft) O-SO 111 ° 1 min 116 W/m² 4,5 °C 5,7 °C 11,3 km/h (2 Bft)
27.12.2023 14:41 22,1 °C 6,9 °C 54 % 85 % 1018,7 hPa 0,0 l/m² 9,0 km/h (2 Bft) O-SO 110 ° 2 min 88 W/m² 4,6 °C 4,9 °C 11,3 km/h (2 Bft)
27.12.2023 14:43 22,1 °C 6,8 °C 54 % 84 % 1018,6 hPa 0,0 l/m² 10,4 km/h (2 Bft) O-SO 115 ° 2 min 83 W/m² 4,3 °C 3,8 °C 12,9 km/h (3 Bft)
27.12.2023 14:44 22,1 °C 6,8 °C 54 % 84 % 1018,5 hPa 0,0 l/m² 9,9 km/h (2 Bft) O-SO 117 ° 1 min 81 W/m² 4,3 °C 4,1 °C 12,9 km/h (3 Bft)
27.12.2023 14:45 22,1 °C 6,8 °C 54 % 84 % 1018,5 hPa 0,0 l/m² 8,4 km/h (2 Bft) O-SO 105 ° 1 min 81 W/m² 4,3 °C 5,2 °C 9,7 km/h (2 Bft)
27.12.2023 14:46 22,1 °C 6,8 °C 54 % 84 % 1018,5 hPa 0,0 l/m² 9,3 km/h (2 Bft) O-SO 105 ° 1 min 79 W/m² 4,3 °C 4,5 °C 12,9 km/h (3 Bft)
27.12.2023 14:47 22,1 °C 6,8 °C 54 % 84 % 1018,4 hPa 0,0 l/m² 7,7 km/h (2 Bft) O-SO 104 ° 1 min 77 W/m² 4,3 °C 5,7 °C 11,3 km/h (2 Bft)
27.12.2023 14:48 22,1 °C 6,8 °C 54 % 85 % 1018,4 hPa 0,0 l/m² 9,8 km/h (2 Bft) O-SO 109 ° 1 min 77 W/m² 4,5 °C 4,2 °C 16,1 km/h (3 Bft)
27.12.2023 14:49 22,1 °C 6,8 °C 54 % 85 % 1018,3 hPa 0,0 l/m² 12,2 km/h (2 Bft) O-SO 103 ° 1 min 77 W/m² 4,5 °C 2,7 °C 16,1 km/h (3 Bft)
27.12.2023 14:51 22,1 °C 6,7 °C 54 % 85 % 1018,3 hPa 0,0 l/m² 8,7 km/h (2 Bft) O-SO 117 ° 2 min 76 W/m² 4,4 °C 4,9 °C 12,9 km/h (3 Bft)
27.12.2023 14:53 22,1 °C 6,7 °C 54 % 85 % 1018,4 hPa 0,0 l/m² 11,3 km/h (2 Bft) O-SO 114 ° 2 min 72 W/m² 4,4 °C 3,1 °C 16,1 km/h (3 Bft)
27.12.2023 14:54 22,1 °C 6,7 °C 54 % 85 % 1018,3 hPa 0,0 l/m² 10,2 km/h (2 Bft) O-SO 107 ° 1 min 72 W/m² 4,4 °C 3,8 °C 12,9 km/h (3 Bft)
27.12.2023 14:55 22,1 °C 6,7 °C 54 % 85 % 1018,4 hPa 0,0 l/m² 10,5 km/h (2 Bft) O-SO 110 ° 1 min 77 W/m² 4,4 °C 3,6 °C 12,9 km/h (3 Bft)
27.12.2023 14:56 22,1 °C 6,7 °C 54 % 85 % 1018,3 hPa 0,0 l/m² 8,2 km/h (2 Bft) O-SO 113 ° 1 min 84 W/m² 4,4 °C 5,2 °C 12,9 km/h (3 Bft)
27.12.2023 14:57 22,1 °C 6,7 °C 54 % 85 % 1018,4 hPa 0,0 l/m² 8,9 km/h (2 Bft) O 101 ° 1 min 88 W/m² 4,4 °C 4,7 °C 12,9 km/h (3 Bft)
27.12.2023 14:58 22,1 °C 6,7 °C 54 % 85 % 1018,4 hPa 0,0 l/m² 11,5 km/h (2 Bft) O 100 ° 1 min 77 W/m² 4,4 °C 3,0 °C 16,1 km/h (3 Bft)
27.12.2023 14:59 22,1 °C 6,7 °C 54 % 85 % 1018,4 hPa 0,0 l/m² 11,4 km/h (2 Bft) O 98 ° 1 min 79 W/m² 4,4 °C 3,1 °C 14,5 km/h (3 Bft)
27.12.2023 15:01 22,1 °C 6,7 °C 54 % 85 % 1018,2 hPa 0,0 l/m² 10,2 km/h (2 Bft) O-SO 102 ° 2 min 81 W/m² 4,4 °C 3,8 °C 12,9 km/h (3 Bft)
27.12.2023 15:03 22,1 °C 6,8 °C 54 % 84 % 1018,4 hPa 0,0 l/m² 8,4 km/h (2 Bft) O-SO 113 ° 2 min 81 W/m² 4,3 °C 5,2 °C 11,3 km/h (2 Bft)
27.12.2023 15:04 22,1 °C 6,8 °C 54 % 84 % 1018,4 hPa 0,0 l/m² 6,8 km/h (2 Bft) O-SO 110 ° 1 min 72 W/m² 4,3 °C 6,5 °C 9,7 km/h (2 Bft)
27.12.2023 15:05 22,1 °C 6,8 °C 54 % 84 % 1018,5 hPa 0,0 l/m² 8,6 km/h (2 Bft) O-SO 114 ° 1 min 67 W/m² 4,3 °C 5,0 °C 11,3 km/h (2 Bft)
27.12.2023 15:07 22,1 °C 6,8 °C 54 % 84 % 1018,4 hPa 0,0 l/m² 9,5 km/h (2 Bft) O 100 ° 2 min 62 W/m² 4,3 °C 4,4 °C 14,5 km/h (3 Bft)
27.12.2023 15:08 22,1 °C 6,8 °C 54 % 84 % 1018,4 hPa 0,0 l/m² 9,6 km/h (2 Bft) O-SO 107 ° 1 min 60 W/m² 4,3 °C 4,3 °C 11,3 km/h (2 Bft)
27.12.2023 15:09 22,1 °C 6,8 °C 54 % 84 % 1018,4 hPa 0,0 l/m² 9,6 km/h (2 Bft) O 100 ° 1 min 58 W/m² 4,3 °C 4,3 °C 11,3 km/h (2 Bft)
27.12.2023 15:11 22,1 °C 6,8 °C 54 % 84 % 1018,3 hPa 0,0 l/m² 10,3 km/h (2 Bft) O 101 ° 2 min 54 W/m² 4,3 °C 3,9 °C 12,9 km/h (3 Bft)
27.12.2023 15:13 22,1 °C 6,7 °C 54 % 84 % 1018,3 hPa 0,0 l/m² 11,0 km/h (2 Bft) O 93 ° 0 min 51 W/m² 4,2 °C 3,3 °C 14,5 km/h (3 Bft)
27.12.2023 15:14 22,1 °C 6,7 °C 54 % 84 % 1018,3 hPa 0,0 l/m² 10,2 km/h (2 Bft) O 92 ° 0 min 49 W/m² 4,2 °C 3,8 °C 12,9 km/h (3 Bft)
27.12.2023 15:15 22,1 °C 6,7 °C 54 % 84 % 1018,3 hPa 0,0 l/m² 9,1 km/h (2 Bft) O 94 ° 0 min 49 W/m² 4,2 °C 4,6 °C 11,3 km/h (2 Bft)
27.12.2023 15:16 22,1 °C 6,7 °C 54 % 84 % 1018,2 hPa 0,0 l/m² 9,3 km/h (2 Bft) O 96 ° 0 min 49 W/m² 4,2 °C 4,4 °C 11,3 km/h (2 Bft)
27.12.2023 15:17 22,1 °C 6,7 °C 54 % 84 % 1018,2 hPa 0,0 l/m² 10,2 km/h (2 Bft) O-SO 104 ° 0 min 47 W/m² 4,2 °C 3,8 °C 11,3 km/h (2 Bft)
27.12.2023 15:18 22,1 °C 6,7 °C 54 % 84 % 1018,2 hPa 0,0 l/m² 10,5 km/h (2 Bft) O 92 ° 0 min 47 W/m² 4,2 °C 3,6 °C 12,9 km/h (3 Bft)
27.12.2023 15:19 22,1 °C 6,6 °C 54 % 84 % 1018,2 hPa 0,0 l/m² 11,5 km/h (2 Bft) O 96 ° 0 min 46 W/m² 4,1 °C 2,9 °C 12,9 km/h (3 Bft)
27.12.2023 15:21 22,1 °C 6,6 °C 54 % 85 % 1018,2 hPa 0,0 l/m² 10,9 km/h (2 Bft) O 95 ° 0 min 40 W/m² 4,3 °C 3,3 °C 12,9 km/h (3 Bft)
27.12.2023 15:22 22,1 °C 6,6 °C 54 % 85 % 1018,2 hPa 0,0 l/m² 9,5 km/h (2 Bft) O 96 ° 0 min 37 W/m² 4,3 °C 4,2 °C 12,9 km/h (3 Bft)
27.12.2023 15:23 22,1 °C 6,6 °C 54 % 85 % 1018,2 hPa 0,0 l/m² 11,4 km/h (2 Bft) O 90 ° 0 min 35 W/m² 4,3 °C 3,0 °C 12,9 km/h (3 Bft)
27.12.2023 15:24 22,1 °C 6,6 °C 54 % 85 % 1018,2 hPa 0,0 l/m² 12,3 km/h (2 Bft) O 86 ° 0 min 33 W/m² 4,3 °C 2,4 °C 14,5 km/h (3 Bft)
27.12.2023 15:25 22,1 °C 6,6 °C 54 % 85 % 1018,2 hPa 0,0 l/m² 11,5 km/h (2 Bft) O 92 ° 0 min 32 W/m² 4,3 °C 2,9 °C 12,9 km/h (3 Bft)
27.12.2023 15:27 22,1 °C 6,7 °C 54 % 85 % 1018,2 hPa 0,0 l/m² 11,3 km/h (2 Bft) O 94 ° 0 min 28 W/m² 4,4 °C 3,1 °C 12,9 km/h (3 Bft)
27.12.2023 15:28 22,1 °C 6,7 °C 54 % 85 % 1018,2 hPa 0,0 l/m² 11,5 km/h (2 Bft) O 92 ° 0 min 28 W/m² 4,4 °C 3,0 °C 14,5 km/h (3 Bft)
27.12.2023 15:29 22,0 °C 6,7 °C 54 % 85 % 1018,1 hPa 0,0 l/m² 11,7 km/h (2 Bft) O 96 ° 0 min 28 W/m² 4,4 °C 2,9 °C 12,9 km/h (3 Bft)
27.12.2023 15:31 22,0 °C 6,7 °C 54 % 85 % 1018,1 hPa 0,0 l/m² 11,0 km/h (2 Bft) O 96 ° 0 min 28 W/m² 4,4 °C 3,3 °C 14,5 km/h (3 Bft)
27.12.2023 15:33 22,1 °C 6,7 °C 54 % 85 % 1018,0 hPa 0,0 l/m² 8,9 km/h (2 Bft) O 96 ° 0 min 26 W/m² 4,4 °C 4,7 °C 12,9 km/h (3 Bft)
27.12.2023 15:34 22,0 °C 6,7 °C 54 % 85 % 1018,0 hPa 0,0 l/m² 10,7 km/h (2 Bft) O 101 ° 0 min 25 W/m² 4,4 °C 3,5 °C 14,5 km/h (3 Bft)
27.12.2023 15:35 22,0 °C 6,7 °C 54 % 85 % 1018,0 hPa 0,0 l/m² 9,9 km/h (2 Bft) O-SO 103 ° 0 min 23 W/m² 4,4 °C 4,0 °C 11,3 km/h (2 Bft)
27.12.2023 15:36 22,0 °C 6,7 °C 54 % 85 % 1018,0 hPa 0,0 l/m² 8,8 km/h (2 Bft) O-SO 107 ° 0 min 21 W/m² 4,4 °C 4,8 °C 11,3 km/h (2 Bft)
27.12.2023 15:37 22,0 °C 6,7 °C 54 % 85 % 1018,0 hPa 0,0 l/m² 10,6 km/h (2 Bft) O-SO 106 ° 0 min 21 W/m² 4,4 °C 3,6 °C 12,9 km/h (3 Bft)
27.12.2023 15:38 22,0 °C 6,7 °C 54 % 85 % 1018,0 hPa 0,0 l/m² 12,6 km/h (3 Bft) O 101 ° 0 min 21 W/m² 4,4 °C 2,4 °C 14,5 km/h (3 Bft)
27.12.2023 15:39 22,0 °C 6,7 °C 54 % 85 % 1018,0 hPa 0,0 l/m² 11,4 km/h (2 Bft) O 100 ° 0 min 19 W/m² 4,4 °C 3,1 °C 12,9 km/h (3 Bft)
27.12.2023 15:41 22,0 °C 6,7 °C 53 % 85 % 1017,9 hPa 0,0 l/m² 8,3 km/h (2 Bft) O-SO 105 ° 0 min 19 W/m² 4,4 °C 5,2 °C 11,3 km/h (2 Bft)
27.12.2023 15:43 22,0 °C 6,7 °C 53 % 85 % 1017,9 hPa 0,0 l/m² 7,5 km/h (2 Bft) O-SO 104 ° 0 min 18 W/m² 4,4 °C 5,8 °C 11,3 km/h (2 Bft)
27.12.2023 15:44 21,9 °C 6,7 °C 53 % 85 % 1017,9 hPa 0,0 l/m² 7,2 km/h (2 Bft) O 99 ° 0 min 18 W/m² 4,4 °C 6,0 °C 9,7 km/h (2 Bft)
27.12.2023 15:47 21,9 °C 6,7 °C 53 % 85 % 1018,2 hPa 0,0 l/m² 7,9 km/h (2 Bft) O 91 ° 0 min 14 W/m² 4,4 °C 5,5 °C 11,3 km/h (2 Bft)
27.12.2023 15:48 21,9 °C 6,7 °C 54 % 85 % 1018,2 hPa 0,0 l/m² 9,4 km/h (2 Bft) O 96 ° 0 min 14 W/m² 4,4 °C 4,4 °C 11,3 km/h (2 Bft)
27.12.2023 15:49 22,0 °C 6,7 °C 54 % 85 % 1018,2 hPa 0,0 l/m² 7,2 km/h (2 Bft) O 95 ° 0 min 12 W/m² 4,4 °C 6,0 °C 11,3 km/h (2 Bft)
27.12.2023 15:50 21,9 °C 6,7 °C 54 % 85 % 1018,2 hPa 0,0 l/m² 8,2 km/h (2 Bft) O 92 ° 0 min 12 W/m² 4,4 °C 5,2 °C 9,7 km/h (2 Bft)
27.12.2023 15:52 21,9 °C 6,6 °C 54 % 85 % 1018,2 hPa 0,0 l/m² 8,6 km/h (2 Bft) O 90 ° 0 min 11 W/m² 4,3 °C 4,8 °C 11,3 km/h (2 Bft)
27.12.2023 15:53 21,9 °C 6,7 °C 54 % 85 % 1018,2 hPa 0,0 l/m² 9,8 km/h (2 Bft) O 84 ° 0 min 9 W/m² 4,4 °C 4,1 °C 12,9 km/h (3 Bft)
27.12.2023 15:54 21,9 °C 6,7 °C 54 % 85 % 1018,2 hPa 0,0 l/m² 6,6 km/h (2 Bft) O 86 ° 0 min 9 W/m² 4,4 °C 6,6 °C 11,3 km/h (2 Bft)
27.12.2023 15:55 21,9 °C 6,7 °C 54 % 85 % 1018,1 hPa 0,0 l/m² 9,4 km/h (2 Bft) O 90 ° 0 min 7 W/m² 4,4 °C 4,4 °C 11,3 km/h (2 Bft)
27.12.2023 15:56 22,0 °C 6,7 °C 54 % 85 % 1018,0 hPa 0,0 l/m² 8,4 km/h (2 Bft) O 90 ° 0 min 7 W/m² 4,4 °C 5,1 °C 9,7 km/h (2 Bft)
27.12.2023 15:57 22,0 °C 6,6 °C 54 % 85 % 1018,0 hPa 0,0 l/m² 8,6 km/h (2 Bft) O 90 ° 0 min 5 W/m² 4,3 °C 4,8 °C 11,3 km/h (2 Bft)
27.12.2023 15:58 22,0 °C 6,6 °C 54 % 85 % 1018,0 hPa 0,0 l/m² 8,0 km/h (2 Bft) O 87 ° 0 min 5 W/m² 4,3 °C 5,3 °C 11,3 km/h (2 Bft)
27.12.2023 15:59 22,0 °C 6,6 °C 54 % 85 % 1017,9 hPa 0,0 l/m² 7,6 km/h (2 Bft) O 88 ° 0 min 5 W/m² 4,3 °C 5,6 °C 11,3 km/h (2 Bft)
27.12.2023 16:00 22,0 °C 6,6 °C 54 % 85 % 1017,9 hPa 0,0 l/m² 7,1 km/h (2 Bft) O 88 ° 0 min 0 W/m² 4,3 °C 6,0 °C 11,3 km/h (2 Bft)
27.12.2023 16:02 22,0 °C 6,6 °C 54 % 85 % 1017,9 hPa 0,0 l/m² 6,5 km/h (2 Bft) O 89 ° 0 min 0 W/m² 4,3 °C 6,5 °C 8,0 km/h (2 Bft)
27.12.2023 16:03 22,0 °C 6,6 °C 54 % 85 % 1018,0 hPa 0,0 l/m² 5,8 km/h (2 Bft) O 90 ° 0 min 0 W/m² 4,3 °C 6,6 °C 6,4 km/h (2 Bft)
27.12.2023 16:04 22,0 °C 6,6 °C 54 % 85 % 1017,9 hPa 0,0 l/m² 4,4 km/h (1 Bft) O 90 ° 0 min 0 W/m² 4,3 °C 6,6 °C 6,4 km/h (2 Bft)
27.12.2023 16:05 22,0 °C 6,6 °C 54 % 85 % 1017,9 hPa 0,0 l/m² 7,1 km/h (2 Bft) O 92 ° 0 min 0 W/m² 4,3 °C 6,0 °C 9,7 km/h (2 Bft)
27.12.2023 16:07 22,0 °C 6,5 °C 54 % 85 % 1017,8 hPa 0,0 l/m² 7,4 km/h (2 Bft) O 92 ° 0 min 0 W/m² 4,2 °C 5,7 °C 11,3 km/h (2 Bft)
27.12.2023 16:08 22,0 °C 6,6 °C 54 % 85 % 1017,8 hPa 0,0 l/m² 7,7 km/h (2 Bft) O 92 ° 0 min 0 W/m² 4,3 °C 5,5 °C 9,7 km/h (2 Bft)
27.12.2023 16:09 22,1 °C 6,5 °C 54 % 85 % 1017,8 hPa 0,0 l/m² 8,1 km/h (2 Bft) O 92 ° 0 min 0 W/m² 4,2 °C 5,1 °C 9,7 km/h (2 Bft)
27.12.2023 16:11 22,1 °C 6,5 °C 54 % 85 % 1017,7 hPa 0,0 l/m² 9,8 km/h (2 Bft) O 89 ° 0 min 0 W/m² 4,2 °C 3,9 °C 12,9 km/h (3 Bft)
27.12.2023 16:13 22,1 °C 6,6 °C 55 % 86 % 1017,8 hPa 0,0 l/m² 10,8 km/h (2 Bft) O 82 ° 0 min 0 W/m² 4,4 °C 3,3 °C 12,9 km/h (3 Bft)
27.12.2023 16:14 22,1 °C 6,6 °C 54 % 86 % 1017,8 hPa 0,0 l/m² 12,3 km/h (2 Bft) O 80 ° 0 min 0 W/m² 4,4 °C 2,4 °C 16,1 km/h (3 Bft)
27.12.2023 16:15 22,1 °C 6,6 °C 55 % 86 % 1017,7 hPa 0,0 l/m² 11,4 km/h (2 Bft) O 84 ° 0 min 0 W/m² 4,4 °C 3,0 °C 14,5 km/h (3 Bft)
27.12.2023 16:17 22,1 °C 6,6 °C 55 % 85 % 1017,7 hPa 0,0 l/m² 9,6 km/h (2 Bft) O 86 ° 0 min 0 W/m² 4,3 °C 4,1 °C 12,9 km/h (3 Bft)
27.12.2023 16:18 22,1 °C 6,6 °C 55 % 85 % 1017,7 hPa 0,0 l/m² 7,5 km/h (2 Bft) O 86 ° 0 min 0 W/m² 4,3 °C 5,7 °C 11,3 km/h (2 Bft)
27.12.2023 16:19 22,1 °C 6,6 °C 55 % 85 % 1017,7 hPa 0,0 l/m² 9,9 km/h (2 Bft) O 87 ° 0 min 0 W/m² 4,3 °C 3,9 °C 12,9 km/h (3 Bft)
27.12.2023 16:21 22,1 °C 6,6 °C 55 % 85 % 1017,7 hPa 0,0 l/m² 9,1 km/h (2 Bft) O 86 ° 0 min 0 W/m² 4,3 °C 4,5 °C 12,9 km/h (3 Bft)
27.12.2023 16:23 22,1 °C 6,6 °C 55 % 85 % 1017,5 hPa 0,0 l/m² 9,7 km/h (2 Bft) O 89 ° 0 min 0 W/m² 4,3 °C 4,0 °C 12,9 km/h (3 Bft)
27.12.2023 16:24 22,1 °C 6,6 °C 55 % 85 % 1017,5 hPa 0,0 l/m² 9,2 km/h (2 Bft) O 88 ° 0 min 0 W/m² 4,3 °C 4,4 °C 11,3 km/h (2 Bft)
27.12.2023 16:25 22,1 °C 6,6 °C 55 % 85 % 1017,5 hPa 0,0 l/m² 9,8 km/h (2 Bft) O 89 ° 0 min 0 W/m² 4,3 °C 4,0 °C 12,9 km/h (3 Bft)
27.12.2023 16:26 22,1 °C 6,6 °C 55 % 85 % 1017,6 hPa 0,0 l/m² 9,3 km/h (2 Bft) O 89 ° 0 min 0 W/m² 4,3 °C 4,3 °C 11,3 km/h (2 Bft)
27.12.2023 16:27 22,1 °C 6,5 °C 55 % 85 % 1017,5 hPa 0,0 l/m² 6,7 km/h (2 Bft) O 89 ° 0 min 0 W/m² 4,2 °C 6,3 °C 8,0 km/h (2 Bft)
27.12.2023 16:28 22,1 °C 6,6 °C 55 % 85 % 1017,6 hPa 0,0 l/m² 7,3 km/h (2 Bft) O 89 ° 0 min 0 W/m² 4,3 °C 5,8 °C 11,3 km/h (2 Bft)
27.12.2023 16:29 22,1 °C 6,5 °C 55 % 85 % 1017,5 hPa 0,0 l/m² 5,7 km/h (2 Bft) O 89 ° 0 min 0 W/m² 4,2 °C 6,5 °C 8,0 km/h (2 Bft)
27.12.2023 16:31 22,1 °C 6,5 °C 55 % 86 % 1017,6 hPa 0,0 l/m² 5,2 km/h (1 Bft) O 89 ° 0 min 0 W/m² 4,3 °C 6,5 °C 8,0 km/h (2 Bft)
27.12.2023 16:33 22,1 °C 6,5 °C 55 % 86 % 1017,6 hPa 0,0 l/m² 5,1 km/h (1 Bft) O 89 ° 0 min 0 W/m² 4,3 °C 6,5 °C 6,4 km/h (2 Bft)
27.12.2023 16:34 22,1 °C 6,5 °C 55 % 86 % 1017,6 hPa 0,0 l/m² 5,4 km/h (2 Bft) O 89 ° 0 min 0 W/m² 4,3 °C 6,5 °C 6,4 km/h (2 Bft)
27.12.2023 16:35 22,1 °C 6,5 °C 55 % 86 % 1017,7 hPa 0,0 l/m² 3,7 km/h (1 Bft) O 89 ° 0 min 0 W/m² 4,3 °C 6,5 °C 6,4 km/h (2 Bft)
27.12.2023 16:36 22,1 °C 6,4 °C 55 % 86 % 1017,6 hPa 0,0 l/m² 5,1 km/h (1 Bft) O 89 ° 0 min 0 W/m² 4,2 °C 6,4 °C 6,4 km/h (2 Bft)
27.12.2023 16:37 22,1 °C 6,4 °C 55 % 86 % 1017,6 hPa 0,0 l/m² 6,2 km/h (2 Bft) O 89 ° 0 min 0 W/m² 4,2 °C 6,4 °C 8,0 km/h (2 Bft)
27.12.2023 16:38 22,1 °C 6,4 °C 55 % 86 % 1017,5 hPa 0,0 l/m² 4,7 km/h (1 Bft) O 89 ° 0 min 0 W/m² 4,2 °C 6,4 °C 6,4 km/h (2 Bft)
27.12.2023 16:39 22,1 °C 6,4 °C 55 % 86 % 1017,5 hPa 0,0 l/m² 4,6 km/h (1 Bft) O 89 ° 0 min 0 W/m² 4,2 °C 6,4 °C 6,4 km/h (2 Bft)
27.12.2023 16:41 22,2 °C 6,4 °C 55 % 86 % 1017,6 hPa 0,0 l/m² 3,8 km/h (1 Bft) O 89 ° 0 min 0 W/m² 4,2 °C 6,4 °C 6,4 km/h (2 Bft)
27.12.2023 16:43 22,2 °C 6,4 °C 55 % 86 % 1017,6 hPa 0,0 l/m² 3,5 km/h (1 Bft) O 89 ° 0 min 0 W/m² 4,2 °C 6,4 °C 6,4 km/h (2 Bft)
27.12.2023 16:44 22,2 °C 6,4 °C 55 % 86 % 1017,5 hPa 0,0 l/m² 4,7 km/h (1 Bft) O 89 ° 0 min 0 W/m² 4,2 °C 6,4 °C 4,8 km/h (1 Bft)
27.12.2023 16:45 22,2 °C 6,4 °C 55 % 86 % 1017,5 hPa 0,0 l/m² 5,5 km/h (2 Bft) O 89 ° 0 min 0 W/m² 4,2 °C 6,4 °C 8,0 km/h (2 Bft)
27.12.2023 16:46 22,2 °C 6,4 °C 55 % 86 % 1017,5 hPa 0,0 l/m² 4,6 km/h (1 Bft) O 89 ° 0 min 0 W/m² 4,2 °C 6,4 °C 6,4 km/h (2 Bft)
27.12.2023 16:47 22,2 °C 6,4 °C 55 % 86 % 1017,3 hPa 0,0 l/m² 5,1 km/h (1 Bft) O 89 ° 0 min 0 W/m² 4,2 °C 6,4 °C 6,4 km/h (2 Bft)
27.12.2023 16:48 22,2 °C 6,4 °C 55 % 86 % 1017,3 hPa 0,0 l/m² 6,4 km/h (2 Bft) O 89 ° 0 min 0 W/m² 4,2 °C 6,4 °C 8,0 km/h (2 Bft)
27.12.2023 16:49 22,2 °C 6,4 °C 55 % 86 % 1017,3 hPa 0,0 l/m² 6,4 km/h (2 Bft) O 89 ° 0 min 0 W/m² 4,2 °C 6,4 °C 8,0 km/h (2 Bft)
27.12.2023 16:51 22,2 °C 6,4 °C 55 % 86 % 1017,2 hPa 0,0 l/m² 6,4 km/h (2 Bft) O 89 ° 0 min 0 W/m² 4,2 °C 6,4 °C 8,0 km/h (2 Bft)
27.12.2023 16:53 22,2 °C 6,4 °C 55 % 86 % 1017,2 hPa 0,0 l/m² 7,0 km/h (2 Bft) O 89 ° 0 min 0 W/m² 4,2 °C 5,9 °C 11,3 km/h (2 Bft)
27.12.2023 16:54 22,2 °C 6,4 °C 54 % 86 % 1017,2 hPa 0,0 l/m² 6,6 km/h (2 Bft) O 89 ° 0 min 0 W/m² 4,2 °C 6,3 °C 8,0 km/h (2 Bft)
27.12.2023 16:55 22,2 °C 6,4 °C 54 % 86 % 1017,2 hPa 0,0 l/m² 5,5 km/h (2 Bft) O 89 ° 0 min 0 W/m² 4,2 °C 6,4 °C 6,4 km/h (2 Bft)
27.12.2023 16:56 22,2 °C 6,4 °C 55 % 86 % 1017,2 hPa 0,0 l/m² 5,8 km/h (2 Bft) O 89 ° 0 min 0 W/m² 4,2 °C 6,4 °C 8,0 km/h (2 Bft)
27.12.2023 16:57 22,2 °C 6,4 °C 54 % 86 % 1017,2 hPa 0,0 l/m² 5,1 km/h (1 Bft) O 89 ° 0 min 0 W/m² 4,2 °C 6,4 °C 6,4 km/h (2 Bft)
27.12.2023 16:58 22,2 °C 6,4 °C 55 % 86 % 1017,2 hPa 0,0 l/m² 6,9 km/h (2 Bft) O 88 ° 0 min 0 W/m² 4,2 °C 6,0 °C 8,0 km/h (2 Bft)
27.12.2023 16:59 22,2 °C 6,4 °C 55 % 86 % 1017,2 hPa 0,0 l/m² 4,7 km/h (1 Bft) O 89 ° 0 min 0 W/m² 4,2 °C 6,4 °C 6,4 km/h (2 Bft)
27.12.2023 17:00 22,2 °C 6,4 °C 55 % 86 % 1017,1 hPa 0,0 l/m² 8,1 km/h (2 Bft) O 88 ° 0 min 0 W/m² 4,2 °C 5,0 °C 11,3 km/h (2 Bft)
27.12.2023 17:02 22,2 °C 6,4 °C 54 % 86 % 1017,0 hPa 0,0 l/m² 6,6 km/h (2 Bft) O 83 ° 0 min 0 W/m² 4,2 °C 6,3 °C 11,3 km/h (2 Bft)
27.12.2023 17:03 22,2 °C 6,4 °C 54 % 86 % 1017,0 hPa 0,0 l/m² 6,4 km/h (2 Bft) O-NO 71 ° 0 min 0 W/m² 4,2 °C 6,4 °C 8,0 km/h (2 Bft)
27.12.2023 17:04 22,2 °C 6,4 °C 54 % 86 % 1016,9 hPa 0,0 l/m² 6,8 km/h (2 Bft) O-NO 74 ° 0 min 0 W/m² 4,2 °C 6,1 °C 11,3 km/h (2 Bft)
27.12.2023 17:05 22,2 °C 6,4 °C 54 % 86 % 1016,9 hPa 0,0 l/m² 6,4 km/h (2 Bft) O-NO 74 ° 0 min 0 W/m² 4,2 °C 6,4 °C 8,0 km/h (2 Bft)
27.12.2023 17:06 22,2 °C 6,4 °C 54 % 86 % 1016,9 hPa 0,0 l/m² 4,3 km/h (1 Bft) O-NO 74 ° 0 min 0 W/m² 4,2 °C 6,4 °C 6,4 km/h (2 Bft)
27.12.2023 17:07 22,2 °C 6,4 °C 54 % 86 % 1017,0 hPa 0,0 l/m² 5,3 km/h (1 Bft) O-NO 74 ° 0 min 0 W/m² 4,2 °C 6,4 °C 8,0 km/h (2 Bft)
27.12.2023 17:08 22,2 °C 6,4 °C 54 % 86 % 1017,1 hPa 0,0 l/m² 3,7 km/h (1 Bft) O-NO 74 ° 0 min 0 W/m² 4,2 °C 6,4 °C 6,4 km/h (2 Bft)
27.12.2023 17:09 22,2 °C 6,4 °C 54 % 86 % 1017,0 hPa 0,0 l/m² 5,2 km/h (1 Bft) O-NO 73 ° 0 min 0 W/m² 4,2 °C 6,4 °C 8,0 km/h (2 Bft)
27.12.2023 17:11 22,2 °C 6,4 °C 54 % 86 % 1016,9 hPa 0,0 l/m² 5,3 km/h (1 Bft) O-NO 72 ° 0 min 0 W/m² 4,2 °C 6,4 °C 11,3 km/h (2 Bft)
27.12.2023 17:13 22,2 °C 6,4 °C 54 % 86 % 1016,9 hPa 0,0 l/m² 5,3 km/h (1 Bft) O-NO 67 ° 0 min 0 W/m² 4,2 °C 6,4 °C 12,9 km/h (3 Bft)
27.12.2023 17:14 22,2 °C 6,4 °C 54 % 86 % 1016,8 hPa 0,0 l/m² 3,0 km/h (1 Bft) O-NO 67 ° 0 min 0 W/m² 4,2 °C 6,4 °C 6,4 km/h (2 Bft)
27.12.2023 17:15 22,2 °C 6,4 °C 54 % 86 % 1016,9 hPa 0,0 l/m² 4,4 km/h (1 Bft) O-NO 68 ° 0 min 0 W/m² 4,2 °C 6,4 °C 6,4 km/h (2 Bft)
27.12.2023 17:16 22,2 °C 6,4 °C 54 % 86 % 1016,8 hPa 0,0 l/m² 5,5 km/h (2 Bft) O-NO 69 ° 0 min 0 W/m² 4,2 °C 6,4 °C 8,0 km/h (2 Bft)
27.12.2023 17:17 22,2 °C 6,4 °C 54 % 86 % 1016,8 hPa 0,0 l/m² 4,1 km/h (1 Bft) O-NO 69 ° 0 min 0 W/m² 4,2 °C 6,4 °C 6,4 km/h (2 Bft)
27.12.2023 17:18 22,2 °C 6,4 °C 54 % 86 % 1016,9 hPa 0,0 l/m² 5,3 km/h (1 Bft) O-NO 69 ° 0 min 0 W/m² 4,2 °C 6,4 °C 6,4 km/h (2 Bft)
27.12.2023 17:19 22,2 °C 6,4 °C 54 % 86 % 1016,8 hPa 0,0 l/m² 8,0 km/h (2 Bft) O-NO 74 ° 0 min 0 W/m² 4,2 °C 5,1 °C 9,7 km/h (2 Bft)
27.12.2023 17:21 22,2 °C 6,4 °C 54 % 86 % 1016,7 hPa 0,0 l/m² 7,0 km/h (2 Bft) O-NO 74 ° 0 min 0 W/m² 4,2 °C 5,9 °C 11,3 km/h (2 Bft)
27.12.2023 17:23 22,2 °C 6,4 °C 54 % 86 % 1016,8 hPa 0,0 l/m² 6,9 km/h (2 Bft) O-NO 74 ° 0 min 0 W/m² 4,2 °C 6,0 °C 11,3 km/h (2 Bft)
27.12.2023 17:24 22,2 °C 6,4 °C 54 % 86 % 1016,8 hPa 0,0 l/m² 6,6 km/h (2 Bft) O-NO 74 ° 0 min 0 W/m² 4,2 °C 6,3 °C 8,0 km/h (2 Bft)
27.12.2023 17:25 22,2 °C 6,4 °C 54 % 86 % 1016,8 hPa 0,0 l/m² 6,4 km/h (2 Bft) O-NO 74 ° 0 min 0 W/m² 4,2 °C 6,4 °C 8,0 km/h (2 Bft)
27.12.2023 17:26 22,2 °C 6,4 °C 54 % 86 % 1016,7 hPa 0,0 l/m² 7,4 km/h (2 Bft) O-NO 74 ° 0 min 0 W/m² 4,2 °C 5,6 °C 11,3 km/h (2 Bft)
27.12.2023 17:27 22,2 °C 6,4 °C 54 % 86 % 1016,8 hPa 0,0 l/m² 5,6 km/h (2 Bft) O-NO 74 ° 0 min 0 W/m² 4,2 °C 6,4 °C 8,0 km/h (2 Bft)
27.12.2023 17:28 22,2 °C 6,4 °C 54 % 87 % 1016,6 hPa 0,0 l/m² 6,0 km/h (2 Bft) O-NO 74 ° 0 min 0 W/m² 4,4 °C 6,4 °C 8,0 km/h (2 Bft)
27.12.2023 17:29 22,2 °C 6,4 °C 54 % 87 % 1016,7 hPa 0,0 l/m² 8,7 km/h (2 Bft) O-NO 75 ° 0 min 0 W/m² 4,4 °C 4,5 °C 11,3 km/h (2 Bft)
27.12.2023 17:31 22,2 °C 6,4 °C 54 % 87 % 1016,6 hPa 0,0 l/m² 6,0 km/h (2 Bft) O-NO 75 ° 0 min 0 W/m² 4,4 °C 6,4 °C 8,0 km/h (2 Bft)
27.12.2023 17:33 22,2 °C 6,4 °C 54 % 87 % 1016,6 hPa 0,0 l/m² 6,8 km/h (2 Bft) O-NO 74 ° 0 min 0 W/m² 4,4 °C 6,1 °C 11,3 km/h (2 Bft)
27.12.2023 17:34 22,2 °C 6,5 °C 54 % 87 % 1016,5 hPa 0,0 l/m² 7,8 km/h (2 Bft) O-NO 74 ° 0 min 0 W/m² 4,5 °C 5,3 °C 11,3 km/h (2 Bft)
27.12.2023 17:35 22,2 °C 6,4 °C 54 % 87 % 1016,5 hPa 0,0 l/m² 8,0 km/h (2 Bft) O-NO 74 ° 0 min 0 W/m² 4,4 °C 5,1 °C 11,3 km/h (2 Bft)
27.12.2023 17:36 22,2 °C 6,4 °C 54 % 87 % 1016,5 hPa 0,0 l/m² 5,1 km/h (1 Bft) O-NO 74 ° 0 min 0 W/m² 4,4 °C 6,4 °C 8,0 km/h (2 Bft)
27.12.2023 17:37 22,2 °C 6,5 °C 54 % 87 % 1016,6 hPa 0,0 l/m² 6,8 km/h (2 Bft) O-NO 74 ° 0 min 0 W/m² 4,5 °C 6,2 °C 8,0 km/h (2 Bft)
27.12.2023 17:38 22,2 °C 6,5 °C 54 % 87 % 1016,6 hPa 0,0 l/m² 8,5 km/h (2 Bft) O-NO 74 ° 0 min 0 W/m² 4,5 °C 4,8 °C 11,3 km/h (2 Bft)
27.12.2023 17:39 22,2 °C 6,5 °C 54 % 86 % 1016,6 hPa 0,0 l/m² 6,0 km/h (2 Bft) O-NO 73 ° 0 min 0 W/m² 4,3 °C 6,5 °C 8,0 km/h (2 Bft)
27.12.2023 17:40 22,2 °C 6,5 °C 54 % 86 % 1016,6 hPa 0,0 l/m² 5,8 km/h (2 Bft) O-NO 73 ° 0 min 0 W/m² 4,3 °C 6,5 °C 8,0 km/h (2 Bft)
27.12.2023 17:42 22,2 °C 6,5 °C 54 % 86 % 1016,4 hPa 0,0 l/m² 7,4 km/h (2 Bft) O-NO 75 ° 0 min 0 W/m² 4,3 °C 5,7 °C 12,9 km/h (3 Bft)
27.12.2023 17:43 22,2 °C 6,5 °C 54 % 86 % 1016,5 hPa 0,0 l/m² 5,7 km/h (2 Bft) O-NO 75 ° 0 min 0 W/m² 4,3 °C 6,5 °C 11,3 km/h (2 Bft)
27.12.2023 17:44 22,2 °C 6,5 °C 54 % 86 % 1016,5 hPa 0,0 l/m² 5,2 km/h (1 Bft) O-NO 74 ° 0 min 0 W/m² 4,3 °C 6,5 °C 8,0 km/h (2 Bft)
27.12.2023 17:45 22,2 °C 6,5 °C 54 % 86 % 1016,5 hPa 0,0 l/m² 4,2 km/h (1 Bft) O-NO 74 ° 0 min 0 W/m² 4,3 °C 6,5 °C 4,8 km/h (1 Bft)
27.12.2023 17:46 22,2 °C 6,5 °C 54 % 86 % 1016,5 hPa 0,0 l/m² 4,3 km/h (1 Bft) O-NO 74 ° 0 min 0 W/m² 4,3 °C 6,5 °C 6,4 km/h (2 Bft)
27.12.2023 17:47 22,2 °C 6,5 °C 54 % 86 % 1016,5 hPa 0,0 l/m² 4,6 km/h (1 Bft) O-NO 74 ° 0 min 0 W/m² 4,3 °C 6,5 °C 6,4 km/h (2 Bft)
27.12.2023 17:48 22,2 °C 6,5 °C 54 % 86 % 1016,5 hPa 0,0 l/m² 5,6 km/h (2 Bft) O-NO 74 ° 0 min 0 W/m² 4,3 °C 6,5 °C 8,0 km/h (2 Bft)
27.12.2023 17:49 22,2 °C 6,5 °C 54 % 86 % 1016,6 hPa 0,0 l/m² 6,0 km/h (2 Bft) O-NO 74 ° 0 min 0 W/m² 4,3 °C 6,5 °C 8,0 km/h (2 Bft)
27.12.2023 17:51 22,2 °C 6,5 °C 54 % 86 % 1016,5 hPa 0,0 l/m² 4,0 km/h (1 Bft) O-NO 74 ° 0 min 0 W/m² 4,3 °C 6,5 °C 6,4 km/h (2 Bft)
27.12.2023 17:53 22,2 °C 6,5 °C 54 % 86 % 1016,5 hPa 0,0 l/m² 5,6 km/h (2 Bft) O-NO 75 ° 0 min 0 W/m² 4,3 °C 6,5 °C 8,0 km/h (2 Bft)
27.12.2023 17:54 22,2 °C 6,5 °C 54 % 86 % 1016,4 hPa 0,0 l/m² 6,2 km/h (2 Bft) O-NO 75 ° 0 min 0 W/m² 4,3 °C 6,5 °C 8,0 km/h (2 Bft)
27.12.2023 17:55 22,2 °C 6,4 °C 54 % 86 % 1016,4 hPa 0,0 l/m² 7,4 km/h (2 Bft) O-NO 76 ° 0 min 0 W/m² 4,2 °C 5,6 °C 11,3 km/h (2 Bft)
27.12.2023 17:56 22,2 °C 6,4 °C 54 % 86 % 1016,3 hPa 0,0 l/m² 7,2 km/h (2 Bft) O-NO 76 ° 0 min 0 W/m² 4,2 °C 5,7 °C 11,3 km/h (2 Bft)
27.12.2023 17:57 22,2 °C 6,4 °C 54 % 86 % 1016,2 hPa 0,0 l/m² 6,7 km/h (2 Bft) O-NO 77 ° 0 min 0 W/m² 4,2 °C 6,2 °C 11,3 km/h (2 Bft)
27.12.2023 17:58 22,2 °C 6,4 °C 53 % 86 % 1016,3 hPa 0,0 l/m² 7,4 km/h (2 Bft) O-NO 78 ° 0 min 0 W/m² 4,2 °C 5,6 °C 11,3 km/h (2 Bft)
27.12.2023 17:59 22,2 °C 6,3 °C 53 % 87 % 1016,2 hPa 0,0 l/m² 7,1 km/h (2 Bft) O-NO 78 ° 0 min 0 W/m² 4,3 °C 5,7 °C 8,0 km/h (2 Bft)
27.12.2023 18:01 22,2 °C 6,3 °C 52 % 87 % 1016,1 hPa 0,0 l/m² 6,5 km/h (2 Bft) O-NO 78 ° 0 min 0 W/m² 4,3 °C 6,2 °C 11,3 km/h (2 Bft)
27.12.2023 18:03 22,2 °C 6,3 °C 52 % 87 % 1016,2 hPa 0,0 l/m² 6,0 km/h (2 Bft) O-NO 78 ° 0 min 0 W/m² 4,3 °C 6,3 °C 8,0 km/h (2 Bft)
27.12.2023 18:04 22,2 °C 6,2 °C 53 % 87 % 1016,2 hPa 0,0 l/m² 6,8 km/h (2 Bft) O-NO 78 ° 0 min 0 W/m² 4,2 °C 5,9 °C 8,0 km/h (2 Bft)
27.12.2023 18:05 22,2 °C 6,2 °C 53 % 87 % 1016,2 hPa 0,0 l/m² 6,1 km/h (2 Bft) O-NO 78 ° 0 min 0 W/m² 4,2 °C 6,2 °C 8,0 km/h (2 Bft)
27.12.2023 18:06 22,1 °C 6,2 °C 53 % 87 % 1016,2 hPa 0,0 l/m² 6,2 km/h (2 Bft) O-NO 78 ° 0 min 0 W/m² 4,2 °C 6,2 °C 8,0 km/h (2 Bft)
27.12.2023 18:07 22,1 °C 6,2 °C 53 % 87 % 1016,3 hPa 0,0 l/m² 5,1 km/h (1 Bft) O-NO 78 ° 0 min 0 W/m² 4,2 °C 6,2 °C 6,4 km/h (2 Bft)
27.12.2023 18:08 22,2 °C 6,2 °C 53 % 87 % 1016,2 hPa 0,0 l/m² 6,4 km/h (2 Bft) O-NO 78 ° 0 min 0 W/m² 4,2 °C 6,2 °C 11,3 km/h (2 Bft)
27.12.2023 18:09 22,1 °C 6,2 °C 53 % 87 % 1016,2 hPa 0,0 l/m² 6,9 km/h (2 Bft) O-NO 78 ° 0 min 0 W/m² 4,2 °C 5,8 °C 11,3 km/h (2 Bft)
27.12.2023 18:11 22,1 °C 6,2 °C 53 % 87 % 1016,1 hPa 0,0 l/m² 8,1 km/h (2 Bft) O 79 ° 0 min 0 W/m² 4,2 °C 4,8 °C 12,9 km/h (3 Bft)
27.12.2023 18:13 22,1 °C 6,1 °C 51 % 87 % 1016,0 hPa 0,0 l/m² 7,9 km/h (2 Bft) O 79 ° 0 min 0 W/m² 4,1 °C 4,8 °C 11,3 km/h (2 Bft)
27.12.2023 18:14 22,1 °C 6,1 °C 50 % 87 % 1016,1 hPa 0,0 l/m² 10,7 km/h (2 Bft) O 79 ° 0 min 0 W/m² 4,1 °C 2,8 °C 12,9 km/h (3 Bft)
27.12.2023 18:15 22,1 °C 6,1 °C 49 % 87 % 1015,9 hPa 0,0 l/m² 10,1 km/h (2 Bft) O 80 ° 0 min 0 W/m² 4,1 °C 3,2 °C 12,9 km/h (3 Bft)
27.12.2023 18:16 22,1 °C 6,1 °C 47 % 87 % 1016,0 hPa 0,0 l/m² 10,0 km/h (2 Bft) O 79 ° 0 min 0 W/m² 4,1 °C 3,3 °C 14,5 km/h (3 Bft)
27.12.2023 18:17 22,1 °C 6,1 °C 48 % 87 % 1015,9 hPa 0,0 l/m² 9,8 km/h (2 Bft) O-NO 75 ° 0 min 0 W/m² 4,1 °C 3,4 °C 12,9 km/h (3 Bft)
27.12.2023 18:18 22,0 °C 6,1 °C 48 % 87 % 1015,8 hPa 0,0 l/m² 12,3 km/h (2 Bft) O-NO 78 ° 0 min 0 W/m² 4,1 °C 1,8 °C 16,1 km/h (3 Bft)
27.12.2023 18:19 21,9 °C 6,1 °C 48 % 87 % 1015,8 hPa 0,0 l/m² 11,4 km/h (2 Bft) O-NO 76 ° 0 min 0 W/m² 4,1 °C 2,4 °C 14,5 km/h (3 Bft)
27.12.2023 18:20 21,9 °C 6,0 °C 48 % 87 % 1015,7 hPa 0,0 l/m² 9,8 km/h (2 Bft) O 79 ° 0 min 0 W/m² 4,0 °C 3,3 °C 14,5 km/h (3 Bft)
27.12.2023 18:22 21,9 °C 6,0 °C 48 % 87 % 1015,7 hPa 0,0 l/m² 11,4 km/h (2 Bft) O 79 ° 0 min 0 W/m² 4,0 °C 2,3 °C 16,1 km/h (3 Bft)
27.12.2023 18:23 21,9 °C 6,0 °C 48 % 87 % 1015,7 hPa 0,0 l/m² 12,8 km/h (3 Bft) O 79 ° 0 min 0 W/m² 4,0 °C 1,4 °C 14,5 km/h (3 Bft)
27.12.2023 18:24 21,9 °C 5,9 °C 49 % 87 % 1015,6 hPa 0,0 l/m² 9,1 km/h (2 Bft) O 79 ° 0 min 0 W/m² 3,9 °C 3,7 °C 12,9 km/h (3 Bft)
27.12.2023 18:25 21,9 °C 5,9 °C 49 % 87 % 1015,7 hPa 0,0 l/m² 8,1 km/h (2 Bft) O-NO 78 ° 0 min 0 W/m² 3,9 °C 4,5 °C 11,3 km/h (2 Bft)
27.12.2023 18:27 21,9 °C 5,9 °C 50 % 87 % 1015,6 hPa 0,0 l/m² 11,0 km/h (2 Bft) O-NO 77 ° 0 min 0 W/m² 3,9 °C 2,4 °C 14,5 km/h (3 Bft)
27.12.2023 18:28 21,9 °C 5,9 °C 50 % 87 % 1015,6 hPa 0,0 l/m² 9,6 km/h (2 Bft) O-NO 78 ° 0 min 0 W/m² 3,9 °C 3,3 °C 12,9 km/h (3 Bft)
27.12.2023 18:29 21,9 °C 5,9 °C 50 % 88 % 1015,7 hPa 0,0 l/m² 8,0 km/h (2 Bft) O 80 ° 0 min 0 W/m² 4,1 °C 4,5 °C 11,3 km/h (2 Bft)
27.12.2023 18:31 21,9 °C 5,8 °C 50 % 88 % 1015,7 hPa 0,0 l/m² 7,4 km/h (2 Bft) O 80 ° 0 min 0 W/m² 4,0 °C 4,9 °C 11,3 km/h (2 Bft)
27.12.2023 18:33 21,9 °C 5,8 °C 50 % 87 % 1015,6 hPa 0,0 l/m² 9,7 km/h (2 Bft) O 79 ° 0 min 0 W/m² 3,8 °C 3,2 °C 12,9 km/h (3 Bft)
27.12.2023 18:34 21,9 °C 5,8 °C 50 % 88 % 1015,6 hPa 0,0 l/m² 8,8 km/h (2 Bft) O 80 ° 0 min 0 W/m² 4,0 °C 3,8 °C 12,9 km/h (3 Bft)
27.12.2023 18:35 21,9 °C 5,7 °C 51 % 88 % 1015,6 hPa 0,0 l/m² 7,5 km/h (2 Bft) O 82 ° 0 min 0 W/m² 3,9 °C 4,8 °C 11,3 km/h (2 Bft)
27.12.2023 18:36 21,9 °C 5,7 °C 51 % 88 % 1015,6 hPa 0,0 l/m² 8,8 km/h (2 Bft) O 83 ° 0 min 0 W/m² 3,9 °C 3,7 °C 11,3 km/h (2 Bft)
27.12.2023 18:37 21,9 °C 5,7 °C 51 % 88 % 1015,6 hPa 0,0 l/m² 8,1 km/h (2 Bft) O 83 ° 0 min 0 W/m² 3,9 °C 4,3 °C 11,3 km/h (2 Bft)
27.12.2023 18:38 21,9 °C 5,7 °C 51 % 88 % 1015,6 hPa 0,0 l/m² 5,2 km/h (1 Bft) O 83 ° 0 min 0 W/m² 3,9 °C 5,7 °C 8,0 km/h (2 Bft)
27.12.2023 18:39 21,9 °C 5,7 °C 51 % 88 % 1015,5 hPa 0,0 l/m² 5,5 km/h (2 Bft) O 82 ° 0 min 0 W/m² 3,9 °C 5,7 °C 8,0 km/h (2 Bft)
27.12.2023 18:40 21,9 °C 5,7 °C 51 % 88 % 1015,6 hPa 0,0 l/m² 7,9 km/h (2 Bft) O 84 ° 0 min 0 W/m² 3,9 °C 4,4 °C 11,3 km/h (2 Bft)
27.12.2023 18:41 21,9 °C 5,7 °C 51 % 88 % 1015,6 hPa 0,0 l/m² 7,1 km/h (2 Bft) O 84 ° 0 min 0 W/m² 3,9 °C 5,1 °C 11,3 km/h (2 Bft)
27.12.2023 18:42 21,9 °C 5,6 °C 51 % 88 % 1015,6 hPa 0,0 l/m² 6,0 km/h (2 Bft) O 84 ° 0 min 0 W/m² 3,8 °C 5,6 °C 8,0 km/h (2 Bft)
27.12.2023 18:43 21,9 °C 5,6 °C 51 % 88 % 1015,6 hPa 0,0 l/m² 6,6 km/h (2 Bft) O 84 ° 0 min 0 W/m² 3,8 °C 5,4 °C 8,0 km/h (2 Bft)
27.12.2023 18:44 21,9 °C 5,6 °C 51 % 88 % 1015,6 hPa 0,0 l/m² 6,4 km/h (2 Bft) O 84 ° 0 min 0 W/m² 3,8 °C 5,6 °C 8,0 km/h (2 Bft)
27.12.2023 18:47 21,9 °C 5,6 °C 51 % 88 % 1015,5 hPa 0,0 l/m² 4,9 km/h (1 Bft) O 84 ° 0 min 0 W/m² 3,8 °C 5,6 °C 6,4 km/h (2 Bft)
27.12.2023 18:48 21,9 °C 5,6 °C 51 % 88 % 1015,4 hPa 0,0 l/m² 5,1 km/h (1 Bft) O 84 ° 0 min 0 W/m² 3,8 °C 5,6 °C 6,4 km/h (2 Bft)
27.12.2023 18:49 21,9 °C 5,6 °C 51 % 88 % 1015,5 hPa 0,0 l/m² 4,7 km/h (1 Bft) O 84 ° 0 min 0 W/m² 3,8 °C 5,6 °C 6,4 km/h (2 Bft)
27.12.2023 18:51 21,9 °C 5,6 °C 52 % 88 % 1015,6 hPa 0,0 l/m² 5,2 km/h (1 Bft) O 84 ° 0 min 0 W/m² 3,8 °C 5,6 °C 8,0 km/h (2 Bft)
27.12.2023 18:53 21,9 °C 5,5 °C 52 % 88 % 1015,5 hPa 0,0 l/m² 5,3 km/h (1 Bft) O 84 ° 0 min 0 W/m² 3,7 °C 5,5 °C 8,0 km/h (2 Bft)
27.12.2023 18:54 21,9 °C 5,5 °C 52 % 88 % 1015,6 hPa 0,0 l/m² 5,7 km/h (2 Bft) O 84 ° 0 min 0 W/m² 3,7 °C 5,5 °C 8,0 km/h (2 Bft)
27.12.2023 18:55 21,9 °C 5,5 °C 52 % 88 % 1015,6 hPa 0,0 l/m² 3,5 km/h (1 Bft) O 84 ° 0 min 0 W/m² 3,7 °C 5,5 °C 6,4 km/h (2 Bft)
27.12.2023 18:56 22,0 °C 5,5 °C 52 % 88 % 1015,6 hPa 0,0 l/m² 2,4 km/h (1 Bft) O 84 ° 0 min 0 W/m² 3,7 °C 5,5 °C 4,8 km/h (1 Bft)
27.12.2023 18:57 22,0 °C 5,5 °C 52 % 88 % 1015,7 hPa 0,0 l/m² 1,9 km/h (1 Bft) O 84 ° 0 min 0 W/m² 3,7 °C 5,5 °C 3,2 km/h (1 Bft)
27.12.2023 18:58 22,0 °C 5,5 °C 52 % 88 % 1015,7 hPa 0,0 l/m² 0,4 km/h (0 Bft) O 84 ° 0 min 0 W/m² 3,7 °C 5,5 °C 1,6 km/h (1 Bft)
27.12.2023 18:59 21,9 °C 5,5 °C 52 % 88 % 1015,8 hPa 0,0 l/m² 0,0 km/h (0 Bft) O 84 ° 0 min 0 W/m² 3,7 °C 5,5 °C 0,0 km/h (0 Bft)
27.12.2023 19:01 22,0 °C 5,5 °C 52 % 88 % 1015,8 hPa 0,0 l/m² 0,3 km/h (0 Bft) O 84 ° 0 min 0 W/m² 3,7 °C 5,5 °C 1,6 km/h (1 Bft)
27.12.2023 19:03 22,0 °C 5,4 °C 53 % 88 % 1015,8 hPa 0,0 l/m² 3,3 km/h (1 Bft) O 84 ° 0 min 0 W/m² 3,6 °C 5,4 °C 4,8 km/h (1 Bft)
27.12.2023 19:04 22,0 °C 5,5 °C 53 % 88 % 1015,8 hPa 0,0 l/m² 4,0 km/h (1 Bft) O 84 ° 0 min 0 W/m² 3,7 °C 5,5 °C 4,8 km/h (1 Bft)
27.12.2023 19:05 22,0 °C 5,4 °C 53 % 88 % 1015,7 hPa 0,0 l/m² 3,9 km/h (1 Bft) O 84 ° 0 min 0 W/m² 3,6 °C 5,4 °C 4,8 km/h (1 Bft)
27.12.2023 19:06 22,0 °C 5,4 °C 53 % 88 % 1015,8 hPa 0,0 l/m² 3,9 km/h (1 Bft) O 84 ° 0 min 0 W/m² 3,6 °C 5,4 °C 4,8 km/h (1 Bft)
27.12.2023 19:07 22,0 °C 5,4 °C 53 % 88 % 1015,8 hPa 0,0 l/m² 4,6 km/h (1 Bft) O 84 ° 0 min 0 W/m² 3,6 °C 5,4 °C 4,8 km/h (1 Bft)
27.12.2023 19:08 22,0 °C 5,4 °C 53 % 88 % 1015,8 hPa 0,0 l/m² 4,8 km/h (1 Bft) O 84 ° 0 min 0 W/m² 3,6 °C 5,4 °C 4,8 km/h (1 Bft)
27.12.2023 19:09 22,0 °C 5,4 °C 53 % 88 % 1015,8 hPa 0,0 l/m² 4,0 km/h (1 Bft) O 84 ° 0 min 0 W/m² 3,6 °C 5,4 °C 4,8 km/h (1 Bft)
27.12.2023 19:11 22,1 °C 5,3 °C 53 % 88 % 1015,8 hPa 0,0 l/m² 3,1 km/h (1 Bft) O 84 ° 0 min 0 W/m² 3,5 °C 5,3 °C 4,8 km/h (1 Bft)
27.12.2023 19:13 22,0 °C 5,3 °C 53 % 89 % 1015,8 hPa 0,0 l/m² 2,8 km/h (1 Bft) O 84 ° 0 min 0 W/m² 3,6 °C 5,3 °C 4,8 km/h (1 Bft)
27.12.2023 19:14 22,1 °C 5,4 °C 53 % 89 % 1015,8 hPa 0,0 l/m² 3,9 km/h (1 Bft) O 84 ° 0 min 0 W/m² 3,7 °C 5,4 °C 6,4 km/h (2 Bft)
27.12.2023 19:15 22,1 °C 5,3 °C 53 % 89 % 1015,7 hPa 0,0 l/m² 4,0 km/h (1 Bft) O 84 ° 0 min 0 W/m² 3,6 °C 5,3 °C 6,4 km/h (2 Bft)
27.12.2023 19:16 22,1 °C 5,4 °C 53 % 89 % 1015,7 hPa 0,0 l/m² 4,6 km/h (1 Bft) O 84 ° 0 min 0 W/m² 3,7 °C 5,4 °C 8,0 km/h (2 Bft)
27.12.2023 19:17 22,0 °C 5,4 °C 53 % 89 % 1015,8 hPa 0,0 l/m² 3,4 km/h (1 Bft) O 84 ° 0 min 0 W/m² 3,7 °C 5,4 °C 4,8 km/h (1 Bft)
27.12.2023 19:18 22,1 °C 5,4 °C 53 % 89 % 1015,8 hPa 0,0 l/m² 3,0 km/h (1 Bft) O 84 ° 0 min 0 W/m² 3,7 °C 5,4 °C 6,4 km/h (2 Bft)
27.12.2023 19:19 22,0 °C 5,4 °C 53 % 89 % 1015,7 hPa 0,0 l/m² 3,8 km/h (1 Bft) O 84 ° 0 min 0 W/m² 3,7 °C 5,4 °C 6,4 km/h (2 Bft)
27.12.2023 19:20 22,1 °C 5,4 °C 53 % 89 % 1015,7 hPa 0,0 l/m² 4,3 km/h (1 Bft) O 84 ° 0 min 0 W/m² 3,7 °C 5,4 °C 4,8 km/h (1 Bft)
27.12.2023 19:21 22,1 °C 5,4 °C 53 % 89 % 1015,8 hPa 0,0 l/m² 3,2 km/h (1 Bft) O 84 ° 0 min 0 W/m² 3,7 °C 5,4 °C 6,4 km/h (2 Bft)
27.12.2023 19:22 22,1 °C 5,4 °C 53 % 89 % 1015,8 hPa 0,0 l/m² 0,0 km/h (0 Bft) O 84 ° 0 min 0 W/m² 3,7 °C 5,4 °C 0,0 km/h (0 Bft)
27.12.2023 19:23 22,1 °C 5,4 °C 53 % 89 % 1015,7 hPa 0,0 l/m² 0,6 km/h (0 Bft) O 84 ° 0 min 0 W/m² 3,7 °C 5,4 °C 3,2 km/h (1 Bft)
27.12.2023 19:24 22,0 °C 5,4 °C 53 % 89 % 1015,7 hPa 0,0 l/m² 0,0 km/h (0 Bft) O 84 ° 0 min 0 W/m² 3,7 °C 5,4 °C 0,0 km/h (0 Bft)
27.12.2023 19:25 22,0 °C 5,4 °C 53 % 89 % 1015,6 hPa 0,0 l/m² 0,4 km/h (0 Bft) O 84 ° 0 min 0 W/m² 3,7 °C 5,4 °C 1,6 km/h (1 Bft)
27.12.2023 19:26 22,1 °C 5,4 °C 54 % 89 % 1015,6 hPa 0,0 l/m² 0,8 km/h (0 Bft) O 84 ° 0 min 0 W/m² 3,7 °C 5,4 °C 1,6 km/h (1 Bft)
27.12.2023 19:27 22,1 °C 5,4 °C 54 % 89 % 1015,6 hPa 0,0 l/m² 1,1 km/h (1 Bft) O 84 ° 0 min 0 W/m² 3,7 °C 5,4 °C 3,2 km/h (1 Bft)
27.12.2023 19:28 22,1 °C 5,4 °C 54 % 89 % 1015,5 hPa 0,0 l/m² 1,0 km/h (0 Bft) O 84 ° 0 min 0 W/m² 3,7 °C 5,4 °C 3,2 km/h (1 Bft)
27.12.2023 19:29 22,1 °C 5,4 °C 54 % 89 % 1015,5 hPa 0,0 l/m² 2,2 km/h (1 Bft) O 84 ° 0 min 0 W/m² 3,7 °C 5,4 °C 3,2 km/h (1 Bft)
27.12.2023 19:30 22,1 °C 5,4 °C 54 % 89 % 1015,4 hPa 0,0 l/m² 1,1 km/h (1 Bft) O 84 ° 0 min 0 W/m² 3,7 °C 5,4 °C 3,2 km/h (1 Bft)
27.12.2023 19:32 22,1 °C 5,3 °C 54 % 89 % 1015,4 hPa 0,0 l/m² 0,4 km/h (0 Bft) O 84 ° 0 min 0 W/m² 3,6 °C 5,3 °C 1,6 km/h (1 Bft)
27.12.2023 19:33 22,1 °C 5,3 °C 54 % 89 % 1015,4 hPa 0,0 l/m² 0,0 km/h (0 Bft) O 84 ° 0 min 0 W/m² 3,6 °C 5,3 °C 0,0 km/h (0 Bft)
27.12.2023 19:34 22,1 °C 5,3 °C 54 % 89 % 1015,4 hPa 0,0 l/m² 1,0 km/h (0 Bft) O 84 ° 0 min 0 W/m² 3,6 °C 5,3 °C 1,6 km/h (1 Bft)
27.12.2023 19:35 22,1 °C 5,3 °C 54 % 89 % 1015,4 hPa 0,0 l/m² 1,8 km/h (1 Bft) O 84 ° 0 min 0 W/m² 3,6 °C 5,3 °C 3,2 km/h (1 Bft)
27.12.2023 19:36 22,1 °C 5,3 °C 54 % 89 % 1015,3 hPa 0,0 l/m² 0,6 km/h (0 Bft) O 84 ° 0 min 0 W/m² 3,6 °C 5,3 °C 3,2 km/h (1 Bft)
27.12.2023 19:37 22,1 °C 5,3 °C 54 % 89 % 1015,3 hPa 0,0 l/m² 0,8 km/h (0 Bft) O 84 ° 0 min 0 W/m² 3,6 °C 5,3 °C 3,2 km/h (1 Bft)
27.12.2023 19:38 22,1 °C 5,3 °C 54 % 89 % 1015,3 hPa 0,0 l/m² 0,0 km/h (0 Bft) O 84 ° 0 min 0 W/m² 3,6 °C 5,3 °C 0,0 km/h (0 Bft)
27.12.2023 19:39 22,1 °C 5,3 °C 54 % 89 % 1015,4 hPa 0,0 l/m² 1,1 km/h (1 Bft) O 84 ° 0 min 0 W/m² 3,6 °C 5,3 °C 3,2 km/h (1 Bft)
27.12.2023 19:40 22,1 °C 5,3 °C 54 % 89 % 1015,4 hPa 0,0 l/m² 0,1 km/h (0 Bft) O 84 ° 0 min 0 W/m² 3,6 °C 5,3 °C 1,6 km/h (1 Bft)
27.12.2023 19:42 22,1 °C 5,3 °C 54 % 89 % 1015,3 hPa 0,0 l/m² 0,1 km/h (0 Bft) O 84 ° 0 min 0 W/m² 3,6 °C 5,3 °C 1,6 km/h (1 Bft)
27.12.2023 19:43 22,0 °C 5,3 °C 54 % 89 % 1015,2 hPa 0,0 l/m² 0,6 km/h (0 Bft) O 84 ° 0 min 0 W/m² 3,6 °C 5,3 °C 3,2 km/h (1 Bft)
27.12.2023 19:44 22,1 °C 5,3 °C 54 % 89 % 1015,2 hPa 0,0 l/m² 0,3 km/h (0 Bft) O 84 ° 0 min 0 W/m² 3,6 °C 5,3 °C 1,6 km/h (1 Bft)
27.12.2023 19:45 22,0 °C 5,3 °C 54 % 89 % 1015,1 hPa 0,0 l/m² 0,0 km/h (0 Bft) O 84 ° 0 min 0 W/m² 3,6 °C 5,3 °C 0,0 km/h (0 Bft)
27.12.2023 19:46 22,1 °C 5,3 °C 54 % 89 % 1015,1 hPa 0,0 l/m² 0,0 km/h (0 Bft) O 84 ° 0 min 0 W/m² 3,6 °C 5,3 °C 0,0 km/h (0 Bft)
27.12.2023 19:47 22,1 °C 5,3 °C 54 % 89 % 1015,1 hPa 0,0 l/m² 0,8 km/h (0 Bft) O 84 ° 0 min 0 W/m² 3,6 °C 5,3 °C 3,2 km/h (1 Bft)
27.12.2023 19:48 22,0 °C 5,3 °C 54 % 89 % 1015,0 hPa 0,0 l/m² 2,2 km/h (1 Bft) O 84 ° 0 min 0 W/m² 3,6 °C 5,3 °C 6,4 km/h (2 Bft)
27.12.2023 19:49 22,0 °C 5,3 °C 54 % 89 % 1015,1 hPa 0,0 l/m² 2,3 km/h (1 Bft) O 84 ° 0 min 0 W/m² 3,6 °C 5,3 °C 6,4 km/h (2 Bft)
27.12.2023 19:50 22,0 °C 5,3 °C 54 % 89 % 1015,1 hPa 0,0 l/m² 1,1 km/h (1 Bft) O 84 ° 0 min 0 W/m² 3,6 °C 5,3 °C 3,2 km/h (1 Bft)
27.12.2023 19:52 22,0 °C 5,3 °C 54 % 89 % 1015,0 hPa 0,0 l/m² 3,2 km/h (1 Bft) O 85 ° 0 min 0 W/m² 3,6 °C 5,3 °C 6,4 km/h (2 Bft)
27.12.2023 19:53 22,0 °C 5,3 °C 54 % 89 % 1015,1 hPa 0,0 l/m² 5,9 km/h (2 Bft) O 89 ° 0 min 0 W/m² 3,6 °C 5,3 °C 6,4 km/h (2 Bft)
27.12.2023 19:54 22,0 °C 5,3 °C 54 % 89 % 1015,0 hPa 0,0 l/m² 5,4 km/h (2 Bft) O 92 ° 0 min 0 W/m² 3,6 °C 5,3 °C 9,7 km/h (2 Bft)
27.12.2023 19:55 22,0 °C 5,3 °C 54 % 89 % 1015,0 hPa 0,0 l/m² 8,7 km/h (2 Bft) O-SO 120 ° 0 min 0 W/m² 3,6 °C 3,4 °C 11,3 km/h (2 Bft)
27.12.2023 19:56 22,0 °C 5,3 °C 54 % 89 % 1015,0 hPa 0,0 l/m² 10,8 km/h (2 Bft) O-SO 118 ° 0 min 0 W/m² 3,6 °C 1,9 °C 14,5 km/h (3 Bft)
27.12.2023 19:57 22,0 °C 5,4 °C 55 % 89 % 1014,9 hPa 0,0 l/m² 7,7 km/h (2 Bft) O-SO 123 ° 0 min 0 W/m² 3,7 °C 4,3 °C 11,3 km/h (2 Bft)
27.12.2023 19:58 21,9 °C 5,4 °C 54 % 89 % 1014,9 hPa 0,0 l/m² 7,3 km/h (2 Bft) SO 128 ° 0 min 0 W/m² 3,7 °C 4,6 °C 12,9 km/h (3 Bft)
27.12.2023 19:59 22,0 °C 5,4 °C 55 % 89 % 1014,8 hPa 0,0 l/m² 7,7 km/h (2 Bft) SO 124 ° 0 min 0 W/m² 3,7 °C 4,3 °C 12,9 km/h (3 Bft)
27.12.2023 20:01 22,0 °C 5,5 °C 55 % 90 % 1014,8 hPa 0,0 l/m² 9,8 km/h (2 Bft) SO 129 ° 0 min 0 W/m² 4,0 °C 2,8 °C 14,5 km/h (3 Bft)
27.12.2023 20:03 22,0 °C 5,6 °C 55 % 90 % 1014,8 hPa 0,0 l/m² 7,6 km/h (2 Bft) O-SO 123 ° 0 min 0 W/m² 4,1 °C 4,6 °C 12,9 km/h (3 Bft)
27.12.2023 20:04 22,0 °C 5,6 °C 55 % 90 % 1014,8 hPa 0,0 l/m² 13,0 km/h (3 Bft) SO 128 ° 0 min 0 W/m² 4,1 °C 0,9 °C 17,7 km/h (3 Bft)
27.12.2023 20:05 22,0 °C 5,7 °C 55 % 90 % 1014,8 hPa 0,0 l/m² 14,4 km/h (3 Bft) O-SO 121 ° 0 min 0 W/m² 4,2 °C 0,2 °C 17,7 km/h (3 Bft)
27.12.2023 20:06 22,0 °C 5,7 °C 55 % 90 % 1014,8 hPa 0,0 l/m² 9,6 km/h (2 Bft) SO 125 ° 0 min 0 W/m² 4,2 °C 3,1 °C 12,9 km/h (3 Bft)
27.12.2023 20:07 22,0 °C 5,7 °C 55 % 90 % 1014,8 hPa 0,0 l/m² 9,3 km/h (2 Bft) O-SO 118 ° 0 min 0 W/m² 4,2 °C 3,3 °C 11,3 km/h (2 Bft)
27.12.2023 20:08 22,0 °C 5,8 °C 55 % 90 % 1014,8 hPa 0,0 l/m² 6,6 km/h (2 Bft) O-SO 118 ° 0 min 0 W/m² 4,3 °C 5,7 °C 9,7 km/h (2 Bft)
27.12.2023 20:09 22,1 °C 5,8 °C 55 % 90 % 1014,8 hPa 0,0 l/m² 7,7 km/h (2 Bft) SO 130 ° 0 min 0 W/m² 4,3 °C 4,7 °C 11,3 km/h (2 Bft)
27.12.2023 20:10 22,0 °C 5,8 °C 55 % 90 % 1014,7 hPa 0,0 l/m² 6,2 km/h (2 Bft) SO 127 ° 0 min 0 W/m² 4,3 °C 5,8 °C 11,3 km/h (2 Bft)
27.12.2023 20:12 22,0 °C 5,9 °C 55 % 90 % 1014,7 hPa 0,0 l/m² 7,6 km/h (2 Bft) SO 126 ° 0 min 0 W/m² 4,4 °C 4,9 °C 12,9 km/h (3 Bft)
27.12.2023 20:13 22,0 °C 5,9 °C 55 % 90 % 1014,8 hPa 0,0 l/m² 6,2 km/h (2 Bft) SO 126 ° 0 min 0 W/m² 4,4 °C 5,9 °C 8,0 km/h (2 Bft)
27.12.2023 20:14 22,0 °C 5,9 °C 55 % 89 % 1014,7 hPa 0,0 l/m² 7,2 km/h (2 Bft) O-SO 123 ° 0 min 0 W/m² 4,2 °C 5,2 °C 11,3 km/h (2 Bft)
27.12.2023 20:15 22,0 °C 5,9 °C 55 % 89 % 1014,7 hPa 0,0 l/m² 8,0 km/h (2 Bft) O-SO 121 ° 0 min 0 W/m² 4,2 °C 4,5 °C 12,9 km/h (3 Bft)
27.12.2023 20:16 22,1 °C 5,9 °C 55 % 90 % 1014,7 hPa 0,0 l/m² 8,6 km/h (2 Bft) O-SO 121 ° 0 min 0 W/m² 4,4 °C 4,1 °C 11,3 km/h (2 Bft)
27.12.2023 20:17 22,1 °C 6,0 °C 55 % 90 % 1014,6 hPa 0,0 l/m² 8,0 km/h (2 Bft) O-SO 122 ° 0 min 0 W/m² 4,5 °C 4,7 °C 11,3 km/h (2 Bft)
27.12.2023 20:18 22,1 °C 6,0 °C 55 % 89 % 1014,7 hPa 0,0 l/m² 8,9 km/h (2 Bft) O-SO 116 ° 0 min 0 W/m² 4,3 °C 4,0 °C 12,9 km/h (3 Bft)
27.12.2023 20:19 22,1 °C 6,0 °C 56 % 89 % 1014,6 hPa 0,0 l/m² 7,6 km/h (2 Bft) O-SO 121 ° 0 min 0 W/m² 4,3 °C 5,0 °C 11,3 km/h (2 Bft)
27.12.2023 20:20 22,1 °C 6,1 °C 56 % 89 % 1014,5 hPa 0,0 l/m² 8,0 km/h (2 Bft) O-SO 115 ° 0 min 0 W/m² 4,4 °C 4,8 °C 11,3 km/h (2 Bft)
27.12.2023 20:22 22,2 °C 6,1 °C 56 % 89 % 1014,5 hPa 0,0 l/m² 8,9 km/h (2 Bft) O-SO 120 ° 0 min 0 W/m² 4,4 °C 4,1 °C 12,9 km/h (3 Bft)
27.12.2023 20:23 22,2 °C 6,1 °C 56 % 89 % 1014,5 hPa 0,0 l/m² 8,7 km/h (2 Bft) O-SO 121 ° 0 min 0 W/m² 4,4 °C 4,2 °C 12,9 km/h (3 Bft)
27.12.2023 20:24 22,2 °C 6,1 °C 56 % 89 % 1014,5 hPa 0,0 l/m² 7,7 km/h (2 Bft) O-SO 120 ° 0 min 0 W/m² 4,4 °C 5,0 °C 11,3 km/h (2 Bft)
27.12.2023 20:25 22,2 °C 6,1 °C 56 % 89 % 1014,4 hPa 0,0 l/m² 10,5 km/h (2 Bft) O-SO 121 ° 0 min 0 W/m² 4,4 °C 3,0 °C 14,5 km/h (3 Bft)
27.12.2023 20:26 22,3 °C 6,1 °C 56 % 89 % 1014,4 hPa 0,0 l/m² 10,0 km/h (2 Bft) SO 125 ° 0 min 0 W/m² 4,4 °C 3,3 °C 12,9 km/h (3 Bft)
27.12.2023 20:27 22,3 °C 6,1 °C 56 % 89 % 1014,4 hPa 0,0 l/m² 9,5 km/h (2 Bft) O-SO 120 ° 0 min 0 W/m² 4,4 °C 3,6 °C 12,9 km/h (3 Bft)
27.12.2023 20:28 22,3 °C 6,1 °C 56 % 89 % 1014,4 hPa 0,0 l/m² 4,8 km/h (1 Bft) O-SO 120 ° 0 min 0 W/m² 4,4 °C 6,1 °C 6,4 km/h (2 Bft)
27.12.2023 20:29 22,3 °C 6,1 °C 56 % 89 % 1014,4 hPa 0,0 l/m² 3,8 km/h (1 Bft) O-SO 120 ° 0 min 0 W/m² 4,4 °C 6,1 °C 4,8 km/h (1 Bft)
27.12.2023 20:31 22,3 °C 6,1 °C 56 % 89 % 1014,5 hPa 0,0 l/m² 4,9 km/h (1 Bft) O-SO 121 ° 0 min 0 W/m² 4,4 °C 6,1 °C 6,4 km/h (2 Bft)
27.12.2023 20:33 22,3 °C 6,1 °C 56 % 88 % 1014,4 hPa 0,0 l/m² 3,0 km/h (1 Bft) O-SO 121 ° 0 min 0 W/m² 4,3 °C 6,1 °C 4,8 km/h (1 Bft)
27.12.2023 20:34 22,4 °C 6,1 °C 56 % 89 % 1014,4 hPa 0,0 l/m² 2,5 km/h (1 Bft) O-SO 121 ° 0 min 0 W/m² 4,4 °C 6,1 °C 3,2 km/h (1 Bft)
27.12.2023 20:35 22,4 °C 6,1 °C 56 % 89 % 1014,4 hPa 0,0 l/m² 0,5 km/h (0 Bft) O-SO 121 ° 0 min 0 W/m² 4,4 °C 6,1 °C 1,6 km/h (1 Bft)
27.12.2023 20:36 22,4 °C 6,1 °C 56 % 88 % 1014,5 hPa 0,0 l/m² 0,9 km/h (0 Bft) O-SO 121 ° 0 min 0 W/m² 4,3 °C 6,1 °C 1,6 km/h (1 Bft)
27.12.2023 20:37 22,4 °C 6,1 °C 56 % 88 % 1014,5 hPa 0,0 l/m² 1,0 km/h (0 Bft) O-SO 121 ° 0 min 0 W/m² 4,3 °C 6,1 °C 3,2 km/h (1 Bft)
27.12.2023 20:38 22,4 °C 6,1 °C 56 % 88 % 1014,5 hPa 0,0 l/m² 0,6 km/h (0 Bft) O-SO 121 ° 0 min 0 W/m² 4,3 °C 6,1 °C 4,8 km/h (1 Bft)
27.12.2023 20:39 22,4 °C 6,1 °C 56 % 88 % 1014,5 hPa 0,0 l/m² 0,2 km/h (0 Bft) O-SO 121 ° 0 min 0 W/m² 4,3 °C 6,1 °C 1,6 km/h (1 Bft)
27.12.2023 20:41 22,5 °C 6,1 °C 56 % 88 % 1014,5 hPa 0,0 l/m² 0,0 km/h (0 Bft) O-SO 121 ° 0 min 0 W/m² 4,3 °C 6,1 °C 0,0 km/h (0 Bft)
27.12.2023 20:43 22,5 °C 6,0 °C 56 % 88 % 1014,4 hPa 0,0 l/m² 0,0 km/h (0 Bft) O-SO 121 ° 0 min 0 W/m² 4,2 °C 6,0 °C 0,0 km/h (0 Bft)
27.12.2023 20:44 22,6 °C 6,0 °C 56 % 88 % 1014,5 hPa 0,0 l/m² 0,0 km/h (0 Bft) O-SO 121 ° 0 min 0 W/m² 4,2 °C 6,0 °C 0,0 km/h (0 Bft)
27.12.2023 20:45 22,6 °C 6,0 °C 56 % 88 % 1014,5 hPa 0,0 l/m² 0,0 km/h (0 Bft) O-SO 121 ° 0 min 0 W/m² 4,2 °C 6,0 °C 0,0 km/h (0 Bft)
27.12.2023 20:46 22,6 °C 5,9 °C 56 % 88 % 1014,5 hPa 0,0 l/m² 0,0 km/h (0 Bft) O-SO 121 ° 0 min 0 W/m² 4,1 °C 5,9 °C 0,0 km/h (0 Bft)
27.12.2023 20:47 22,6 °C 5,9 °C 56 % 88 % 1014,5 hPa 0,0 l/m² 0,9 km/h (0 Bft) O-SO 121 ° 0 min 0 W/m² 4,1 °C 5,9 °C 1,6 km/h (1 Bft)
27.12.2023 20:48 22,6 °C 5,9 °C 56 % 88 % 1014,5 hPa 0,0 l/m² 2,8 km/h (1 Bft) O-SO 121 ° 0 min 0 W/m² 4,1 °C 5,9 °C 4,8 km/h (1 Bft)
27.12.2023 20:49 22,6 °C 5,9 °C 56 % 88 % 1014,4 hPa 0,0 l/m² 3,4 km/h (1 Bft) O-SO 121 ° 0 min 0 W/m² 4,1 °C 5,9 °C 6,4 km/h (2 Bft)
27.12.2023 20:50 22,6 °C 5,9 °C 56 % 88 % 1014,4 hPa 0,0 l/m² 3,9 km/h (1 Bft) O-SO 121 ° 0 min 0 W/m² 4,1 °C 5,9 °C 4,8 km/h (1 Bft)
27.12.2023 20:51 22,6 °C 5,9 °C 56 % 88 % 1014,3 hPa 0,0 l/m² 4,8 km/h (1 Bft) O-SO 121 ° 0 min 0 W/m² 4,1 °C 5,9 °C 6,4 km/h (2 Bft)
27.12.2023 20:52 22,6 °C 5,9 °C 56 % 88 % 1014,3 hPa 0,0 l/m² 4,7 km/h (1 Bft) O-SO 121 ° 0 min 0 W/m² 4,1 °C 5,9 °C 6,4 km/h (2 Bft)
27.12.2023 20:53 22,6 °C 5,8 °C 56 % 88 % 1014,3 hPa 0,0 l/m² 5,4 km/h (2 Bft) O-SO 121 ° 0 min 0 W/m² 4,0 °C 5,8 °C 6,4 km/h (2 Bft)
27.12.2023 20:54 22,6 °C 5,8 °C 56 % 88 % 1014,4 hPa 0,0 l/m² 5,0 km/h (1 Bft) O-SO 121 ° 0 min 0 W/m² 4,0 °C 5,8 °C 8,0 km/h (2 Bft)
27.12.2023 20:55 22,6 °C 5,8 °C 56 % 88 % 1014,4 hPa 0,0 l/m² 4,3 km/h (1 Bft) O-SO 121 ° 0 min 0 W/m² 4,0 °C 5,8 °C 4,8 km/h (1 Bft)
27.12.2023 20:56 22,6 °C 5,8 °C 56 % 88 % 1014,3 hPa 0,0 l/m² 4,4 km/h (1 Bft) O-SO 121 ° 0 min 0 W/m² 4,0 °C 5,8 °C 6,4 km/h (2 Bft)
27.12.2023 20:57 22,7 °C 5,8 °C 56 % 88 % 1014,4 hPa 0,0 l/m² 4,0 km/h (1 Bft) O-SO 121 ° 0 min 0 W/m² 4,0 °C 5,8 °C 6,4 km/h (2 Bft)
27.12.2023 20:58 22,7 °C 5,8 °C 56 % 88 % 1014,3 hPa 0,0 l/m² 4,9 km/h (1 Bft) O-SO 121 ° 0 min 0 W/m² 4,0 °C 5,8 °C 6,4 km/h (2 Bft)
27.12.2023 20:59 22,7 °C 5,8 °C 56 % 88 % 1014,3 hPa 0,0 l/m² 6,1 km/h (2 Bft) O-SO 121 ° 0 min 0 W/m² 4,0 °C 5,8 °C 8,0 km/h (2 Bft)
27.12.2023 21:00 22,7 °C 5,8 °C 55 % 88 % 1014,3 hPa 0,0 l/m² 6,9 km/h (2 Bft) O-SO 104 ° 0 min 0 W/m² 4,0 °C 5,4 °C 9,7 km/h (2 Bft)
27.12.2023 21:02 22,6 °C 5,7 °C 52 % 88 % 1014,2 hPa 0,0 l/m² 8,0 km/h (2 Bft) O 94 ° 0 min 0 W/m² 3,9 °C 4,3 °C 11,3 km/h (2 Bft)
27.12.2023 21:03 22,6 °C 5,8 °C 52 % 88 % 1014,2 hPa 0,0 l/m² 7,7 km/h (2 Bft) O 94 ° 0 min 0 W/m² 4,0 °C 4,7 °C 9,7 km/h (2 Bft)
27.12.2023 21:04 22,6 °C 5,8 °C 52 % 88 % 1014,1 hPa 0,0 l/m² 7,5 km/h (2 Bft) O 97 ° 0 min 0 W/m² 4,0 °C 4,9 °C 11,3 km/h (2 Bft)
27.12.2023 21:05 22,6 °C 5,7 °C 52 % 88 % 1014,3 hPa 0,0 l/m² 7,3 km/h (2 Bft) O 97 ° 0 min 0 W/m² 3,9 °C 4,9 °C 9,7 km/h (2 Bft)
27.12.2023 21:06 22,6 °C 5,7 °C 52 % 88 % 1014,2 hPa 0,0 l/m² 7,6 km/h (2 Bft) O 97 ° 0 min 0 W/m² 3,9 °C 4,7 °C 9,7 km/h (2 Bft)
27.12.2023 21:07 22,6 °C 5,7 °C 52 % 88 % 1014,2 hPa 0,0 l/m² 7,0 km/h (2 Bft) O 98 ° 0 min 0 W/m² 3,9 °C 5,2 °C 9,7 km/h (2 Bft)
27.12.2023 21:08 22,6 °C 5,7 °C 52 % 88 % 1014,2 hPa 0,0 l/m² 4,8 km/h (1 Bft) O 98 ° 0 min 0 W/m² 3,9 °C 5,7 °C 4,8 km/h (1 Bft)
27.12.2023 21:09 22,6 °C 5,7 °C 52 % 88 % 1014,2 hPa 0,0 l/m² 3,4 km/h (1 Bft) O 98 ° 0 min 0 W/m² 3,9 °C 5,7 °C 4,8 km/h (1 Bft)
27.12.2023 21:11 22,6 °C 5,7 °C 52 % 88 % 1014,2 hPa 0,0 l/m² 2,1 km/h (1 Bft) O 98 ° 0 min 0 W/m² 3,9 °C 5,7 °C 4,8 km/h (1 Bft)
27.12.2023 21:13 22,6 °C 5,7 °C 52 % 88 % 1014,2 hPa 0,0 l/m² 0,0 km/h (0 Bft) O 98 ° 0 min 0 W/m² 3,9 °C 5,7 °C 1,6 km/h (1 Bft)
27.12.2023 21:14 22,6 °C 5,7 °C 52 % 88 % 1014,3 hPa 0,0 l/m² 3,1 km/h (1 Bft) O 98 ° 0 min 0 W/m² 3,9 °C 5,7 °C 4,8 km/h (1 Bft)
27.12.2023 21:15 22,6 °C 5,7 °C 53 % 88 % 1014,1 hPa 0,0 l/m² 1,5 km/h (1 Bft) O 98 ° 0 min 0 W/m² 3,9 °C 5,7 °C 3,2 km/h (1 Bft)
27.12.2023 21:16 22,6 °C 5,7 °C 53 % 88 % 1014,2 hPa 0,0 l/m² 0,5 km/h (0 Bft) O 98 ° 0 min 0 W/m² 3,9 °C 5,7 °C 3,2 km/h (1 Bft)
27.12.2023 21:17 22,6 °C 5,6 °C 53 % 88 % 1014,2 hPa 0,0 l/m² 2,1 km/h (1 Bft) O 98 ° 0 min 0 W/m² 3,8 °C 5,6 °C 3,2 km/h (1 Bft)
27.12.2023 21:18 22,6 °C 5,6 °C 53 % 88 % 1014,2 hPa 0,0 l/m² 1,9 km/h (1 Bft) O 98 ° 0 min 0 W/m² 3,8 °C 5,6 °C 3,2 km/h (1 Bft)
27.12.2023 21:19 22,6 °C 5,6 °C 53 % 88 % 1014,1 hPa 0,0 l/m² 4,3 km/h (1 Bft) O 98 ° 0 min 0 W/m² 3,8 °C 5,6 °C 6,4 km/h (2 Bft)
27.12.2023 21:20 22,6 °C 5,6 °C 53 % 88 % 1014,2 hPa 0,0 l/m² 3,9 km/h (1 Bft) O 98 ° 0 min 0 W/m² 3,8 °C 5,6 °C 6,4 km/h (2 Bft)
27.12.2023 21:22 22,6 °C 5,6 °C 53 % 88 % 1014,2 hPa 0,0 l/m² 3,9 km/h (1 Bft) O 98 ° 0 min 0 W/m² 3,8 °C 5,6 °C 4,8 km/h (1 Bft)
27.12.2023 21:23 22,6 °C 5,6 °C 53 % 88 % 1014,3 hPa 0,0 l/m² 4,2 km/h (1 Bft) O 98 ° 0 min 0 W/m² 3,8 °C 5,6 °C 4,8 km/h (1 Bft)
27.12.2023 21:24 22,6 °C 5,6 °C 53 % 88 % 1014,2 hPa 0,0 l/m² 3,8 km/h (1 Bft) O 98 ° 0 min 0 W/m² 3,8 °C 5,6 °C 4,8 km/h (1 Bft)
27.12.2023 21:25 22,6 °C 5,5 °C 53 % 88 % 1014,1 hPa 0,0 l/m² 4,5 km/h (1 Bft) O 98 ° 0 min 0 W/m² 3,7 °C 5,5 °C 6,4 km/h (2 Bft)
27.12.2023 21:26 22,6 °C 5,5 °C 53 % 88 % 1014,1 hPa 0,0 l/m² 3,3 km/h (1 Bft) O 98 ° 0 min 0 W/m² 3,7 °C 5,5 °C 4,8 km/h (1 Bft)
27.12.2023 21:27 22,7 °C 5,5 °C 53 % 88 % 1014,2 hPa 0,0 l/m² 3,1 km/h (1 Bft) O 98 ° 0 min 0 W/m² 3,7 °C 5,5 °C 4,8 km/h (1 Bft)
27.12.2023 21:28 22,6 °C 5,5 °C 53 % 88 % 1014,2 hPa 0,0 l/m² 1,4 km/h (1 Bft) O 98 ° 0 min 0 W/m² 3,7 °C 5,5 °C 1,6 km/h (1 Bft)
27.12.2023 21:29 22,7 °C 5,5 °C 53 % 88 % 1014,2 hPa 0,0 l/m² 1,0 km/h (0 Bft) O 98 ° 0 min 0 W/m² 3,7 °C 5,5 °C 1,6 km/h (1 Bft)
27.12.2023 21:30 22,6 °C 5,5 °C 51 % 88 % 1014,2 hPa 0,0 l/m² 0,2 km/h (0 Bft) O 98 ° 0 min 0 W/m² 3,7 °C 5,5 °C 1,6 km/h (1 Bft)
27.12.2023 21:32 22,6 °C 5,4 °C 48 % 88 % 1014,2 hPa 0,0 l/m² 0,5 km/h (0 Bft) O 98 ° 0 min 0 W/m² 3,6 °C 5,4 °C 3,2 km/h (1 Bft)
27.12.2023 21:33 22,6 °C 5,5 °C 47 % 89 % 1014,2 hPa 0,0 l/m² 3,9 km/h (1 Bft) SO 138 ° 0 min 0 W/m² 3,8 °C 5,5 °C 8,0 km/h (2 Bft)
27.12.2023 21:34 22,6 °C 5,5 °C 46 % 89 % 1014,2 hPa 0,0 l/m² 3,5 km/h (1 Bft) SO 139 ° 0 min 0 W/m² 3,8 °C 5,5 °C 4,8 km/h (1 Bft)
27.12.2023 21:35 22,5 °C 5,4 °C 45 % 89 % 1014,2 hPa 0,0 l/m² 3,1 km/h (1 Bft) SO 142 ° 0 min 0 W/m² 3,7 °C 5,4 °C 6,4 km/h (2 Bft)
27.12.2023 21:36 22,5 °C 5,5 °C 45 % 89 % 1014,2 hPa 0,0 l/m² 4,8 km/h (1 Bft) SO 140 ° 0 min 0 W/m² 3,8 °C 5,5 °C 11,3 km/h (2 Bft)
27.12.2023 21:37 22,4 °C 5,4 °C 46 % 89 % 1014,1 hPa 0,0 l/m² 4,3 km/h (1 Bft) SO 144 ° 0 min 0 W/m² 3,7 °C 5,4 °C 4,8 km/h (1 Bft)
27.12.2023 21:38 22,4 °C 5,5 °C 46 % 89 % 1014,1 hPa 0,0 l/m² 8,4 km/h (2 Bft) S-SO 148 ° 0 min 0 W/m² 3,8 °C 3,8 °C 11,3 km/h (2 Bft)
27.12.2023 21:39 22,4 °C 5,5 °C 47 % 89 % 1014,1 hPa 0,0 l/m² 7,2 km/h (2 Bft) S-SO 149 ° 0 min 0 W/m² 3,8 °C 4,8 °C 8,0 km/h (2 Bft)
27.12.2023 21:41 22,4 °C 5,5 °C 47 % 89 % 1014,1 hPa 0,0 l/m² 7,4 km/h (2 Bft) S-SO 154 ° 0 min 0 W/m² 3,8 °C 4,6 °C 11,3 km/h (2 Bft)
27.12.2023 21:43 22,3 °C 5,5 °C 47 % 89 % 1014,0 hPa 0,0 l/m² 4,9 km/h (1 Bft) S-SO 150 ° 0 min 0 W/m² 3,8 °C 5,5 °C 8,0 km/h (2 Bft)
27.12.2023 21:44 22,4 °C 5,5 °C 48 % 89 % 1014,0 hPa 0,0 l/m² 4,8 km/h (1 Bft) S-SO 148 ° 0 min 0 W/m² 3,8 °C 5,5 °C 6,4 km/h (2 Bft)
27.12.2023 21:47 22,4 °C 5,5 °C 48 % 89 % 1014,1 hPa 0,0 l/m² 3,1 km/h (1 Bft) S-SO 149 ° 0 min 0 W/m² 3,8 °C 5,5 °C 6,4 km/h (2 Bft)
27.12.2023 21:48 22,4 °C 5,5 °C 49 % 89 % 1014,0 hPa 0,0 l/m² 3,5 km/h (1 Bft) S-SO 149 ° 0 min 0 W/m² 3,8 °C 5,5 °C 6,4 km/h (2 Bft)
27.12.2023 21:49 22,4 °C 5,5 °C 49 % 89 % 1014,0 hPa 0,0 l/m² 4,4 km/h (1 Bft) S-SO 150 ° 0 min 0 W/m² 3,8 °C 5,5 °C 4,8 km/h (1 Bft)
27.12.2023 21:51 22,4 °C 5,5 °C 49 % 89 % 1014,0 hPa 0,0 l/m² 4,3 km/h (1 Bft) S-SO 152 ° 0 min 0 W/m² 3,8 °C 5,5 °C 6,4 km/h (2 Bft)
27.12.2023 21:53 22,4 °C 5,5 °C 49 % 89 % 1014,0 hPa 0,0 l/m² 7,3 km/h (2 Bft) S-SO 159 ° 0 min 0 W/m² 3,8 °C 4,7 °C 11,3 km/h (2 Bft)
27.12.2023 21:54 22,4 °C 5,5 °C 49 % 89 % 1014,0 hPa 0,0 l/m² 9,5 km/h (2 Bft) S 171 ° 0 min 0 W/m² 3,8 °C 3,0 °C 14,5 km/h (3 Bft)
27.12.2023 21:55 22,4 °C 5,5 °C 49 % 89 % 1014,1 hPa 0,0 l/m² 10,8 km/h (2 Bft) S 182 ° 0 min 0 W/m² 3,8 °C 2,1 °C 12,9 km/h (3 Bft)
27.12.2023 21:56 22,4 °C 5,5 °C 49 % 89 % 1014,0 hPa 0,0 l/m² 12,2 km/h (2 Bft) S 180 ° 0 min 0 W/m² 3,8 °C 1,2 °C 16,1 km/h (3 Bft)
27.12.2023 21:57 22,4 °C 5,5 °C 49 % 89 % 1014,0 hPa 0,0 l/m² 14,1 km/h (3 Bft) S 183 ° 0 min 0 W/m² 3,8 °C 0,1 °C 17,7 km/h (3 Bft)
27.12.2023 21:58 22,4 °C 5,5 °C 49 % 89 % 1014,0 hPa 0,0 l/m² 14,6 km/h (3 Bft) S 180 ° 0 min 0 W/m² 3,8 °C -0,1 °C 19,3 km/h (3 Bft)
27.12.2023 21:59 22,4 °C 5,5 °C 49 % 89 % 1014,0 hPa 0,0 l/m² 13,8 km/h (3 Bft) S 180 ° 0 min 0 W/m² 3,8 °C 0,3 °C 19,3 km/h (3 Bft)
27.12.2023 22:01 22,4 °C 5,6 °C 50 % 89 % 1014,0 hPa 0,0 l/m² 13,5 km/h (3 Bft) S 179 ° 0 min 0 W/m² 3,9 °C 0,6 °C 16,1 km/h (3 Bft)
27.12.2023 22:03 22,4 °C 5,6 °C 50 % 89 % 1014,1 hPa 0,0 l/m² 13,4 km/h (3 Bft) S 177 ° 0 min 0 W/m² 3,9 °C 0,6 °C 16,1 km/h (3 Bft)
27.12.2023 22:04 22,3 °C 5,6 °C 50 % 89 % 1014,1 hPa 0,0 l/m² 13,0 km/h (3 Bft) S 173 ° 0 min 0 W/m² 3,9 °C 0,9 °C 16,1 km/h (3 Bft)
27.12.2023 22:05 22,3 °C 5,6 °C 50 % 89 % 1014,1 hPa 0,0 l/m² 14,4 km/h (3 Bft) S 172 ° 0 min 0 W/m² 3,9 °C 0,1 °C 19,3 km/h (3 Bft)
27.12.2023 22:06 22,3 °C 5,7 °C 49 % 89 % 1014,1 hPa 0,0 l/m² 13,1 km/h (3 Bft) S 175 ° 0 min 0 W/m² 4,0 °C 0,9 °C 16,1 km/h (3 Bft)
27.12.2023 22:07 22,3 °C 5,7 °C 49 % 89 % 1014,0 hPa 0,0 l/m² 14,8 km/h (3 Bft) S 175 ° 0 min 0 W/m² 4,0 °C 0,0 °C 19,3 km/h (3 Bft)
27.12.2023 22:08 22,3 °C 5,7 °C 49 % 89 % 1014,0 hPa 0,0 l/m² 12,5 km/h (2 Bft) S-SO 167 ° 0 min 0 W/m² 4,0 °C 1,3 °C 17,7 km/h (3 Bft)
27.12.2023 22:09 22,3 °C 5,7 °C 50 % 89 % 1014,0 hPa 0,0 l/m² 12,3 km/h (2 Bft) S-SO 163 ° 0 min 0 W/m² 4,0 °C 1,4 °C 17,7 km/h (3 Bft)
27.12.2023 22:10 22,3 °C 5,7 °C 50 % 89 % 1013,9 hPa 0,0 l/m² 11,7 km/h (2 Bft) S-SO 167 ° 0 min 0 W/m² 4,0 °C 1,7 °C 14,5 km/h (3 Bft)
27.12.2023 22:12 22,3 °C 5,8 °C 50 % 89 % 1013,9 hPa 0,0 l/m² 10,8 km/h (2 Bft) S 180 ° 0 min 0 W/m² 4,1 °C 2,4 °C 14,5 km/h (3 Bft)
27.12.2023 22:13 22,2 °C 5,8 °C 50 % 89 % 1013,8 hPa 0,0 l/m² 11,6 km/h (2 Bft) S 169 ° 0 min 0 W/m² 4,1 °C 1,9 °C 14,5 km/h (3 Bft)
27.12.2023 22:14 22,2 °C 5,8 °C 50 % 89 % 1013,8 hPa 0,0 l/m² 13,0 km/h (3 Bft) S 174 ° 0 min 0 W/m² 4,1 °C 1,1 °C 16,1 km/h (3 Bft)
27.12.2023 22:15 22,2 °C 5,8 °C 50 % 89 % 1013,7 hPa 0,0 l/m² 11,3 km/h (2 Bft) S-SO 161 ° 0 min 0 W/m² 4,1 °C 2,1 °C 16,1 km/h (3 Bft)
27.12.2023 22:16 22,2 °C 5,8 °C 50 % 89 % 1013,7 hPa 0,0 l/m² 12,1 km/h (2 Bft) S-SO 163 ° 0 min 0 W/m² 4,1 °C 1,6 °C 17,7 km/h (3 Bft)
27.12.2023 22:17 22,2 °C 5,8 °C 50 % 89 % 1013,7 hPa 0,0 l/m² 13,0 km/h (3 Bft) S-SO 163 ° 0 min 0 W/m² 4,1 °C 1,1 °C 17,7 km/h (3 Bft)
27.12.2023 22:18 22,1 °C 5,8 °C 51 % 89 % 1013,6 hPa 0,0 l/m² 12,2 km/h (2 Bft) S-SO 163 ° 0 min 0 W/m² 4,1 °C 1,6 °C 17,7 km/h (3 Bft)
27.12.2023 22:19 22,1 °C 5,9 °C 51 % 89 % 1013,6 hPa 0,0 l/m² 9,4 km/h (2 Bft) S-SO 164 ° 0 min 0 W/m² 4,2 °C 3,5 °C 14,5 km/h (3 Bft)
27.12.2023 22:21 22,1 °C 5,9 °C 51 % 89 % 1013,6 hPa 0,0 l/m² 10,8 km/h (2 Bft) S-SO 157 ° 0 min 0 W/m² 4,2 °C 2,5 °C 14,5 km/h (3 Bft)
27.12.2023 22:23 22,1 °C 5,9 °C 51 % 89 % 1013,6 hPa 0,0 l/m² 13,9 km/h (3 Bft) S-SO 161 ° 0 min 0 W/m² 4,2 °C 0,7 °C 20,9 km/h (4 Bft)
27.12.2023 22:24 22,1 °C 5,9 °C 51 % 89 % 1013,5 hPa 0,0 l/m² 14,8 km/h (3 Bft) S 170 ° 0 min 0 W/m² 4,2 °C 0,3 °C 19,3 km/h (3 Bft)
27.12.2023 22:25 22,1 °C 5,9 °C 51 % 88 % 1013,5 hPa 0,0 l/m² 13,9 km/h (3 Bft) S-SO 156 ° 0 min 0 W/m² 4,1 °C 0,7 °C 19,3 km/h (3 Bft)
27.12.2023 22:26 22,1 °C 5,9 °C 51 % 88 % 1013,6 hPa 0,0 l/m² 12,6 km/h (3 Bft) S-SO 161 ° 0 min 0 W/m² 4,1 °C 1,4 °C 16,1 km/h (3 Bft)
27.12.2023 22:27 22,1 °C 6,0 °C 51 % 89 % 1013,6 hPa 0,0 l/m² 12,1 km/h (2 Bft) S 172 ° 0 min 0 W/m² 4,3 °C 1,8 °C 16,1 km/h (3 Bft)
27.12.2023 22:28 22,1 °C 6,0 °C 51 % 88 % 1013,5 hPa 0,0 l/m² 13,5 km/h (3 Bft) S 174 ° 0 min 0 W/m² 4,2 °C 1,1 °C 19,3 km/h (3 Bft)
27.12.2023 22:29 22,0 °C 6,1 °C 52 % 88 % 1013,6 hPa 0,0 l/m² 14,6 km/h (3 Bft) S-SO 166 ° 0 min 0 W/m² 4,3 °C 0,6 °C 17,7 km/h (3 Bft)
27.12.2023 22:31 22,0 °C 6,1 °C 52 % 88 % 1013,7 hPa 0,0 l/m² 12,5 km/h (2 Bft) S-SO 150 ° 0 min 0 W/m² 4,3 °C 1,7 °C 17,7 km/h (3 Bft)
27.12.2023 22:33 22,0 °C 6,1 °C 52 % 88 % 1013,6 hPa 0,0 l/m² 10,8 km/h (2 Bft) S-SO 156 ° 0 min 0 W/m² 4,3 °C 2,8 °C 14,5 km/h (3 Bft)
27.12.2023 22:34 22,0 °C 6,1 °C 52 % 88 % 1013,6 hPa 0,0 l/m² 11,7 km/h (2 Bft) S-SO 155 ° 0 min 0 W/m² 4,3 °C 2,2 °C 16,1 km/h (3 Bft)
27.12.2023 22:35 22,0 °C 6,1 °C 52 % 88 % 1013,6 hPa 0,0 l/m² 11,7 km/h (2 Bft) S-SO 157 ° 0 min 0 W/m² 4,3 °C 2,2 °C 14,5 km/h (3 Bft)
27.12.2023 22:36 22,0 °C 6,2 °C 52 % 88 % 1013,6 hPa 0,0 l/m² 11,3 km/h (2 Bft) S-SO 154 ° 0 min 0 W/m² 4,4 °C 2,6 °C 14,5 km/h (3 Bft)
27.12.2023 22:37 22,0 °C 6,2 °C 52 % 88 % 1013,5 hPa 0,0 l/m² 8,4 km/h (2 Bft) S-SO 155 ° 0 min 0 W/m² 4,4 °C 4,6 °C 11,3 km/h (2 Bft)
27.12.2023 22:38 22,0 °C 6,2 °C 52 % 87 % 1013,5 hPa 0,0 l/m² 9,7 km/h (2 Bft) S-SO 150 ° 0 min 0 W/m² 4,2 °C 3,6 °C 12,9 km/h (3 Bft)
27.12.2023 22:39 22,0 °C 6,2 °C 52 % 87 % 1013,5 hPa 0,0 l/m² 8,2 km/h (2 Bft) S-SO 152 ° 0 min 0 W/m² 4,2 °C 4,7 °C 11,3 km/h (2 Bft)
27.12.2023 22:40 22,0 °C 6,2 °C 52 % 87 % 1013,5 hPa 0,0 l/m² 9,8 km/h (2 Bft) S-SO 155 ° 0 min 0 W/m² 4,2 °C 3,5 °C 12,9 km/h (3 Bft)
27.12.2023 22:42 22,0 °C 6,2 °C 52 % 87 % 1013,5 hPa 0,0 l/m² 9,5 km/h (2 Bft) SO 136 ° 0 min 0 W/m² 4,2 °C 3,7 °C 14,5 km/h (3 Bft)
27.12.2023 22:43 22,0 °C 6,2 °C 52 % 87 % 1013,5 hPa 0,0 l/m² 7,1 km/h (2 Bft) SO 140 ° 0 min 0 W/m² 4,2 °C 5,6 °C 11,3 km/h (2 Bft)
27.12.2023 22:44 21,9 °C 6,2 °C 52 % 87 % 1013,5 hPa 0,0 l/m² 8,7 km/h (2 Bft) SO 141 ° 0 min 0 W/m² 4,2 °C 4,3 °C 11,3 km/h (2 Bft)
27.12.2023 22:45 21,9 °C 6,2 °C 53 % 87 % 1013,5 hPa 0,0 l/m² 6,8 km/h (2 Bft) SO 142 ° 0 min 0 W/m² 4,2 °C 5,9 °C 8,0 km/h (2 Bft)
27.12.2023 22:46 21,9 °C 6,2 °C 53 % 87 % 1013,5 hPa 0,0 l/m² 8,6 km/h (2 Bft) S-SO 149 ° 0 min 0 W/m² 4,2 °C 4,4 °C 12,9 km/h (3 Bft)
27.12.2023 22:47 21,9 °C 6,2 °C 53 % 87 % 1013,6 hPa 0,0 l/m² 9,6 km/h (2 Bft) SO 140 ° 0 min 0 W/m² 4,2 °C 3,7 °C 12,9 km/h (3 Bft)
27.12.2023 22:48 22,0 °C 6,2 °C 53 % 87 % 1013,5 hPa 0,0 l/m² 9,0 km/h (2 Bft) S-SO 147 ° 0 min 0 W/m² 4,2 °C 4,1 °C 12,9 km/h (3 Bft)
27.12.2023 22:49 21,9 °C 6,2 °C 53 % 87 % 1013,6 hPa 0,0 l/m² 9,5 km/h (2 Bft) S-SO 151 ° 0 min 0 W/m² 4,2 °C 3,7 °C 14,5 km/h (3 Bft)
27.12.2023 22:51 22,0 °C 6,3 °C 53 % 86 % 1013,6 hPa 0,0 l/m² 6,6 km/h (2 Bft) SO 145 ° 0 min 0 W/m² 4,1 °C 6,2 °C 9,7 km/h (2 Bft)
27.12.2023 22:53 21,9 °C 6,3 °C 53 % 86 % 1013,5 hPa 0,0 l/m² 8,2 km/h (2 Bft) S-SO 148 ° 0 min 0 W/m² 4,1 °C 4,8 °C 14,5 km/h (3 Bft)
27.12.2023 22:54 21,9 °C 6,3 °C 53 % 86 % 1013,5 hPa 0,0 l/m² 9,3 km/h (2 Bft) SO 143 ° 0 min 0 W/m² 4,1 °C 4,0 °C 12,9 km/h (3 Bft)
27.12.2023 22:55 21,9 °C 6,3 °C 53 % 86 % 1013,6 hPa 0,0 l/m² 9,5 km/h (2 Bft) SO 139 ° 0 min 0 W/m² 4,1 °C 3,9 °C 14,5 km/h (3 Bft)
27.12.2023 22:56 21,9 °C 6,3 °C 53 % 86 % 1013,5 hPa 0,0 l/m² 6,8 km/h (2 Bft) S-SO 147 ° 0 min 0 W/m² 4,1 °C 6,0 °C 11,3 km/h (2 Bft)
27.12.2023 22:57 21,9 °C 6,3 °C 53 % 86 % 1013,5 hPa 0,0 l/m² 12,2 km/h (2 Bft) SO 135 ° 0 min 0 W/m² 4,1 °C 2,1 °C 14,5 km/h (3 Bft)
27.12.2023 22:58 21,9 °C 6,3 °C 53 % 86 % 1013,6 hPa 0,0 l/m² 11,1 km/h (2 Bft) SO 144 ° 0 min 0 W/m² 4,1 °C 2,8 °C 14,5 km/h (3 Bft)
27.12.2023 22:59 21,9 °C 6,3 °C 53 % 86 % 1013,6 hPa 0,0 l/m² 8,9 km/h (2 Bft) S-SO 155 ° 0 min 0 W/m² 4,1 °C 4,3 °C 12,9 km/h (3 Bft)
27.12.2023 23:00 21,9 °C 6,3 °C 53 % 86 % 1013,5 hPa 0,0 l/m² 9,2 km/h (2 Bft) S-SO 157 ° 0 min 0 W/m² 4,1 °C 4,1 °C 12,9 km/h (3 Bft)
27.12.2023 23:02 21,9 °C 6,3 °C 53 % 85 % 1013,6 hPa 0,0 l/m² 6,5 km/h (2 Bft) SO 130 ° 0 min 0 W/m² 4,0 °C 6,2 °C 12,9 km/h (3 Bft)
27.12.2023 23:03 21,9 °C 6,3 °C 53 % 85 % 1013,5 hPa 0,0 l/m² 6,2 km/h (2 Bft) SO 130 ° 0 min 0 W/m² 4,0 °C 6,3 °C 8,0 km/h (2 Bft)
27.12.2023 23:04 21,9 °C 6,3 °C 53 % 85 % 1013,5 hPa 0,0 l/m² 6,0 km/h (2 Bft) SO 128 ° 0 min 0 W/m² 4,0 °C 6,3 °C 11,3 km/h (2 Bft)
27.12.2023 23:05 21,9 °C 6,4 °C 54 % 85 % 1013,5 hPa 0,0 l/m² 6,4 km/h (2 Bft) SO 128 ° 0 min 0 W/m² 4,1 °C 6,4 °C 8,0 km/h (2 Bft)
27.12.2023 23:06 21,9 °C 6,4 °C 54 % 85 % 1013,5 hPa 0,0 l/m² 6,5 km/h (2 Bft) SO 128 ° 0 min 0 W/m² 4,1 °C 6,3 °C 8,0 km/h (2 Bft)
27.12.2023 23:07 21,9 °C 6,4 °C 54 % 85 % 1013,5 hPa 0,0 l/m² 5,9 km/h (2 Bft) SO 127 ° 0 min 0 W/m² 4,1 °C 6,4 °C 6,4 km/h (2 Bft)
27.12.2023 23:08 21,9 °C 6,4 °C 54 % 85 % 1013,5 hPa 0,0 l/m² 6,0 km/h (2 Bft) O-SO 122 ° 0 min 0 W/m² 4,1 °C 6,4 °C 6,4 km/h (2 Bft)
27.12.2023 23:09 21,9 °C 6,4 °C 54 % 85 % 1013,5 hPa 0,0 l/m² 6,7 km/h (2 Bft) O-SO 119 ° 0 min 0 W/m² 4,1 °C 6,2 °C 9,7 km/h (2 Bft)
27.12.2023 23:10 21,9 °C 6,4 °C 54 % 85 % 1013,5 hPa 0,0 l/m² 5,3 km/h (1 Bft) O-SO 117 ° 0 min 0 W/m² 4,1 °C 6,4 °C 9,7 km/h (2 Bft)
27.12.2023 23:12 21,9 °C 6,4 °C 54 % 84 % 1013,6 hPa 0,0 l/m² 4,7 km/h (1 Bft) O-SO 117 ° 0 min 0 W/m² 3,9 °C 6,4 °C 6,4 km/h (2 Bft)
27.12.2023 23:13 21,9 °C 6,4 °C 54 % 84 % 1013,5 hPa 0,0 l/m² 4,4 km/h (1 Bft) O-SO 117 ° 0 min 0 W/m² 3,9 °C 6,4 °C 6,4 km/h (2 Bft)
27.12.2023 23:14 21,9 °C 6,4 °C 54 % 84 % 1013,5 hPa 0,0 l/m² 4,9 km/h (1 Bft) O-SO 117 ° 0 min 0 W/m² 3,9 °C 6,4 °C 6,4 km/h (2 Bft)
27.12.2023 23:15 21,9 °C 6,4 °C 54 % 84 % 1013,4 hPa 0,0 l/m² 4,8 km/h (1 Bft) O-SO 117 ° 0 min 0 W/m² 3,9 °C 6,4 °C 6,4 km/h (2 Bft)
27.12.2023 23:16 21,9 °C 6,4 °C 54 % 84 % 1013,4 hPa 0,0 l/m² 6,4 km/h (2 Bft) O-SO 112 ° 0 min 0 W/m² 3,9 °C 6,4 °C 9,7 km/h (2 Bft)
27.12.2023 23:17 21,9 °C 6,3 °C 54 % 84 % 1013,4 hPa 0,0 l/m² 4,8 km/h (1 Bft) O-SO 112 ° 0 min 0 W/m² 3,8 °C 6,3 °C 9,7 km/h (2 Bft)
27.12.2023 23:23 21,9 °C 6,3 °C 54 % 84 % 1013,1 hPa 0,0 l/m² 8,7 km/h (2 Bft) O-SO 119 ° 0 min 0 W/m² 3,8 °C 4,4 °C 11,3 km/h (2 Bft)
27.12.2023 23:25 21,9 °C 6,2 °C 54 % 84 % 1013,1 hPa 0,0 l/m² 8,1 km/h (2 Bft) SO 128 ° 0 min 0 W/m² 3,7 °C 4,8 °C 12,9 km/h (3 Bft)
27.12.2023 23:26 21,9 °C 6,2 °C 54 % 84 % 1013,1 hPa 0,0 l/m² 7,2 km/h (2 Bft) O-SO 123 ° 0 min 0 W/m² 3,7 °C 5,5 °C 11,3 km/h (2 Bft)
27.12.2023 23:27 21,8 °C 6,2 °C 54 % 84 % 1013,1 hPa 0,0 l/m² 6,6 km/h (2 Bft) O-SO 123 ° 0 min 0 W/m² 3,7 °C 6,1 °C 11,3 km/h (2 Bft)
27.12.2023 23:28 21,8 °C 6,2 °C 54 % 84 % 1013,1 hPa 0,0 l/m² 8,5 km/h (2 Bft) SO 124 ° 0 min 0 W/m² 3,7 °C 4,5 °C 12,9 km/h (3 Bft)
27.12.2023 23:29 21,9 °C 6,2 °C 54 % 84 % 1013,0 hPa 0,0 l/m² 7,4 km/h (2 Bft) O-SO 122 ° 0 min 0 W/m² 3,7 °C 5,4 °C 11,3 km/h (2 Bft)
27.12.2023 23:31 21,8 °C 6,2 °C 54 % 84 % 1012,9 hPa 0,0 l/m² 8,1 km/h (2 Bft) SO 126 ° 0 min 0 W/m² 3,7 °C 4,8 °C 12,9 km/h (3 Bft)
27.12.2023 23:33 21,8 °C 6,1 °C 54 % 83 % 1012,8 hPa 0,0 l/m² 9,7 km/h (2 Bft) O-SO 122 ° 0 min 0 W/m² 3,4 °C 3,5 °C 14,5 km/h (3 Bft)
27.12.2023 23:34 21,8 °C 6,2 °C 54 % 84 % 1012,8 hPa 0,0 l/m² 9,1 km/h (2 Bft) SO 129 ° 0 min 0 W/m² 3,7 °C 4,0 °C 11,3 km/h (2 Bft)
27.12.2023 23:35 21,8 °C 6,1 °C 55 % 83 % 1012,8 hPa 0,0 l/m² 9,7 km/h (2 Bft) SO 130 ° 0 min 0 W/m² 3,4 °C 3,5 °C 12,9 km/h (3 Bft)
27.12.2023 23:36 21,8 °C 6,1 °C 55 % 83 % 1012,8 hPa 0,0 l/m² 10,1 km/h (2 Bft) SO 130 ° 0 min 0 W/m² 3,4 °C 3,2 °C 14,5 km/h (3 Bft)
27.12.2023 23:37 21,8 °C 6,1 °C 55 % 83 % 1012,8 hPa 0,0 l/m² 10,6 km/h (2 Bft) SO 134 ° 0 min 0 W/m² 3,4 °C 2,9 °C 14,5 km/h (3 Bft)
27.12.2023 23:38 21,8 °C 6,1 °C 55 % 83 % 1012,8 hPa 0,0 l/m² 11,7 km/h (2 Bft) SO 131 ° 0 min 0 W/m² 3,4 °C 2,2 °C 17,7 km/h (3 Bft)
27.12.2023 23:39 21,8 °C 6,1 °C 55 % 83 % 1012,8 hPa 0,0 l/m² 6,9 km/h (2 Bft) SO 132 ° 0 min 0 W/m² 3,4 °C 5,7 °C 11,3 km/h (2 Bft)
27.12.2023 23:41 21,8 °C 6,1 °C 55 % 83 % 1012,8 hPa 0,0 l/m² 7,6 km/h (2 Bft) SO 130 ° 0 min 0 W/m² 3,4 °C 5,1 °C 12,9 km/h (3 Bft)
27.12.2023 23:43 21,8 °C 6,1 °C 55 % 83 % 1012,8 hPa 0,0 l/m² 5,5 km/h (2 Bft) SO 125 ° 0 min 0 W/m² 3,4 °C 6,1 °C 11,3 km/h (2 Bft)
27.12.2023 23:44 21,8 °C 6,1 °C 55 % 83 % 1012,8 hPa 0,0 l/m² 5,3 km/h (1 Bft) O-SO 123 ° 0 min 0 W/m² 3,4 °C 6,1 °C 6,4 km/h (2 Bft)
27.12.2023 23:45 21,8 °C 6,1 °C 55 % 83 % 1012,8 hPa 0,0 l/m² 7,4 km/h (2 Bft) SO 132 ° 0 min 0 W/m² 3,4 °C 5,3 °C 12,9 km/h (3 Bft)
27.12.2023 23:46 21,8 °C 6,1 °C 55 % 83 % 1012,7 hPa 0,0 l/m² 7,0 km/h (2 Bft) SO 133 ° 0 min 0 W/m² 3,4 °C 5,6 °C 11,3 km/h (2 Bft)
27.12.2023 23:47 21,8 °C 6,1 °C 55 % 83 % 1012,7 hPa 0,0 l/m² 5,7 km/h (2 Bft) SO 129 ° 0 min 0 W/m² 3,4 °C 6,1 °C 8,0 km/h (2 Bft)
27.12.2023 23:48 21,8 °C 6,1 °C 55 % 83 % 1012,6 hPa 0,0 l/m² 5,7 km/h (2 Bft) SO 128 ° 0 min 0 W/m² 3,4 °C 6,1 °C 8,0 km/h (2 Bft)
27.12.2023 23:49 21,8 °C 6,1 °C 55 % 83 % 1012,5 hPa 0,0 l/m² 7,5 km/h (2 Bft) O-SO 121 ° 0 min 0 W/m² 3,4 °C 5,2 °C 11,3 km/h (2 Bft)
27.12.2023 23:51 21,8 °C 6,1 °C 55 % 83 % 1012,5 hPa 0,0 l/m² 10,2 km/h (2 Bft) SO 125 ° 0 min 0 W/m² 3,4 °C 3,2 °C 19,3 km/h (3 Bft)
27.12.2023 23:53 21,8 °C 6,1 °C 55 % 83 % 1012,4 hPa 0,0 l/m² 9,0 km/h (2 Bft) SO 144 ° 0 min 0 W/m² 3,4 °C 4,0 °C 14,5 km/h (3 Bft)
27.12.2023 23:54 21,8 °C 6,2 °C 55 % 82 % 1012,4 hPa 0,0 l/m² 10,5 km/h (2 Bft) O-SO 123 ° 0 min 0 W/m² 3,4 °C 3,1 °C 14,5 km/h (3 Bft)
27.12.2023 23:55 21,8 °C 6,2 °C 55 % 82 % 1012,4 hPa 0,0 l/m² 10,6 km/h (2 Bft) SO 130 ° 0 min 0 W/m² 3,4 °C 3,0 °C 12,9 km/h (3 Bft)
27.12.2023 23:56 21,8 °C 6,2 °C 55 % 82 % 1012,4 hPa 0,0 l/m² 8,0 km/h (2 Bft) SO 131 ° 0 min 0 W/m² 3,4 °C 4,9 °C 12,9 km/h (3 Bft)
27.12.2023 23:57 21,8 °C 6,2 °C 55 % 82 % 1012,5 hPa 0,0 l/m² 9,8 km/h (2 Bft) SO 130 ° 0 min 0 W/m² 3,4 °C 3,5 °C 14,5 km/h (3 Bft)
27.12.2023 23:58 21,8 °C 6,2 °C 55 % 82 % 1012,4 hPa 0,0 l/m² 9,1 km/h (2 Bft) SO 143 ° 0 min 0 W/m² 3,4 °C 4,0 °C 14,5 km/h (3 Bft)
27.12.2023 23:59 21,8 °C 6,2 °C 55 % 82 % 1012,4 hPa 0,0 l/m² 8,4 km/h (2 Bft) SO 139 ° 0 min 0 W/m² 3,4 °C 4,6 °C 12,9 km/h (3 Bft)
_ Min-Zeit 06:20 07:44 21:36 01:43 23:59 - 21:13 - - - - 07:44 07:44 20:46
Minimum _ 21,6 °C -0,8 °C 45 % 78 % 1012,4 hPa - 0,0 km/h (0 Bft) - - - - -2,1 °C -0,8 °C 0,0 km/h (0 Bft)
_ Max-Zeit 21:29 14:41 20:59 10:32 09:15 23:59 00:44 - - 12:46 11:37 14:41 14:10 00:36
Maximum _ 22,7 °C 6,9 °C 56 % 93 % 1023,6 hPa 0,0 l/m² 16,1 km/h
W-SW (3 Bft)
- - 3 min 221 W/m² 4,6 °C 6,8 °C 24,1 km/h
W-NW (4 Bft)
Durchschnitt _ 22,0 °C 4,0 °C 54 % 87 % 1019,6 hPa #0,0 l/m² 4,6 km/h (1 Bft) W-NW - #5:59 h 33 W/m² 2,0 °C 3,3 °C 6,9 km/h (2 Bft)
© 2009 Mathias Hoßbach